[[{"header":{"parameterUnit":"m.s-1","parameterCategory":1,"la1":30.6,"la2":28.766,"lo1":-90.7593,"lo2":-88.6598,"dy":0.0162,"dx":0.0183,"nx":116,"ny":114,"refTime":"2024-05-06T00:00:00:Z","depth":0,"parameterNumber":2,"parameterNumberName":"U-component_of_WINDS"},"data":[0.0,0.0,0.0,0.0,0.0,0.0,0.0,0.0,0.0,0.0,0.0,0.0,0.0,0.0,0.0,0.0,0.0,0.0,0.0,0.0,0.0,0.0,0.0,0.0,0.0,0.0,0.0,0.0,0.0,0.0,0.0,0.0,0.0,0.0,0.0,0.0,0.0,0.0,0.0,0.0,0.0,0.0,0.0,0.0,0.0,0.0,0.0,0.0,0.0,0.0,0.0,0.0,0.0,0.0,0.0,0.0,0.0,0.0,0.0,0.0,0.0,0.0,0.0,0.0,0.0,0.0,0.0,0.0,0.0,0.0,0.0,0.0,0.0,0.0,0.0,0.0,0.0,0.0,0.0,0.0,0.0,0.0,0.0,0.0,0.0,0.0,0.0,0.0,0.0,0.0,0.0,0.0,0.0,0.0,0.0,0.0,0.0,0.0,0.0,0.0,0.0,0.0,0.0,0.0,0.0,0.0,0.0,0.0,0.0,0.0,0.0,0.0,0.0,0.0,0.0,0.0,0.0,0.0,0.0,0.0,0.0,0.0,0.0,0.0,0.0,0.0,0.0,0.0,0.0,0.0,0.0,0.0,0.0,0.0,0.0,0.0,0.0,0.0,0.0,0.0,0.0,0.0,0.0,0.0,0.0,0.0,0.0,0.0,0.0,0.0,0.0,0.0,0.0,0.0,0.0,0.0,0.0,0.0,0.0,0.0,0.0,0.0,0.0,0.0,0.0,0.0,0.0,0.0,0.0,0.0,0.0,0.0,0.0,0.0,0.0,0.0,0.0,0.0,0.0,0.0,0.0,0.0,0.0,0.0,0.0,0.0,0.0,0.0,0.0,0.0,0.0,0.0,0.0,0.0,0.0,0.0,0.0,0.0,0.0,0.0,0.0,0.0,0.0,0.0,0.0,0.0,0.0,0.0,0.0,0.0,0.0,0.0,0.0,0.0,0.0,0.0,0.0,0.0,0.0,0.0,0.0,0.0,0.0,0.0,0.0,0.0,0.0,0.0,0.0,0.0,0.0,0.0,0.0,0.0,0.0,0.0,0.0,0.0,0.0,0.0,0.0,0.0,0.0,0.0,0.0,0.0,0.0,0.0,0.0,0.0,0.0,0.0,0.0,0.0,0.0,0.0,0.0,0.0,0.0,0.0,0.0,0.0,0.0,0.0,0.0,0.0,0.0,0.0,0.0,0.0,0.0,0.0,0.0,0.0,0.0,0.0,0.0,0.0,0.0,0.0,0.0,0.0,0.0,0.0,0.0,0.0,0.0,0.0,0.0,0.0,0.0,0.0,0.0,0.0,0.0,0.0,0.0,0.0,0.0,0.0,0.0,0.0,0.0,0.0,0.0,0.0,0.0,0.0,0.0,0.0,0.0,0.0,0.0,0.0,0.0,0.0,0.0,0.0,0.0,0.0,0.0,0.0,0.0,0.0,0.0,0.0,0.0,0.0,0.0,0.0,0.0,0.0,0.0,0.0,0.0,0.0,0.0,0.0,0.0,0.0,0.0,0.0,0.0,0.0,0.0,0.0,0.0,0.0,0.0,0.0,0.0,0.0,0.0,0.0,0.0,0.0,0.0,0.0,0.0,0.0,0.0,0.0,0.0,0.0,0.0,0.0,0.0,0.0,0.0,0.0,0.0,0.0,0.0,0.0,0.0,0.0,0.0,0.0,0.0,0.0,0.0,0.0,0.0,0.0,0.0,0.0,0.0,0.0,0.0,0.0,0.0,0.0,0.0,0.0,0.0,0.0,0.0,0.0,0.0,0.0,0.0,0.0,0.0,0.0,0.0,0.0,0.0,0.0,0.0,0.0,0.0,0.0,0.0,0.0,0.0,0.0,0.0,0.0,0.0,0.0,0.0,0.0,0.0,0.0,0.0,0.0,0.0,0.0,0.0,0.0,0.0,0.0,0.0,0.0,0.0,0.0,0.0,0.0,0.0,0.0,0.0,0.0,0.0,0.0,0.0,0.0,0.0,0.0,0.0,0.0,0.0,0.0,0.0,0.0,0.0,0.0,0.0,0.0,0.0,0.0,0.0,0.0,0.0,0.0,0.0,0.0,0.0,0.0,0.0,0.0,0.0,0.0,0.0,0.0,0.0,0.0,0.0,0.0,0.0,0.0,0.0,0.0,0.0,0.0,0.0,0.0,0.0,0.0,0.0,0.0,0.0,0.0,0.0,0.0,0.0,0.0,0.0,0.0,0.0,0.0,0.0,0.0,0.0,0.0,0.0,0.0,0.0,0.0,0.0,0.0,0.0,0.0,0.0,0.0,0.0,0.0,0.0,0.0,0.0,0.0,0.0,0.0,0.0,0.0,0.0,0.0,0.0,0.0,0.0,0.0,0.0,0.0,0.0,0.0,0.0,0.0,0.0,0.0,0.0,0.0,0.0,0.0,0.0,0.0,0.0,0.0,0.0,0.0,0.0,0.0,0.0,0.0,0.0,0.0,0.0,0.0,0.0,0.0,0.0,0.0,0.0,0.0,0.0,0.0,0.0,0.0,0.0,0.0,0.0,0.0,0.0,0.0,0.0,0.0,0.0,0.0,0.0,0.0,0.0,0.0,0.0,0.0,0.0,0.0,0.0,0.0,0.0,0.0,0.0,0.0,0.0,0.0,0.0,0.0,0.0,0.0,0.0,0.0,0.0,0.0,0.0,0.0,0.0,0.0,0.0,0.0,0.0,0.0,0.0,0.0,0.0,0.0,0.0,0.0,0.0,0.0,0.0,0.0,0.0,0.0,0.0,0.0,0.0,0.0,0.0,0.0,0.0,0.0,0.0,0.0,0.0,0.0,0.0,0.0,0.0,0.0,0.0,0.0,0.0,0.0,0.0,0.0,0.0,0.0,0.0,0.0,0.0,0.0,0.0,0.0,0.0,0.0,0.0,0.0,0.0,0.0,0.0,0.0,0.0,0.0,0.0,0.0,0.0,0.0,0.0,0.0,0.0,0.0,0.0,0.0,0.0,0.0,0.0,0.0,0.0,0.0,0.0,0.0,0.0,0.0,0.0,0.0,0.0,0.0,0.0,0.0,0.0,0.0,0.0,0.0,0.0,0.0,0.0,0.0,0.0,0.0,0.0,0.0,0.0,0.0,0.0,0.0,0.0,0.0,0.0,0.0,0.0,0.0,0.0,0.0,0.0,0.0,0.0,0.0,0.0,0.0,0.0,0.0,0.0,0.0,0.0,0.0,0.0,0.0,0.0,0.0,0.0,0.0,0.0,0.0,0.0,0.0,0.0,0.0,0.0,0.0,0.0,0.0,0.0,0.0,0.0,0.0,0.0,0.0,0.0,0.0,0.0,0.0,0.0,0.0,0.0,0.0,0.0,0.0,0.0,0.0,0.0,0.0,0.0,0.0,0.0,0.0,0.0,0.0,0.0,0.0,0.0,0.0,0.0,0.0,0.0,0.0,0.0,0.0,0.0,0.0,0.0,0.0,0.0,0.0,0.0,0.0,0.0,0.0,0.0,0.0,0.0,0.0,0.0,0.0,0.0,0.0,0.0,0.0,0.0,0.0,0.0,0.0,0.0,0.0,0.0,0.0,0.0,0.0,0.0,0.0,0.0,0.0,0.0,0.0,0.0,0.0,0.0,0.0,0.0,0.0,0.0,0.0,0.0,0.0,0.0,0.0,0.0,0.0,0.0,0.0,0.0,0.0,0.0,0.0,0.0,0.0,0.0,0.0,0.0,0.0,0.0,0.0,0.0,0.0,0.0,0.0,0.0,0.0,0.0,0.0,0.0,0.0,0.0,0.0,0.0,0.0,0.0,0.0,0.0,0.0,0.0,0.0,0.0,0.0,0.0,0.0,0.0,0.0,0.0,0.0,0.0,0.0,0.0,0.0,0.0,0.0,0.0,0.0,0.0,0.0,0.0,0.0,0.0,0.0,0.0,0.0,0.0,0.0,0.0,0.0,0.0,0.0,0.0,0.0,0.0,0.0,0.0,0.0,0.0,0.0,0.0,0.0,0.0,0.0,0.0,0.0,0.0,0.0,0.0,0.0,0.0,0.0,0.0,0.0,0.0,0.0,0.0,0.0,0.0,0.0,0.0,0.0,0.0,0.0,0.0,0.0,0.0,0.0,0.0,0.0,0.0,0.0,0.0,0.0,0.0,0.0,0.0,0.0,0.0,0.0,0.0,0.0,0.0,0.0,0.0,0.0,0.0,0.0,0.0,0.0,0.0,0.0,0.0,0.0,0.0,0.0,0.0,0.0,0.0,0.0,0.0,0.0,0.0,0.0,0.0,0.0,0.0,0.0,0.0,0.0,0.0,0.0,0.0,0.0,0.0,0.0,0.0,0.0,0.0,0.0,0.0,0.0,0.0,0.0,0.0,0.0,0.0,0.0,0.0,0.0,0.0,0.0,0.0,0.0,0.0,0.0,0.0,0.0,0.0,0.0,0.0,0.0,0.0,0.0,0.0,0.0,0.0,0.0,0.0,0.0,0.0,0.0,0.0,0.0,0.0,0.0,0.0,0.0,0.0,0.0,0.0,0.0,0.0,0.0,0.0,0.0,0.0,0.0,0.0,0.0,0.0,0.0,0.0,0.0,0.0,0.0,0.0,0.0,0.0,0.0,0.0,0.0,0.0,0.0,0.0,0.0,0.0,0.0,0.0,0.0,0.0,0.0,0.0,0.0,0.0,0.0,0.0,0.0,0.0,0.0,0.0,0.0,0.0,0.0,0.0,0.0,0.0,0.0,0.0,0.0,0.0,0.0,0.0,0.0,0.0,0.0,0.0,0.0,0.0,0.0,0.0,0.0,0.0,0.0,0.0,0.0,0.0,0.0,0.0,0.0,0.0,0.0,0.0,0.0,0.0,0.0,0.0,0.0,0.0,0.0,0.0,0.0,0.0,0.0,0.0,0.0,0.0,0.0,0.0,0.0,0.0,0.0,0.0,0.0,0.0,0.0,0.0,0.0,0.0,0.0,0.0,0.0,0.0,0.0,0.0,0.0,0.0,0.0,0.0,0.0,0.0,0.0,0.0,0.0,0.0,0.0,0.0,0.0,0.0,0.0,0.0,0.0,0.0,0.0,0.0,0.0,0.0,0.0,0.0,0.0,0.0,0.0,0.0,0.0,0.0,0.0,0.0,0.0,0.0,0.0,0.0,0.0,0.0,0.0,0.0,0.0,0.0,0.0,0.0,0.0,0.0,0.0,0.0,0.0,0.0,0.0,0.0,0.0,0.0,0.0,0.0,0.0,0.0,0.0,0.0,0.0,0.0,0.0,0.0,0.0,0.0,0.0,0.0,0.0,0.0,0.0,0.0,0.0,0.0,0.0,0.0,0.0,0.0,0.0,0.0,0.0,0.0,0.0,0.0,0.0,0.0,0.0,0.0,0.0,0.0,0.0,0.0,0.0,0.0,0.0,0.0,0.0,0.0,0.0,0.0,0.0,0.0,0.0,0.0,0.0,0.0,0.0,0.0,0.0,0.0,0.0,0.0,0.0,0.0,0.0,0.0,0.0,0.0,0.0,0.0,0.0,0.0,0.0,0.0,0.0,0.0,0.0,0.0,0.0,0.0,0.0,0.0,0.0,0.0,0.0,0.0,0.0,0.0,0.0,0.0,0.0,0.0,0.0,0.0,0.0,0.0,0.0,0.0,0.0,0.0,0.0,0.0,0.0,0.0,0.0,0.0,0.0,0.0,0.0,0.0,0.0,0.0,0.0,0.0,0.0,0.0,0.0,0.0,0.0,0.0,0.0,0.0,0.0,0.0,0.0,0.0,0.0,0.0,0.0,0.0,0.0,0.0,0.0,0.0,0.0,0.0,0.0,0.0,0.0,0.0,0.0,0.0,0.0,0.0,0.0,0.0,0.0,0.0,0.0,0.0,0.0,0.0,0.0,0.0,0.0,0.0,0.0,0.0,0.0,0.0,0.0,0.0,0.0,0.0,0.0,0.0,0.0,0.0,0.0,0.0,0.0,0.0,0.0,0.0,0.0,0.0,0.0,0.0,0.0,0.0,0.0,0.0,0.0,0.0,0.0,0.0,0.0,0.0,0.0,0.0,0.0,0.0,0.0,0.0,0.0,0.0,0.0,0.0,0.0,0.0,0.0,0.0,0.0,0.0,0.0,0.0,0.0,0.0,0.0,1.6411,0.0,0.0,0.0,0.0,0.0,0.0,0.0,0.0,0.0,0.0,0.0,0.0,0.0,0.0,0.0,0.0,0.0,0.0,0.0,0.0,0.0,0.0,0.0,0.0,4.4685,4.4605,4.4605,4.4542,4.4487,4.4401,0.0,0.0,0.0,0.0,0.0,3.5275,3.0141,2.8552,3.079,2.8885,2.8154,2.853,2.6364,2.3298,1.9599,0.0,0.0,0.0,0.0,0.0,0.0,0.0,0.0,0.0,0.0,0.0,0.0,0.0,0.0,0.0,0.0,0.0,0.0,0.0,0.0,0.0,0.0,0.0,0.0,0.0,0.0,0.0,0.0,0.0,0.0,0.0,0.0,0.0,0.0,0.0,0.0,0.0,0.0,0.0,0.0,0.0,0.0,0.0,0.0,0.0,0.0,0.0,0.0,0.0,0.0,0.0,0.0,0.0,0.0,0.0,0.0,0.0,0.0,0.0,0.0,0.0,0.0,0.0,0.0,0.0,0.0,0.0,0.0,0.0,0.0,0.0,1.4297,0.0,0.0,0.0,0.0,0.0,0.0,0.0,0.0,0.0,0.0,0.0,0.0,0.0,0.0,0.0,0.0,0.0,0.0,0.0,0.0,0.0,4.4895,4.4919,4.477,4.4659,4.464,4.4496,4.4354,4.4258,4.414,4.3968,4.3707,3.9363,3.6706,3.6175,3.1763,3.1305,3.5049,3.1523,3.0128,3.0806,3.3735,3.1573,2.5132,2.2973,0.0,0.0,0.0,0.0,0.0,0.0,0.0,0.0,0.0,0.0,0.0,0.0,0.0,0.0,0.0,0.0,0.0,0.0,0.0,0.0,0.0,0.0,0.0,0.0,0.0,0.0,0.0,0.0,0.0,0.0,0.0,0.0,0.0,0.0,0.0,0.0,0.0,0.0,0.0,0.0,0.0,0.0,0.0,0.0,0.0,0.0,0.0,0.0,0.0,0.0,0.0,0.0,0.0,0.0,0.0,0.0,0.0,0.0,0.0,0.0,0.0,0.0,0.0,1.3978,1.4274,1.4977,1.4028,1.4724,1.652,1.4653,1.6101,1.9177,0.0,0.0,0.0,0.0,0.0,0.0,0.0,0.0,0.0,0.0,0.0,0.0,0.0,0.0,0.0,0.0,0.0,0.0,0.0,0.0,4.4943,4.5057,4.4745,4.4486,4.4365,4.4109,4.3795,4.3403,4.3263,4.296,4.2454,4.1558,4.0997,4.0805,3.9528,3.8982,3.9303,3.7432,3.6502,3.6514,3.6084,3.4117,3.0884,2.7995,2.5994,2.4629,0.0,0.0,0.0,0.0,0.0,0.0,0.0,0.0,0.0,0.0,0.0,0.0,0.0,0.0,0.0,0.0,0.0,0.0,0.0,0.0,0.0,0.0,0.0,0.0,0.0,0.0,0.0,0.0,0.0,0.0,0.0,0.0,0.0,0.0,0.0,0.0,0.0,0.0,0.0,0.0,0.0,0.965,0.972,0.0,0.0,0.0,0.0,0.0,0.0,0.0,0.0,0.0,0.0,0.0,0.0,0.0,1.466,1.3945,1.5413,1.5995,1.5747,1.752,1.8565,1.8862,1.8993,1.8647,1.8072,1.8302,0.0,1.5563,1.3549,0.0,0.0,0.0,0.0,0.0,0.0,0.0,0.0,0.0,0.0,0.0,0.0,0.0,0.0,0.0,0.0,0.0,0.0,0.0,0.0,0.0,4.4495,4.4269,4.4308,4.3999,4.3594,4.3104,4.2704,4.2196,4.1605,4.0936,4.0516,4.0243,3.9055,3.7866,3.658,3.6115,3.5488,3.4505,3.3842,3.2823,3.1474,3.0045,2.7867,2.5181,2.3692,0.0,0.0,0.0,0.0,0.0,0.0,0.0,0.0,0.0,0.0,0.0,0.0,0.0,0.0,0.0,0.0,0.0,0.0,0.0,0.0,0.0,0.0,0.0,0.0,0.0,0.0,0.0,0.0,0.0,0.0,0.0,0.0,0.0,0.0,0.0,0.0,0.0,0.0,0.0,0.6129,0.7248,0.7713,0.7396,0.6979,0.0,0.0,0.0,0.0,0.0,0.0,0.0,0.0,0.0,1.6163,1.64,1.6493,1.663,1.7594,1.8088,1.8081,1.8426,1.8724,1.9189,1.8738,1.8182,1.7388,1.6852,1.5897,1.4531,1.3572,1.1576,0.8672,0.0,0.0,0.0,0.0,0.0932,0.1173,0.0,0.0,0.0,0.0,0.0,0.0,0.0,0.0,0.0,0.0,0.0,0.0,4.3894,4.3614,4.3532,4.3807,4.3412,4.3028,4.2701,4.2016,4.1208,4.0272,3.9345,3.856,3.8046,3.6485,3.488,3.3166,3.3006,3.2277,3.0985,3.0472,2.9943,2.9504,2.9517,2.8439,2.6461,2.5282,2.3772,2.216,0.0,0.0,0.0,0.0,0.0,0.0,0.0,0.0,0.0,0.0,0.0,0.0,0.0,0.0,0.0,0.0,0.0,0.0,0.0,0.0,0.0,0.0,0.0,0.0,0.0,0.0,0.0,0.0,0.0,0.0,0.0,0.0,0.0,0.0,0.0,0.0,0.0,0.5477,0.627,0.6354,0.7587,0.7928,0.0,0.0,0.0,0.0,0.0,0.0,1.566,1.5535,1.5965,1.7155,1.758,1.7964,1.8331,1.8745,1.9036,1.9091,1.8022,1.7676,1.7736,1.7093,1.6349,1.5666,1.4831,1.4315,1.4004,1.3042,1.1894,1.0162,0.6855,0.5246,0.4523,0.2564,0.1647,0.1543,0.0,0.0,0.0,0.0,0.0,0.0,0.0,0.0,0.0,0.0,0.0,4.2089,4.2126,4.1782,4.1834,4.2538,4.2029,4.1725,4.1768,4.0915,3.9649,3.7961,3.7139,3.6219,3.5161,3.3508,3.2283,3.1454,2.964,2.8562,2.8012,2.6794,2.5766,2.5128,2.5909,2.811,3.1071,2.871,2.7227,2.6369,2.5027,0.0,0.0,0.0,0.0,0.0,0.0,0.0,0.0,0.0,0.0,0.0,0.0,0.0,0.0,0.0,0.0,0.0,0.0,0.0,0.0,0.0,0.0,0.0,0.0,0.0,0.0,0.0,0.0,0.0,0.0,0.0,0.0,0.0,0.0,0.0,0.0,0.0,0.0,0.6895,0.9669,0.0,0.0,0.0,0.0,1.1411,1.2101,1.3712,1.6755,1.6418,1.6905,1.8634,1.8739,1.823,1.7159,1.7309,1.7378,1.7549,1.671,1.5863,1.4888,1.4883,1.4147,1.3049,1.3575,1.3443,1.2975,1.2372,1.1219,0.9585,0.6939,0.5301,0.4326,0.305,0.1104,-0.0,0.0,0.0,0.0,0.0,0.0,3.9558,3.9964,4.0002,4.0209,4.0948,4.096,4.1064,4.1518,4.0997,4.0739,4.1047,4.0259,3.9799,3.9939,3.8504,3.7094,3.5784,3.4303,3.2637,3.0707,3.1228,3.0058,2.709,2.6921,2.5864,2.4062,2.294,2.212,2.1557,2.166,2.2351,2.3495,2.5959,2.5716,2.3655,2.3989,2.3042,0.0,0.0,0.0,0.0,0.0,0.0,0.0,0.0,0.0,0.0,0.0,0.0,0.0,0.0,0.0,0.0,0.0,0.0,0.0,0.0,0.0,0.0,0.0,0.0,0.0,0.0,0.0,0.0,0.0,0.0,0.0,0.0,0.0,0.0,0.0,0.0,0.0,0.7543,0.9361,0.0,0.9537,1.1532,1.3388,1.4442,1.6055,1.7262,1.7917,1.7703,1.7157,1.6413,1.6348,1.6146,1.5794,1.5978,1.5968,1.5671,1.5583,1.5009,1.3946,1.4116,1.3758,1.3036,1.2196,1.1774,1.154,1.0528,0.9817,0.9498,0.8646,0.7418,0.6171,0.6943,0.6719,0.5634,0.0,0.0,0.0,3.9165,3.9245,3.9298,3.9401,3.9401,3.9485,3.9835,3.9767,3.9792,4.0088,3.9534,3.9224,3.9383,3.8489,3.8042,3.8337,3.6477,3.4851,3.3613,3.1154,2.9164,2.7705,2.8167,2.7017,2.4218,2.4219,2.3125,2.0861,1.9904,1.8915,1.7905,1.7669,1.7235,1.6699,2.0053,2.1374,2.1255,2.1595,2.171,2.1519,0.0,0.0,0.0,0.0,0.0,0.0,0.0,0.0,0.0,0.0,0.0,0.0,0.0,0.0,0.0,0.0,0.0,0.0,0.0,0.0,0.0,0.0,0.0,0.0,0.0,0.0,0.0,0.0,0.0,0.0,0.0,0.0,0.0,0.0,0.0,0.7171,0.7546,0.9574,1.0891,1.0758,1.2936,1.4612,1.54,1.6993,1.7654,1.6975,1.6827,1.6202,1.4877,1.4872,1.4729,1.4376,1.47,1.4606,1.401,1.44,1.3926,1.2786,1.2892,1.2587,1.1906,1.0882,1.0308,1.0077,0.9175,0.8341,0.7837,0.8108,0.8154,0.7968,0.7385,0.6931,0.5755,0.0,3.8357,3.8545,3.8785,3.8998,3.9137,3.9146,3.911,3.8998,3.8789,3.8597,3.8281,3.7808,3.7343,3.7175,3.7474,3.6768,3.6454,3.6938,3.4901,3.2999,3.1527,2.7753,2.5842,2.6278,2.4284,2.31,2.2859,2.1527,2.0063,1.8511,1.7498,1.6021,1.4115,1.3986,1.3066,1.1768,1.1601,1.4633,1.9338,1.8132,1.7615,1.7879,0.0,0.0,0.0,0.0,0.0,0.0,0.0,0.0,0.0,0.0,0.0,0.0,0.0,0.0,0.0,0.0,0.0,0.0,0.0,0.0,0.0,0.0,0.0,0.0,0.0,0.0,0.0,0.0,0.0,0.0,0.0,0.0,0.0,0.458,0.6818,0.8042,0.689,1.0381,1.2827,1.2539,1.3888,1.4431,1.3914,1.44,1.453,1.4077,1.3901,1.3975,1.4337,1.4484,1.3999,1.2991,1.367,1.3504,1.2512,1.2881,1.2405,1.1209,1.1244,1.0536,0.9412,0.9415,0.8949,0.8371,0.8491,0.695,0.4707,0.5536,0.7393,0.897,0.3861,0.1096,-0.0247,3.0987,3.3633,3.5283,3.4916,3.655,3.7923,3.8008,3.7923,3.7889,3.791,3.7737,3.7416,3.69,3.6446,3.5968,3.5554,3.4299,3.3653,3.3752,3.1904,2.9865,2.7937,2.6191,2.485,2.4059,2.3073,2.159,1.957,1.8493,1.6722,1.431,1.2677,1.1365,1.0289,1.0044,0.9304,0.8178,0.7953,0.8586,1.0196,1.4123,1.6501,1.7728,0.0,0.0,0.0,0.0,0.0,0.0,0.0,0.0,0.0,0.0,0.0,0.0,0.0,0.0,0.0,0.0,0.0,0.0,0.0,0.0,0.0,0.0,0.0,0.0,0.0,0.0,0.0,0.0,0.0,0.0,0.0,0.0,0.4013,0.5016,0.6803,0.8301,0.8966,1.0301,1.1709,1.2746,1.3941,1.4401,1.3679,1.456,1.4393,1.2982,1.3295,1.3431,1.3341,1.2873,1.275,1.2985,1.2728,1.2137,1.1373,1.1201,1.0591,0.9437,0.9418,0.9109,0.8561,0.6662,0.5756,0.576,0.6962,0.709,0.6615,0.7682,0.6393,0.3679,0.1423,-0.0357,-0.1552,2.9403,3.1573,3.3103,3.3587,3.504,3.6343,3.6933,3.7031,3.7051,3.697,3.6685,3.6411,3.6118,3.5211,3.4442,3.384,3.2749,3.2079,3.1907,2.9917,2.7827,2.5576,2.4296,2.3028,2.1544,2.052,1.8983,1.6872,1.5691,1.407,1.2026,0.9878,0.8553,0.7879,0.6642,0.572,0.5105,0.4102,0.3497,0.3485,0.7851,1.106,1.3401,1.4571,1.7731,2.1152,1.7949,1.7431,1.7401,1.1487,0.0,0.0,0.0,0.0,0.0,0.0,0.0,0.0,0.0,0.0,0.0,0.0,0.0,0.0,0.0,0.0,0.0,0.0,0.0,0.0,0.0,0.0,0.0,0.0,0.3015,0.4805,0.5352,0.669,0.8082,0.958,1.0222,1.1034,1.253,1.3402,1.3407,1.2324,1.3038,1.2975,1.1666,1.2251,1.2425,1.2022,1.1974,1.1682,1.115,1.0977,1.0409,0.9449,0.9457,0.9274,0.8688,0.8402,0.846,0.0,0.6937,0.4959,0.285,0.5962,0.563,0.0,0.0,0.0,0.0,0.0,-0.1202,-0.1563,2.9955,3.0623,3.1284,3.2988,3.3613,3.4315,3.551,3.5872,3.5972,3.5788,3.5355,3.5088,3.5057,3.3761,3.2751,3.2299,3.1679,3.1082,3.0446,2.8459,2.6229,2.3998,2.233,2.0651,1.9159,1.7522,1.5958,1.454,1.3125,1.1693,1.0267,0.8022,0.6698,0.5982,0.3536,0.2515,0.2403,0.0502,-0.0503,-0.0905,0.0896,0.3658,0.7111,1.0124,1.3564,1.7194,2.0135,2.0322,1.8854,1.6511,0.0,0.0,0.0,0.0,0.0,0.0,0.0,0.0,0.0,0.0,0.0,0.0,0.0,0.0,0.0,0.0,0.0,0.0,0.0,0.0,0.0,0.0,0.0,0.0,0.405,0.6245,0.5723,0.6265,0.7425,0.9268,0.9762,1.0511,1.1869,1.2269,1.1875,1.0485,1.089,1.0907,1.0278,0.0,0.0,0.0,0.0,1.0565,0.8287,0.8565,0.8184,0.7049,0.7401,0.7805,0.7914,0.7551,0.7597,0.8045,0.787,0.4778,0.0242,0.4485,0.3052,-0.1725,-0.0719,-0.0956,-0.1939,-0.1967,-0.1606,-0.1235,2.4325,2.6226,2.7961,2.7725,2.9388,3.1172,3.2391,3.2507,3.2733,3.3515,3.3409,3.3065,3.2354,3.1986,3.157,3.094,3.0036,2.8771,2.7054,2.5407,2.4063,2.2989,2.0748,1.9084,1.8263,1.614,1.3999,1.1823,1.0747,0.8502,0.5356,0.4243,0.3131,0.192,0.1009,0.0504,0.0402,-0.1002,-0.1906,-0.2415,-0.2706,0.0199,0.4835,0.7168,1.1644,1.701,1.8646,2.1763,2.4454,2.0446,1.8543,1.6803,1.0915,0.6849,0.0,0.0,0.0,0.0,0.0,0.0,0.0,0.0,0.0,0.0,0.0,0.0,0.0,0.0,0.0,0.0,0.0,0.0,0.0,-0.0639,0.1786,0.416,0.5417,0.5832,0.6448,0.767,0.8119,0.8802,1.0175,1.0723,1.0789,1.0028,1.0651,1.0831,1.029,1.019,1.0037,0.9832,0.8826,0.7583,0.6203,0.5667,0.4821,0.3859,0.0,0.0,0.4035,0.324,0.2987,0.3009,0.1582,0.0245,-0.0738,0.0246,-0.0123,-0.1234,-0.1472,-0.1471,-0.123,-0.1851,-0.1977,-0.1853,2.4337,2.5205,2.6318,2.6762,2.7893,2.9198,3.0505,3.1019,3.1304,3.1487,3.1564,3.1312,3.0367,2.974,2.9108,2.8407,2.7769,2.6675,2.497,2.4159,2.2737,2.0451,1.9042,1.715,1.4615,1.3305,1.149,0.9135,0.7994,0.6229,0.394,0.2221,0.0808,-0.0303,-0.1615,-0.232,-0.2717,-0.3709,-0.4798,-0.579,-0.5218,-0.3597,-0.1189,0.2866,0.8449,1.4737,1.8757,2.3007,2.6471,2.4859,2.3152,2.0834,1.5695,1.1507,0.7754,0.0,0.0,0.0,0.0,0.0,0.0,0.0,0.0,0.0,0.0,0.0,0.0,0.0,0.0,-0.2872,-0.2463,0.0,-0.0105,-0.0105,0.125,0.2692,0.3938,0.4592,0.5638,0.7431,0.7795,0.8353,0.9393,0.9934,1.0054,0.9574,0.9458,0.9313,0.9003,0.8416,0.7805,0.7179,0.6172,0.5073,0.4111,0.3374,0.2934,0.27,0.2059,0.1968,0.2094,0.061,-0.0122,-0.0244,-0.1107,-0.1482,-0.1482,-0.1482,-0.1975,-0.2837,-0.3208,-0.2592,-0.1606,-0.2839,-0.3207,-0.3081,2.598,2.5535,2.5671,2.6914,2.7124,2.7535,2.8839,2.9734,3.0133,2.971,2.989,2.9789,2.8962,2.7746,2.6688,2.5847,2.5604,2.5004,2.3761,2.3283,2.1655,1.8548,1.7409,1.5126,1.1614,1.0913,0.9522,0.7134,0.6032,0.4754,0.3332,0.101,-0.0505,-0.1514,-0.3436,-0.4642,-0.5225,-0.6024,-0.7291,-0.8637,-0.6915,-0.6719,-0.6973,-0.169,0.4468,1.103,1.7155,2.2343,2.6392,2.7285,2.6205,2.3928,2.0864,1.6357,1.1702,0.8732,0.5342,0.0,0.0,0.0,0.0,0.0,0.0,0.0,0.0,0.0,-0.2695,-0.2371,-0.2118,-0.1674,-0.106,-0.0105,0.0517,0.0416,0.1249,0.2081,0.2604,0.3488,0.4882,0.7312,0.771,0.7992,0.873,0.9124,0.9137,0.8688,0.7901,0.7314,0.7166,0.6246,0.5238,0.4154,0.3464,0.2744,0.19,0.1435,0.1235,0.1359,0.0741,0.0493,0.0615,-0.1233,-0.2099,-0.2099,-0.2469,-0.2468,-0.2469,-0.2837,-0.3821,-0.5051,-0.5051,-0.4198,-0.3094,-0.4441,-0.4677,-0.4548,2.6201,2.6131,2.5983,2.5605,2.5283,2.5511,2.6617,2.7248,2.782,2.8398,2.8519,2.839,2.7986,2.6735,2.553,2.4376,2.4301,2.4219,2.3727,2.1787,2.0369,2.0008,1.6115,1.3692,1.321,1.1423,0.924,0.6804,0.6667,0.4754,0.1109,0.0404,-0.0806,-0.2312,-0.3522,-0.451,-0.5273,-0.581,-0.7096,-0.8735,-0.7512,-0.772,-0.8287,-0.5207,-0.0195,0.5735,0.963,1.692,2.4587,2.4141,2.603,2.7807,2.3688,1.8433,1.2981,0.901,0.5445,0.1902,-0.1896,-0.0499,0.1614,-0.0,-0.0633,-0.0947,0.0,0.0,-0.1491,0.032,0.0315,0.0104,0.053,0.1048,0.0936,-0.106,0.1274,0.3075,0.2753,0.3009,0.4237,0.6735,0.6964,0.708,0.7189,0.7753,0.7792,0.6878,0.6746,0.6217,0.4927,0.4066,0.3231,0.2186,0.1472,0.0448,-0.067,-0.0717,-0.1235,-0.1977,-0.21,-0.1976,-0.1605,-0.2221,-0.2467,-0.2467,-0.3939,-0.4429,-0.4186,-0.5776,-0.651,-0.6632,-0.6632,-0.6562,-0.6498,-0.6291,-0.6139,-0.6137,2.6396,2.627,2.6131,2.584,2.563,2.561,2.6062,2.7061,2.7755,2.7671,2.8488,2.8391,2.6653,2.4848,2.3441,2.2489,2.2809,2.2615,2.1447,2.0947,2.0124,1.9007,1.6411,1.4429,1.325,1.1668,0.9414,0.652,0.657,0.4754,0.121,0.0707,-0.0806,-0.3116,-0.3217,-0.442,-0.6323,-0.5919,-0.7223,-0.9438,-0.8131,-0.8513,-0.9288,-0.5708,-0.2093,0.1816,0.679,1.4689,0.0,2.3272,2.5991,2.8541,2.4708,1.9998,1.5311,1.2624,0.9327,0.5991,0.3306,0.3807,0.4748,0.0,0.2526,0.1571,0.0955,0.0739,0.1051,0.1807,0.1784,0.1354,0.0955,0.0952,0.0422,0.0,-0.0215,0.0756,0.0216,0.1753,0.3881,0.6566,0.7011,0.6443,0.4757,0.6343,0.7355,0.6769,0.4838,0.3597,0.3398,0.1376,0.0229,0.0116,-0.0681,-0.1255,-0.1658,-0.2192,-0.2592,-0.2839,-0.2839,-0.2716,-0.2592,-0.3447,-0.4303,-0.504,-0.5776,-0.605,-0.5972,-0.6715,-0.7498,-0.8315,-0.8315,-0.8851,-0.9387,-0.8372,-0.7997,-0.8312,2.6533,2.6396,2.627,2.627,2.6188,2.605,2.591,2.7106,2.7879,2.74,2.8535,2.8473,2.6115,2.4221,2.2772,2.1947,2.2218,2.1781,2.0466,2.0788,2.0309,1.8732,1.6973,1.5266,1.379,1.2276,1.024,0.769,0.7378,0.5775,0.2927,0.1818,-0.0101,-0.2414,-0.2412,-0.3924,-0.6361,-0.5425,-0.683,-0.9677,-0.824,-0.851,-0.9383,-0.5802,-0.2191,0.1634,0.6481,1.391,2.1606,2.2777,2.5754,2.8236,2.4033,1.9741,1.5852,1.4016,1.0467,0.7096,0.6859,0.6642,0.0,0.5507,0.4683,0.353,0.2003,0.22,0.2711,0.2759,0.2423,0.1783,0.1175,0.0858,0.0107,-0.1297,-0.0109,0.044,-0.0992,0.1112,0.3815,0.6649,0.7102,0.5844,0.2459,0.3519,0.4586,0.4927,0.2296,0.0693,0.07,-0.1377,-0.2516,-0.2438,-0.3122,-0.3303,-0.3083,-0.3951,-0.4322,-0.3951,-0.4183,-0.418,-0.4063,-0.5158,-0.6149,-0.7165,-0.7534,-0.7846,-0.7948,-0.8326,-0.9142,-1.0259,-1.0259,-1.0799,-1.1468,-1.0447,-1.0069,-1.0259,2.6533,2.6533,2.6465,2.6465,2.6465,2.6314,2.598,2.6946,2.7709,2.7674,2.8349,2.8291,2.6908,2.561,2.4499,2.3671,2.2888,2.228,2.2063,2.1296,2.0817,2.0486,1.7524,1.5765,1.5765,1.3718,1.2057,1.0979,1.0008,0.8355,0.6186,0.354,0.1718,0.0606,-0.0905,-0.2712,-0.4429,-0.3922,-0.5807,-0.9087,-0.7528,-0.7316,-0.7875,-0.6213,-0.0586,0.6702,0.8727,1.4425,2.1185,2.2264,2.5221,2.7412,2.1391,1.6934,1.3379,1.0974,0.62,0.2609,0.6034,0.0,0.4598,0.4522,0.4736,0.4461,0.2173,0.2181,0.2711,0.3288,0.2127,0.1069,0.1631,0.1092,0.0329,-0.0782,0.2578,0.3927,0.0448,0.1569,0.3817,0.6868,0.7217,0.529,0.0,-0.1363,-0.1718,-0.0114,-0.0696,-0.2097,-0.4051,-0.4328,-0.476,-0.5633,-0.5739,-0.5804,-0.5814,-0.6438,-0.6687,-0.6311,-0.6972,-0.7074,-0.6743,-0.7113,-0.7421,-0.765,-0.9277,-0.9985,-0.9989,-1.1526,-1.2174,-1.2178,-1.2178,-1.241,-1.2556,-1.2548,-1.2187,-1.1799,2.6658,2.6658,2.6589,2.6521,2.6533,2.6465,2.6327,2.7033,2.7732,2.8184,2.8511,0.0,0.0,0.0,0.0,0.0,2.5131,2.4704,2.3683,2.3653,2.3151,2.2105,2.0378,1.9273,1.8848,1.7431,1.5913,1.4124,1.3097,1.138,0.8866,0.6634,0.4429,0.2326,0.1817,0.0797,-0.0488,-0.1197,-0.2497,-0.4246,-0.4895,-0.5715,-0.6501,-0.753,-0.1559,0.7605,0.0,1.743,2.5014,2.3554,2.5444,2.7502,2.2285,1.8343,1.4728,1.024,0.6623,0.4444,0.5952,0.0,0.6253,0.5074,0.4353,0.3519,0.1367,0.095,0.1166,0.1401,0.0758,0.0327,0.0554,-0.0222,-0.1003,-0.1121,0.0224,0.0785,-0.0448,0.0224,0.2468,0.6649,0.1245,0.0,0.0,0.0,0.0,-0.2295,-0.4188,-0.5647,-0.5795,-0.589,-0.6269,-0.6841,-0.6836,-0.7146,-0.7771,-0.8019,-0.8125,-0.7964,-0.8277,-0.8763,-0.9428,-0.9532,-1.0101,-1.1151,-1.1643,-1.1917,-1.2078,-1.2859,-1.2938,-1.2657,-1.3172,-1.3846,-1.454,-1.4669,-1.5262,-1.5573,0.0,2.6794,2.6726,2.6452,2.6521,0.0,0.0,0.0,0.0,0.0,0.0,0.0,0.0,0.0,0.0,0.0,0.0,2.6005,2.5279,2.573,2.5567,2.4542,2.3979,2.355,2.3119,2.2325,2.124,1.9854,1.7727,1.5652,1.3762,1.0266,0.7598,0.5856,0.52,0.3857,0.2056,0.1687,-0.0595,-0.413,-0.4747,-0.4196,-0.3125,-0.4578,0.3058,0.0,1.379,1.9127,2.607,2.3067,2.4606,2.6378,1.8033,1.4433,1.2748,0.9836,0.7117,0.5459,0.7594,0.7463,0.6584,0.547,0.4341,0.3071,0.1178,0.0537,0.0324,0.0439,0.011,-0.0,-0.0,-0.1009,-0.1683,-0.1458,-0.1353,-0.1468,-0.2132,-0.1803,-0.0452,0.2828,-0.2509,-0.6819,0.0,0.0,0.0,-0.4907,-0.6591,-0.7498,-0.7125,-0.7438,-0.7728,-0.8036,-0.8471,-0.8933,-0.9556,-0.9805,-1.003,-1.0233,-1.0208,-1.0624,-1.1602,-1.2073,-1.2819,-1.3964,-1.3838,-1.3884,-1.4074,-1.3824,-1.3765,-1.387,-1.3875,-1.4651,-1.5544,-1.5809,-1.6452,-1.6958,0.0,0.0,2.6807,0.0,0.0,0.0,0.0,0.0,0.0,0.0,0.0,0.0,0.0,0.0,0.0,0.0,0.0,0.0,2.6737,2.7477,2.7798,2.7559,2.7839,2.8045,2.8083,2.7757,2.7656,2.7679,2.3381,2.1053,2.0718,1.4644,1.1711,1.1312,0.9561,0.6901,0.3969,0.5275,0.0648,-0.7591,-0.6129,-0.2841,0.1235,0.1072,1.1505,2.5162,1.7321,1.8755,2.3929,2.0654,2.2635,2.3949,0.9983,0.0,0.0,0.0,0.0,0.5427,1.0401,0.8621,0.5383,0.5588,0.4505,0.3033,0.1527,0.0656,0.022,0.0223,-0.0,-0.0112,0.0,0.0,-0.1795,-0.1907,-0.1933,-0.2628,-0.4278,-0.4555,-0.4485,0.0,0.0,0.0,0.0,0.0,0.0,-0.7965,0.0,-0.7831,-0.7986,-0.887,-0.9368,-0.9487,-1.0368,-1.092,-1.092,-1.1547,-1.2175,-1.2804,-1.2813,-1.3054,-1.3269,-1.4607,-1.5448,-1.5854,-1.5742,-1.587,-1.5939,-1.4651,-1.4907,-1.5939,-1.4651,-1.4907,-1.6198,-1.6198,-1.6193,-1.6198,0.0,0.0,0.0,0.0,0.0,0.0,0.0,0.0,0.0,0.0,0.0,0.0,0.0,0.0,0.0,0.0,0.0,0.0,2.7643,2.7808,2.7576,2.6801,2.6853,2.7187,2.7781,2.7717,2.7985,2.8592,2.67,2.5574,2.5335,2.2945,2.1371,2.0416,1.9193,1.8572,1.8309,1.6111,1.0863,0.394,0.3364,-0.0128,-0.5158,-0.7249,-0.0716,0.8929,0.3983,0.8173,1.6142,1.6617,0.0,0.0,0.0,1.3012,0.906,0.0,0.0,0.4965,0.6382,0.5419,0.3904,0.3397,0.1882,0.0222,-0.0779,-0.1448,-0.2007,-0.2126,-0.1793,-0.1346,-0.157,0.0,0.0,-0.269,-0.3038,0.0,-0.4562,-0.5386,0.0,-0.7445,0.0,-0.8086,-1.0094,-0.8818,0.0,0.0,-0.8933,-0.8945,-0.8992,-0.9873,-1.0712,-1.1479,-1.1691,-1.217,-1.2928,-1.3177,-1.3813,-1.4845,-1.5008,-1.574,-1.6569,-1.6074,-1.6621,-1.7879,-1.6813,-1.692,-1.7865,-1.7742,-1.7613,-1.7474,-1.7613,-1.8384,-1.9394,-1.9661,-2.0423,-2.1062,0.0,0.0,0.0,0.0,0.0,0.0,0.0,0.0,0.0,0.0,0.0,0.0,0.0,0.0,0.0,0.0,0.0,0.0,0.0,2.7042,2.7018,2.6499,2.7166,2.7805,2.8393,2.8859,2.9732,3.1013,2.8936,2.8066,2.826,2.5875,2.4008,2.2623,2.1722,2.0156,1.8108,1.6976,1.0718,0.0,0.0,-0.1015,-0.5206,-0.6669,-0.1098,0.6779,0.1174,0.2737,0.7826,0.0,0.0,1.1877,1.4916,1.2468,0.8671,0.9335,0.0,0.5176,0.5955,0.4624,0.2906,0.2108,0.0671,-0.1007,-0.2793,-0.3467,-0.3807,-0.4583,-0.4027,0.0,-0.3053,0.0,0.0,0.0,0.0,0.0,-0.6291,-0.6949,-0.7852,0.0,-0.9544,0.0,-1.0882,-0.9909,-0.9622,0.0,-0.9873,-0.9496,-0.9876,-1.0826,-1.1635,-1.2175,-1.2671,-1.343,-1.458,-1.458,-1.51,-1.6395,-1.6661,-1.73,-1.8081,-1.8126,-1.8692,-1.9695,0.0,-1.8902,-1.9661,-1.9164,-1.9152,-1.94,-1.903,-1.9801,-2.081,-2.1069,-2.1587,-2.2223,0.0,0.0,0.0,0.0,0.0,0.0,0.0,0.0,0.0,0.0,2.4791,2.4862,0.0,0.0,0.0,0.0,0.0,0.0,0.0,0.0,2.5671,2.5755,2.7135,2.819,2.8665,2.9617,3.094,3.2765,2.9817,2.8729,2.9465,2.5954,2.3426,2.177,2.118,1.8093,1.344,1.4917,0.7758,-0.4501,-0.3393,-0.3116,-0.3332,0.0,0.2167,0.8625,0.1949,-0.0374,0.0097,0.0,0.4821,0.6789,1.0378,0.9453,0.7301,0.8634,0.6755,0.4512,0.6116,0.3982,0.1189,0.0442,-0.0558,-0.201,-0.4562,-0.5238,-0.5582,-0.6579,0.0,-0.5736,-0.4681,-0.4081,-0.3953,-0.4357,0.0,-0.724,-0.9071,-0.9272,-0.9679,-1.1024,-1.1031,-1.1109,-1.13,-1.1233,-1.1508,-1.2738,-1.1206,-1.0458,-1.1233,-1.2122,-1.2675,-1.28,-1.3564,-1.4585,-1.5867,-1.5937,-1.6555,-1.7732,-1.8074,-1.8434,-1.8803,-2.0244,-2.0973,-2.1328,-2.1202,0.0,-2.1328,-2.0055,-2.0309,-2.1202,-2.0055,-2.0309,-2.1335,-2.1335,-2.1335,-2.1587,0.0,0.0,0.0,0.0,0.0,0.0,0.0,0.0,0.0,0.0,2.2253,2.2392,0.0,0.0,0.0,0.0,0.0,0.0,0.0,0.0,0.0,2.2505,2.2785,2.374,2.5443,2.5663,2.6443,2.7917,2.7326,2.7132,2.7272,2.7442,2.6641,2.5043,2.506,2.5286,2.5524,2.4917,1.8228,0.7688,0.4755,-0.145,-0.9017,-0.8928,0.0,0.0,-0.799,-0.6241,-0.3403,-0.39,0.3502,1.3759,1.8171,1.3251,0.6095,0.6586,0.2858,-0.1302,-0.0932,-0.242,-0.4169,-0.4197,-0.5125,-0.6021,-0.6352,-0.7114,0.0,0.0,-0.7418,-0.7486,-0.6625,-0.5647,-0.5683,-0.8135,0.0,0.0,0.0,0.0,-1.27,0.0,0.0,0.0,0.0,0.0,0.0,0.0,0.0,-1.4208,-1.3597,-1.4471,-1.5225,-1.5741,-1.5877,-1.639,-1.7051,-1.7406,-1.8096,-1.9394,-1.9891,-2.0807,-2.1776,-2.1345,-2.1665,-2.2724,-2.1587,0.0,-2.2731,-2.2473,-2.2473,-2.2731,-2.2473,-2.2598,-2.2724,-2.2724,-2.2724,-2.2856,0.0,0.0,0.0,0.0,0.0,0.0,0.0,2.0022,1.9944,1.907,1.9061,1.9593,2.1054,2.0688,2.0245,0.0,0.0,0.0,0.0,0.0,0.0,1.9127,1.9416,2.0113,2.1192,2.1155,0.0,0.0,0.0,2.318,2.4512,2.5133,2.5015,2.4091,1.9554,1.7877,1.8442,1.6418,1.0663,0.2854,0.095,-0.4059,-1.0408,0.0,0.0,0.0,0.0,-0.8332,-0.5608,-0.7967,-0.2956,0.4893,0.8251,0.5729,0.1492,0.1481,-0.1389,-0.4549,-0.4375,-0.6195,-0.8161,-0.8224,-0.8633,-0.9198,-1.03,0.0,0.0,0.0,-1.1163,-1.1044,-1.0208,0.0,0.0,0.0,0.0,0.0,0.0,0.0,0.0,0.0,0.0,0.0,0.0,0.0,0.0,0.0,0.0,-1.7138,-1.494,-1.5833,-1.6736,-1.7517,-1.7509,-1.7948,-1.8862,-1.8995,-1.9832,-2.1314,-2.173,-2.2364,-2.3164,-2.2849,-2.301,-2.3517,-2.2885,0.0,-2.3649,-2.3649,-2.3626,-2.3736,-2.4324,-2.4564,-2.4687,-2.5399,-2.5635,-2.5635,0.0,0.0,0.0,0.0,0.0,0.0,1.831,1.8381,1.8132,1.678,1.6363,1.6887,1.8831,1.8417,1.778,0.0,0.0,0.0,0.0,0.0,0.0,0.0,0.0,0.0,0.0,0.0,0.0,0.0,0.0,0.0,0.0,0.0,0.0,0.0,0.0,0.7984,0.6908,0.4512,0.0197,0.0,0.0,-0.7496,0.0,0.0,0.0,0.0,0.0,0.0,-0.776,-1.0524,-0.9399,-0.6561,-0.5134,-0.4392,-0.4349,-0.491,-0.6224,-0.7513,-0.7833,-0.9637,-1.1681,-1.1977,-1.2079,-1.2524,-1.4105,-1.3992,0.0,0.0,-1.4635,-1.434,-1.3447,0.0,-1.3999,0.0,0.0,0.0,0.0,0.0,0.0,0.0,0.0,0.0,0.0,0.0,0.0,0.0,0.0,0.0,-1.6704,-1.7259,-1.8106,-1.9017,-1.9044,-1.9562,-2.0608,-2.0737,-2.1457,-2.3022,-2.3187,-2.3435,-2.3931,-2.434,-2.4533,-2.4494,-2.4835,0.0,0.0,-2.4882,-2.4951,-2.5071,-2.605,-2.6399,-2.6486,-2.7563,-2.7913,-2.7922,0.0,0.0,0.0,0.0,0.0,0.0,1.6378,1.655,1.6632,1.6476,1.5199,1.4343,1.458,1.4497,1.4413,0.0,0.0,0.0,0.0,0.0,0.0,0.0,0.0,0.0,0.0,0.0,0.0,0.0,0.0,0.0,0.0,0.0,0.0,0.0,0.0,0.0,0.0,-0.1098,0.0,0.0,0.0,0.0,0.0,0.0,0.0,0.0,0.0,0.0,0.0,0.0,0.0,-1.1828,-1.2866,-1.1868,-1.0613,-1.1983,0.0,0.0,-1.354,-1.4561,-1.5392,-1.5626,-1.6472,-1.6892,-1.5889,0.0,0.0,-1.4981,-1.5555,-1.6144,-1.5264,-1.5248,-1.5628,-1.6469,0.0,-1.7184,0.0,0.0,0.0,0.0,0.0,0.0,0.0,0.0,0.0,0.0,0.0,0.0,-1.9827,-1.9929,-2.0309,-2.0962,-2.094,-2.1301,-2.1963,-2.2243,-2.2917,-2.4127,-2.3743,-2.4109,-2.5119,-2.557,-2.5823,-2.5943,-2.7059,0.0,0.0,-2.7535,-2.7521,-2.7572,-2.7694,-2.7788,-2.7794,-2.7913,-2.7913,-2.7913,0.0,0.0,0.0,0.0,0.0,0.0,1.5025,1.5379,1.5394,1.43,1.362,1.3197,1.3197,1.1884,1.1278,1.2328,1.1381,0.0,0.0,0.0,0.0,0.0,0.0,0.0,0.0,0.0,1.0389,0.9832,0.0,0.0,0.0,0.0,0.0,0.0,0.0,0.0,0.0,0.0,0.0,0.0,0.0,0.0,0.0,0.0,0.0,0.0,0.0,0.0,0.0,0.0,0.0,0.0,-1.4172,-1.3722,0.0,0.0,-1.5028,-1.6221,-1.6668,-1.7973,-1.9376,-1.9433,-1.9663,-1.9774,-1.9265,0.0,-1.9591,-1.9049,-1.9485,-2.0019,-1.9766,-1.9307,-1.9299,-2.0451,-1.9876,0.0,0.0,0.0,0.0,0.0,0.0,0.0,0.0,0.0,0.0,0.0,0.0,0.0,-2.2973,-2.1805,-2.1421,-2.222,-2.2332,-2.2749,-2.3698,-2.3836,-2.4645,-2.5917,-2.6063,-2.6416,-2.7073,-2.7496,-2.7791,-2.7799,-2.8315,0.0,0.0,-2.8546,-2.8555,-2.8564,-2.9388,-2.9683,-2.9727,-3.0509,-3.0801,-3.0801,0.0,0.0,0.0,0.0,0.0,1.5462,1.4203,1.4196,1.3853,1.251,1.1735,1.1214,1.1214,0.9392,0.8611,0.9753,0.9392,0.0,0.0,0.0,0.0,0.0,0.0,0.0,0.0,0.0,0.8265,0.6508,0.3941,0.1442,0.0,0.0,0.0,0.0,0.0,0.0,0.0,0.0,0.0,0.0,0.0,0.0,0.0,0.0,0.0,0.0,0.0,0.0,0.0,0.0,0.0,0.0,0.0,-1.5936,-1.6333,0.0,-1.6919,-1.8599,-1.9194,-2.0783,-2.2201,-2.2281,-2.2383,-2.2391,0.0,-2.1887,-2.1893,-2.1731,-2.1981,-2.2328,-2.2565,-2.217,-2.1964,-2.2862,-2.2063,-2.1707,-2.2725,0.0,0.0,0.0,0.0,0.0,0.0,0.0,0.0,0.0,0.0,0.0,-2.5255,-2.3869,-2.3349,-2.3973,-2.4094,-2.4394,-2.5345,-2.5275,-2.594,-2.7326,-2.7477,-2.7882,-2.8618,-2.8993,-2.9314,-2.9536,-2.9805,0.0,0.0,-2.9967,-2.9978,-3.0128,-3.1055,-3.1378,-3.1465,-3.234,-3.2727,-3.2727,0.0,0.0,0.0,0.0,0.0,1.4088,1.4088,1.2668,1.161,1.161,0.9456,0.7815,0.7815,0.7037,0.6428,0.6428,0.6428,0.0,0.0,0.0,0.0,0.0,0.0,0.0,0.3967,0.4656,0.3681,0.0801,0.0268,-0.107,-0.3288,-0.6306,0.0,0.0,0.0,0.0,0.0,0.0,0.0,0.0,0.0,0.0,0.0,0.0,0.0,0.0,0.0,0.0,0.0,0.0,0.0,0.0,0.0,-1.9915,-2.0971,-1.8897,-1.8218,-1.8662,-2.1662,-2.2992,-2.3584,-2.3619,-2.443,-2.4932,-2.3592,-2.3285,-2.2998,-2.1939,-2.1981,-2.2328,-2.237,-2.2728,-2.2982,-2.2974,-2.2982,-2.3199,-2.3768,0.0,0.0,0.0,0.0,0.0,0.0,0.0,0.0,0.0,0.0,0.0,-2.6436,-2.6484,-2.6421,-2.6448,-2.6483,-2.6483,-2.6483,-2.6476,-2.7046,-2.8167,-2.7428,-2.7879,-2.9365,-2.9833,-3.0332,0.0,0.0,0.0,0.0,-3.2602,-3.2612,-3.2612,-3.2737,-3.2737,-3.2737,-3.2737,-3.2727,-3.2727,0.0,0.0,0.0,0.0,0.0,0.0,0.9717,0.9708,0.959,0.898,0.8239,0.7508,0.6896,0.5515,0.4461,0.3833,0.4277,0.0,0.0,0.0,0.0,0.0,0.0,0.0,0.0976,0.1338,0.1161,0.0178,-0.3206,-0.5171,-0.5977,-0.7886,-0.9402,-1.0612,-1.1091,-1.186,0.0,-1.4638,0.0,0.0,0.0,0.0,0.0,0.0,0.0,0.0,0.0,0.0,0.0,0.0,0.0,0.0,0.0,0.0,0.0,-2.1354,-2.1793,-2.2348,-2.3313,-2.431,-2.5053,-2.5099,-2.5137,-2.5235,-2.4726,-2.4716,-2.4557,-2.428,-2.4519,-2.4808,-2.5218,-2.4755,-2.478,-2.5827,-2.5305,-2.5397,0.0,0.0,0.0,0.0,0.0,0.0,0.0,0.0,0.0,0.0,0.0,0.0,-2.8013,-2.8965,-2.8499,-2.6547,-2.6547,-2.6845,-2.7669,-2.766,-2.8271,-2.9421,-2.9546,-2.9843,-3.0309,-3.1075,-3.1456,0.0,0.0,0.0,0.0,-3.4826,-3.4668,-3.3883,-3.3883,-3.3392,-3.2727,-3.2727,-3.2727,-3.2727,0.0,0.0,0.0,0.0,0.0,0.0,0.8208,0.8041,0.7835,0.729,0.6463,0.5656,0.5055,0.3771,0.2826,0.2498,0.2227,0.0,0.0,0.0,0.0,0.0,0.0,0.0,-0.1071,-0.2318,-0.2672,-0.2135,-0.6319,-0.8288,-0.8372,-0.9566,-1.0758,-1.1953,-1.2569,-1.3679,0.0,-1.7041,0.0,0.0,0.0,0.0,-2.0232,0.0,0.0,0.0,0.0,0.0,0.0,0.0,0.0,0.0,0.0,0.0,0.0,0.0,-2.3937,-2.45,-2.466,-2.5216,-2.5742,-2.5742,-2.5538,-2.543,-2.543,-2.543,-2.544,-2.5333,-2.5669,-2.5934,-2.6203,-2.6277,-2.6527,-2.704,-2.7368,0.0,0.0,0.0,0.0,0.0,0.0,0.0,0.0,0.0,0.0,0.0,0.0,0.0,-3.0151,-3.124,-3.1104,-2.9321,-2.8461,-2.8281,-2.8995,-2.8965,-2.9265,-2.9994,-3.0287,-3.0727,-3.1347,-3.1927,-3.2556,0.0,0.0,0.0,0.0,-3.5866,-3.5821,-3.5113,-3.5161,-3.4679,-3.4029,-3.4029,-3.4029,-3.4029,0.0,0.0,0.0,0.0,0.0,0.0,0.0,0.7189,0.6223,0.6229,0.4174,0.2696,0.2565,0.1803,0.1566,0.1965,0.0089,0.0,0.0,0.0,0.0,0.0,0.0,-0.1338,-0.2416,-0.5905,-0.7149,-0.5957,-0.8899,-1.0405,-1.0443,-1.1381,-1.2668,-1.423,-1.4507,-1.5662,-1.7516,-1.9011,-1.997,-2.0378,-2.0404,-2.0413,0.0,0.0,0.0,0.0,0.0,0.0,0.0,0.0,0.0,0.0,0.0,0.0,0.0,0.0,0.0,0.0,0.0,-2.5742,-2.5742,-2.5742,-2.5742,-2.5742,-2.5742,-2.5742,0.0,-2.5333,-2.5641,-2.591,-2.5638,-2.7074,-2.8038,-2.7075,0.0,0.0,0.0,0.0,0.0,0.0,0.0,0.0,0.0,0.0,0.0,0.0,0.0,0.0,-3.2577,-3.3389,-3.3902,-3.398,-3.1837,-3.0673,-3.0569,-3.0412,-3.0276,-3.0151,-3.0276,-3.1021,-3.2383,-3.2405,-3.3485,0.0,0.0,0.0,0.0,-3.6439,-3.6439,-3.6362,-3.6382,-3.6273,-3.625,-3.625,-3.625,-3.625,0.0,0.0,0.0,0.0,0.0,0.0,0.0,0.0,0.0,0.0,0.2874,0.2084,0.1111,0.0262,-0.0622,0.0,0.0,0.0,0.0,0.0,0.0,0.0,-0.3484,-0.4198,-0.5888,-0.6795,-0.7672,-0.8416,-0.9662,-1.0626,-1.1295,-1.2845,-1.4028,-1.5025,-1.5861,-1.7292,-1.9359,-2.0323,-2.124,-2.1977,-2.228,-2.2413,0.0,0.0,0.0,0.0,-2.2413,-2.2413,0.0,0.0,0.0,0.0,0.0,0.0,0.0,0.0,-2.4492,-2.4746,-2.5527,0.0,-2.5742,-2.5742,-2.5742,-2.5742,0.0,-2.5742,-2.5635,-2.5635,-2.6257,-2.6707,-2.6309,-2.7212,-2.8051,0.0,0.0,0.0,0.0,0.0,0.0,0.0,0.0,0.0,0.0,0.0,0.0,0.0,0.0,-3.4148,-3.3837,-3.435,-3.4506,-3.4229,-3.3624,-3.2938,-3.1917,-3.2669,-3.2553,-3.1895,-3.2658,-3.3149,-3.3586,-3.3918,-3.4497,0.0,0.0,0.0,-3.7819,-3.8617,-3.8465,-3.7831,-3.7613,-3.7014,-3.6215,-3.6215,-3.6215,-3.6215,0.0,0.0,0.0,0.0,0.0,0.0,0.0,0.0,0.0,0.0,0.1683,0.1051,-0.0082,-0.1003,-0.2027,0.0,0.0,0.0,0.0,0.0,0.0,-0.4919,-0.5275,-0.5894,-0.6959,-0.8013,-0.8973,-0.974,-1.1295,-1.2242,-1.276,-1.4531,-1.5538,-1.6018,-1.7342,-1.8617,-1.9925,-2.0997,-2.1901,-2.2549,-2.2969,0.0,0.0,0.0,0.0,0.0,-2.356,-2.3734,0.0,-2.4231,-2.4317,-2.4317,0.0,0.0,0.0,0.0,-2.5754,-2.595,-2.6867,-2.638,-2.5742,-2.5742,-2.5742,-2.5742,-2.5742,-2.5742,-2.582,-2.6284,0.0,-2.7272,-2.7445,-2.8338,0.0,0.0,0.0,0.0,0.0,0.0,0.0,0.0,0.0,0.0,0.0,0.0,0.0,0.0,0.0,-3.5449,-3.5189,-3.5865,-3.6129,-3.5961,-3.5948,-3.5088,-3.3325,-3.3674,-3.3651,-3.307,-3.3662,-3.4134,-3.4608,-3.49,-3.5466,0.0,0.0,0.0,-3.896,-3.9689,-3.9739,-3.9315,-3.9162,-3.8642,-3.7971,-3.8135,-3.8123,-3.7971,0.0,0.0,0.0,0.0,0.0,0.0,0.0,0.0,0.0,0.0,0.0,0.0,0.0,0.0,0.0,0.0,0.0,0.0,0.0,0.0,-0.6782,-0.6257,-0.6694,-0.7041,-0.7302,-0.9309,-1.0524,-1.0869,-1.3184,-1.4307,-1.4307,-1.5959,-1.678,-1.6935,-1.8727,-1.9682,-2.017,-2.1361,-2.2129,-2.2549,-2.3046,0.0,0.0,0.0,0.0,0.0,0.0,0.0,0.0,-2.5568,-2.5819,-2.5819,-2.5819,0.0,0.0,0.0,0.0,0.0,-2.8331,-2.7432,-2.6197,-2.6197,-2.6197,-2.6197,-2.6197,0.0,0.0,0.0,0.0,0.0,0.0,0.0,0.0,0.0,0.0,0.0,0.0,0.0,0.0,0.0,0.0,0.0,0.0,0.0,0.0,0.0,0.0,-3.659,-3.6565,-3.7371,-3.79,-3.79,-3.79,-3.6921,-3.4865,-3.4664,-3.4397,-3.425,-3.4416,-3.5007,-3.5831,-3.5831,-3.6609,-3.8018,0.0,0.0,-3.9611,-4.0158,-4.0337,-4.0414,-4.0427,-4.0376,-4.021,-4.0387,-4.0337,-4.021,0.0,0.0,0.0,0.0,0.0,0.0,0.0,0.0,0.0,0.0,0.0,0.0,0.0,0.0,0.0,0.0,0.0,0.0,0.0,-0.7212,-0.7914,-0.8607,-0.8002,-0.8352,-0.9744,-1.0096,-1.1386,-1.3535,-1.4608,-1.5123,-1.5257,-1.6214,-1.7107,-1.7917,-1.9599,-2.0653,-2.1018,-2.1617,-2.2129,-2.2634,-2.3811,0.0,0.0,0.0,0.0,0.0,0.0,0.0,0.0,-2.5735,-2.5819,-2.5819,-2.5819,0.0,0.0,0.0,0.0,0.0,-2.7927,-2.8099,-2.8215,-2.8215,-2.8215,-2.8215,-2.8215,-2.8215,0.0,0.0,0.0,0.0,0.0,0.0,0.0,0.0,0.0,0.0,0.0,0.0,0.0,0.0,0.0,0.0,0.0,0.0,0.0,0.0,0.0,-3.7638,-3.7637,-3.7821,-3.79,-3.79,-3.79,-3.773,-3.739,-3.7333,-3.6849,-3.5948,-3.6895,-3.739,-3.756,-3.756,-3.7769,-3.8254,0.0,-3.8698,-3.9335,-3.9599,-3.9827,-4.0094,-4.0411,-4.0449,-4.0488,-4.0491,-4.0492,-4.0387,0.0,0.0,0.0,0.0,0.0,0.0,0.0,0.0,0.0,0.0,0.0,0.0,0.0,0.0,0.0,0.0,0.0,0.0,0.0,-0.8614,-0.957,-1.0428,-1.0514,-1.06,-1.0956,-1.1901,-1.2936,-1.4139,-1.497,-1.5643,-1.6147,-1.7521,-1.8559,-1.945,-2.0495,-2.1045,-2.1279,-2.2419,-2.3059,-2.3281,0.0,0.0,0.0,0.0,0.0,0.0,0.0,0.0,0.0,0.0,-2.7255,-2.7255,-2.7255,0.0,0.0,0.0,0.0,0.0,-2.9374,-2.988,-3.0351,-3.0351,-2.951,-2.868,-2.868,-2.868,-2.8866,0.0,0.0,0.0,0.0,0.0,0.0,0.0,0.0,0.0,0.0,0.0,0.0,0.0,0.0,0.0,0.0,0.0,0.0,0.0,0.0,0.0,-3.79,-3.79,-3.79,-3.79,-3.79,-3.79,-3.79,-3.79,-3.7612,-3.7208,-3.7704,-3.79,-3.79,-3.79,-3.7939,-3.8083,0.0,-3.8673,-3.896,-3.9455,-3.9672,-3.9796,-4.0227,-4.0395,-4.0282,-4.0642,-4.0743,-4.0715,0.0,0.0,0.0,0.0,0.0,0.0,0.0,0.0,0.0,0.0,0.0,0.0,0.0,0.0,0.0,0.0,0.0,0.0,0.0,-1.0025,-1.1128,-1.1809,-1.2589,-1.276,-1.2242,-1.3444,-1.4223,-1.4398,-1.5492,-1.6468,-1.735,-1.8647,-1.9743,-2.0487,-2.0994,-2.1418,-2.1888,-2.3186,-2.395,-2.4409,0.0,0.0,0.0,0.0,0.0,0.0,0.0,0.0,0.0,0.0,0.0,0.0,0.0,0.0,0.0,-2.8991,-2.9581,-3.017,-3.0579,-3.1168,-3.1661,-3.1661,-3.0543,-2.9418,-2.9418,-2.9237,-2.9284,0.0,0.0,0.0,0.0,0.0,0.0,0.0,0.0,0.0,0.0,0.0,0.0,0.0,0.0,0.0,0.0,0.0,0.0,0.0,0.0,0.0,-3.79,-3.79,-3.79,-3.79,-3.79,-3.79,-3.79,-3.79,-3.79,-3.79,-3.79,-3.79,-3.79,-3.79,-3.79,-3.7913,-3.8372,-3.8543,-3.8569,-3.9123,-3.9388,-3.9399,-4.0037,-4.0119,-3.9927,-4.0434,-4.0585,-4.0511,0.0,0.0,0.0,0.0,0.0,0.0,0.0,0.0,0.0,0.0,0.0,0.0,0.0,0.0,0.0,0.0,0.0,0.0,-0.85,-1.1042,-1.2589,-1.2589,-1.3535,-1.3971,-1.388,-1.4055,-1.4482,-1.5347,-1.6952,-1.8247,-1.9143,-1.9222,-1.9494,-2.0014,-2.0799,-2.2068,-2.3629,-2.3774,-2.4545,-2.5775,-2.6741,0.0,0.0,0.0,0.0,0.0,0.0,0.0,0.0,0.0,0.0,0.0,0.0,0.0,-2.8522,-2.8558,-2.9292,-3.0098,-3.0134,-3.0891,-3.1661,-3.1661,-3.1572,-3.1472,-3.1472,-3.0738,-3.0261,-3.0754,0.0,0.0,0.0,0.0,0.0,0.0,0.0,0.0,0.0,0.0,0.0,0.0,0.0,0.0,0.0,0.0,0.0,0.0,0.0,0.0,-3.7874,-3.79,-3.79,-3.79,-3.79,-3.79,-3.79,-3.79,-3.79,-3.79,-3.79,-3.79,-3.79,-3.79,-3.79,-3.79,-3.7926,-3.7926,-3.8044,-3.8556,-3.8714,-3.8812,-3.9415,-3.9642,-3.9586,-3.9699,-3.9548,-3.9359,0.0,0.0,0.0,0.0,0.0,0.0,0.0,0.0,0.0,0.0,0.0,-0.6364,-0.7003,0.0,0.0,0.0,0.0,0.0,-1.0692,-1.2474,-1.3795,-1.4391,-1.4741,-1.5151,-1.5711,-1.5711,-1.5884,-1.6221,-1.7917,-1.8975,-1.9301,-2.0127,-2.0575,-2.0747,-2.2168,-2.3165,-2.3909,-2.5272,-2.6244,-2.6753,-2.7672,-2.8007,0.0,0.0,0.0,0.0,0.0,0.0,0.0,0.0,-2.851,-2.851,-2.851,-2.851,-2.851,-2.851,-2.9256,-3.0086,-3.0086,-3.0855,-3.1661,-3.1661,-3.1661,-3.1661,-3.1661,-3.089,-3.0307,-3.0771,-3.039,0.0,0.0,0.0,0.0,0.0,0.0,0.0,0.0,0.0,0.0,0.0,0.0,0.0,0.0,0.0,0.0,0.0,0.0,0.0,-3.7312,-3.7351,-3.7521,-3.79,-3.79,-3.79,-3.79,-3.79,-3.79,-3.79,-3.79,-3.79,-3.79,-3.79,-3.79,-3.79,-3.79,-3.79,-3.7913,-3.8096,-3.8214,-3.8292,-3.8859,-3.9315,-3.9576,-3.9576,-3.9498,-3.9406,0.0,0.0,0.0,0.0,0.0,0.0,0.0,0.0,-0.6802,0.0,0.0,0.0,0.0,-0.7617,0.0,0.0,0.0,0.0,-1.1982,-1.3569,-1.4734,-1.5318,-1.5658,-1.6229,-1.7107,-1.735,-1.7432,-1.7107,-1.8567,-1.9524,-1.9902,-2.1084,-2.1619,-2.166,-2.3454,-2.4303,-2.4534,-2.6442,-2.7348,-2.7684,-2.8259,-2.851,0.0,0.0,0.0,0.0,0.0,0.0,0.0,0.0,-2.851,-2.851,-2.851,-2.851,-2.851,-2.851,-2.9136,-2.9869,-3.0037,-3.0735,-3.1456,-3.1625,-3.1661,-3.1625,-3.1456,-3.064,-3.0087,-3.0603,-3.0591,-3.0649,-3.1201,0.0,0.0,0.0,0.0,0.0,0.0,0.0,0.0,0.0,0.0,0.0,0.0,0.0,0.0,0.0,0.0,0.0,0.0,-3.6983,-3.7271,-3.7599,-3.7808,-3.79,-3.79,-3.8148,-3.8317,-3.8317,-3.8317,-3.8148,-3.79,-3.79,-3.79,-3.79,-3.79,-3.79,-3.79,-3.79,-3.79,-3.7939,-3.8305,-3.871,-3.9076,-3.9076,-3.9083,-3.907,0.0,0.0,0.0,0.0,0.0,0.0,0.0,0.0,-0.7512,-0.7507,-0.7339,0.0,0.0,0.0,0.0,0.0,0.0,0.0,-1.197,-1.4145,-1.5401,-1.535,-1.6191,-1.7107,-1.7997,-1.8895,-1.8895,-1.7997,-1.8895,-2.0,-2.124,-2.2176,-2.2574,-2.2595,-2.4395,-2.5475,-2.5902,-2.6835,-2.7684,-2.851,-2.851,-2.851,-2.851,0.0,0.0,0.0,0.0,0.0,0.0,0.0,-2.851,-2.851,-2.851,-2.851,-2.851,-2.851,-2.8883,-2.9412,-2.9941,-3.0482,-3.1011,0.0,0.0,0.0,-3.0987,-3.0117,-2.9555,-3.0181,-3.0737,-3.1392,-3.1968,-3.2854,0.0,-3.4293,0.0,0.0,0.0,0.0,0.0,0.0,0.0,0.0,0.0,0.0,0.0,0.0,0.0,0.0,0.0,-3.7025,-3.7164,-3.6998,-3.7586,-3.79,-3.79,-3.8792,-3.921,-3.921,-3.921,-3.8805,-3.79,-3.79,-3.79,-3.79,-3.79,-3.79,-3.79,-3.79,-3.79,-3.79,-3.79,-3.79,-3.79,-3.79,-3.79,-3.79,0.0,0.0,0.0,0.0,0.0,0.0,0.0,0.0,-0.825,-0.7982,-0.833,0.0,0.0,0.0,0.0,0.0,0.0,0.0,-1.3676,-1.533,-1.6617,-1.7172,-1.7504,-1.7997,-1.8895,-1.9775,-2.0089,-1.9844,-2.0394,-2.0864,-2.125,-2.2093,-2.2832,-2.3502,-2.4973,-2.603,-2.6846,-2.7765,-2.8259,-2.851,-2.851,-2.851,-2.851,0.0,0.0,0.0,0.0,0.0,0.0,0.0,0.0,0.0,-2.851,-2.851,-2.851,-2.851,-2.9148,-2.9893,-3.005,-3.1089,0.0,0.0,0.0,0.0,0.0,-3.0493,0.0,0.0,-3.053,-3.1334,-3.1894,0.0,0.0,0.0,0.0,0.0,0.0,0.0,0.0,0.0,0.0,0.0,0.0,0.0,0.0,0.0,0.0,0.0,0.0,-3.6122,-3.683,-3.8401,-3.7679,-3.8136,-3.9972,-3.9461,-3.9549,-4.0159,-4.0159,-3.9738,-3.8792,-3.8148,-3.8226,-3.8792,-3.8792,-3.9237,-3.9752,-3.906,-3.8792,-3.8715,-3.8148,-3.79,-3.79,-3.79,-3.79,-3.79,0.0,0.0,0.0,0.0,0.0,0.0,-0.9976,-0.9781,-0.9588,-0.9326,-0.9686,-1.0146,0.0,0.0,0.0,0.0,0.0,0.0,-1.4934,-1.6373,-1.7423,-1.7997,-1.8327,-1.8886,-1.9775,-2.0323,-2.0654,-2.083,-2.1103,-2.1328,-2.1514,-2.2512,-2.3416,-2.4179,-2.5699,-2.667,-2.7267,-2.8099,-2.851,-2.851,-2.851,-2.851,-2.851,0.0,0.0,0.0,0.0,0.0,0.0,0.0,0.0,0.0,-2.851,-2.851,-2.859,-2.8816,-2.9346,-2.9943,-3.0688,0.0,0.0,0.0,0.0,0.0,0.0,0.0,0.0,0.0,0.0,0.0,0.0,0.0,0.0,0.0,0.0,0.0,0.0,0.0,0.0,0.0,0.0,0.0,0.0,0.0,0.0,0.0,0.0,0.0,0.0,-3.6442,-3.7291,-3.8242,-3.8242,-3.8996,-4.0519,-4.0449,-4.0675,-4.1127,-4.1127,-4.0859,-4.0246,-3.9414,-3.9237,-3.9724,-3.9724,-3.9899,-3.9986,-3.9461,-3.8957,-3.8639,-3.8472,-3.8423,-3.8412,-3.8412,-3.8412,-3.8385,0.0,0.0,-1.2425,-1.2459,0.0,0.0,-1.1765,-1.1446,-1.1168,-1.1101,-1.1175,-1.1199,0.0,0.0,0.0,-1.36,0.0,0.0,-1.5851,-1.7279,-1.8158,-1.8238,-1.8975,-1.9854,-2.0722,-2.0722,-2.0938,-2.1461,-2.135,-2.1514,-2.1953,-2.3256,-2.4095,-2.4659,-2.6423,-2.7267,-2.7348,-2.8179,-2.851,-2.851,-2.851,-2.851,-2.851,-2.851,0.0,0.0,0.0,0.0,0.0,0.0,0.0,0.0,-2.851,-2.851,-2.8657,-2.9263,-2.9456,-2.9939,-3.149,0.0,0.0,0.0,0.0,0.0,0.0,0.0,0.0,0.0,0.0,0.0,0.0,0.0,0.0,0.0,0.0,0.0,0.0,0.0,0.0,0.0,0.0,0.0,0.0,0.0,0.0,0.0,0.0,0.0,0.0,-3.7521,-3.8225,-3.7312,-3.9039,-4.01,-4.0214,-4.1555,-4.2231,-4.2155,-4.2155,-4.2155,-4.2155,-4.1113,-4.0689,-4.0774,-4.0845,-4.0332,-3.9461,-3.9461,-3.8895,-3.8148,-3.8957,-3.9262,-3.916,-3.9213,-3.9188,-3.9083,0.0,0.0,-1.3652,-1.347,0.0,0.0,-1.2271,-1.2117,-1.1855,-1.1181,-1.1656,-1.2271,-1.2837,-1.365,0.0,-1.564,-1.6304,0.0,-1.8073,-1.8704,-1.9292,-2.0001,-2.0245,-2.0702,-2.1538,-2.1538,-2.205,-2.3185,-2.2191,-2.1963,-2.2393,-2.3724,-2.4735,-2.5579,-2.6682,-2.7603,-2.8259,-2.8431,-2.851,-2.851,-2.851,-2.851,-2.851,-2.851,-2.851,0.0,0.0,0.0,0.0,0.0,0.0,0.0,-2.851,-2.8816,-2.9263,-2.9341,-3.0018,-3.08,0.0,-3.2316,0.0,0.0,0.0,0.0,0.0,0.0,0.0,0.0,0.0,0.0,0.0,0.0,0.0,0.0,0.0,0.0,0.0,0.0,0.0,0.0,0.0,0.0,0.0,0.0,0.0,0.0,0.0,0.0,-3.6624,-3.7485,-3.8232,-3.875,-3.8682,-3.9929,-4.2513,-4.2011,-4.2352,0.0,-4.3423,-4.3344,-4.3265,-4.1463,-4.1029,-4.1728,-4.24,-4.2222,-4.138,-4.138,-4.0432,-3.9046,-3.9899,-3.9853,-3.9222,-3.9196,-3.9164,-3.9083,0.0,0.0,0.0,0.0,0.0,0.0,0.0,0.0,-1.323,-1.2809,-1.3418,-1.3947,-1.4004,-1.4665,0.0,0.0,-1.7116,-1.7881,-1.8669,-1.9462,-2.0098,-2.0566,-2.0566,-2.0789,-2.1242,-2.1376,-2.2158,-2.346,-2.2992,-2.3185,-2.3826,-2.4281,-2.5158,-2.6505,-2.701,-2.7672,-2.851,-2.851,-2.851,-2.851,-2.851,-2.851,-2.851,-2.851,-2.851,-2.851,-2.851,0.0,0.0,0.0,0.0,0.0,0.0,0.0,-2.9496,-2.9716,-3.0458,-3.1278,0.0,0.0,0.0,0.0,0.0,0.0,0.0,0.0,0.0,0.0,0.0,0.0,0.0,0.0,0.0,0.0,0.0,0.0,0.0,0.0,0.0,0.0,0.0,0.0,0.0,0.0,0.0,0.0,0.0,-3.789,-3.7525,-3.8473,-3.9164,-3.9224,-3.9683,-4.0636,-4.2279,-4.2364,-4.2801,-4.3502,-4.3603,-4.3596,-4.3503,-4.24,-4.214,-4.2659,-4.3076,-4.2835,-4.199,-4.199,-4.1127,-3.9986,-4.0859,-4.0998,-4.0462,-4.0068,-3.9911,-3.9639,0.0,0.0,0.0,0.0,0.0,0.0,0.0,0.0,0.0,-1.4816,-1.5313,-1.5525,-1.5029,-1.5584,-1.6279,0.0,0.0,0.0,-1.8923,-1.9975,-2.0566,-2.0566,-2.0566,-2.0644,-2.0789,-2.1382,-2.23,-2.3615,-2.408,-2.4755,-2.575,-2.5239,-2.5757,-2.7185,-2.7348,-2.7846,-2.851,-2.851,-2.851,-2.851,-2.851,-2.851,-2.851,-2.851,-2.851,-2.851,-2.851,-2.851,-2.851,-2.851,0.0,0.0,0.0,0.0,-2.9793,-3.0317,-3.0921,-3.1562,0.0,0.0,0.0,0.0,0.0,0.0,0.0,0.0,0.0,0.0,0.0,0.0,0.0,0.0,0.0,0.0,0.0,0.0,0.0,0.0,0.0,0.0,0.0,0.0,0.0,0.0,0.0,0.0,0.0,-3.9,-3.8324,-3.9692,-4.0146,-3.932,-4.0639,-4.1377,-4.1311,-4.2444,-4.3059,-4.3137,-4.3514,-4.3596,-4.3329,-4.3329,-4.3329,-4.3329,-4.3329,-4.2835,-4.199,-4.2155,-4.1547,-4.0689,-4.1811,-4.216,-4.1901,-4.0969,-4.058,-4.035,0.0,0.0,0.0,0.0,0.0,0.0,0.0,0.0,0.0,0.0,-1.5675,-1.5948,-1.6515,-1.6971,-1.7722,-1.8797,-1.9358,-1.9858,-2.0294,0.0,0.0,-2.0566,-2.0566,-2.0944,-2.1614,-2.2817,-2.4062,-2.5349,-2.5859,-2.6737,-2.8072,-2.7232,-2.6928,-2.7267,-2.8007,-2.8431,-2.851,-2.851,-2.851,-2.851,-2.851,-2.851,-2.851,-2.851,-2.851,-2.851,-2.851,-2.851,-2.851,-2.851,-2.8816,0.0,0.0,0.0,-3.0996,-3.1084,-3.1542,-3.2109,0.0,0.0,0.0,0.0,0.0,0.0,0.0,0.0,0.0,0.0,0.0,0.0,0.0,0.0,0.0,0.0,0.0,0.0,0.0,0.0,0.0,0.0,0.0,0.0,0.0,0.0,0.0,0.0,-3.916,-3.9233,-3.916,-3.999,-4.0146,-3.932,-4.0167,-4.097,-4.1515,-4.1699,-4.2375,-4.3497,-4.3823,-4.3738,-4.3329,-4.3329,-4.3329,-4.3329,-4.3329,-4.2835,-4.2073,-4.282,-4.214,-4.0774,-4.2482,-4.2673,-4.1854,-4.0916,-4.0569,-4.0302,0.0,0.0,0.0,0.0,0.0,0.0,0.0,0.0,0.0,0.0,0.0,-1.7033,-1.7193,-1.7741,-1.8332,-1.8985,-1.958,-2.0098,-2.0537,-2.0566,-2.0566,-2.0566,-2.1011,-2.1584,-2.2237,-2.3455,-2.4793,-2.6161,-2.66,-2.737,-2.851,-2.8099,-2.7926,-2.7926,-2.8351,-2.851,-2.851,-2.851,-2.851,-2.851,-2.851,-2.851,-2.851,-2.851,-2.851,-2.851,-2.851,-2.851,-2.851,-2.851,-2.8657,-2.8895,-2.8895,0.0,0.0,0.0,-3.1394,0.0,-3.2182,0.0,0.0,0.0,0.0,0.0,0.0,0.0,0.0,0.0,0.0,0.0,0.0,0.0,0.0,0.0,0.0,0.0,0.0,0.0,0.0,0.0,0.0,0.0,0.0,0.0,0.0,0.0,-3.9692,-3.999,-3.999,-4.0301,-4.0316,-3.999,-4.0301,-4.0678,-4.1001,-4.1401,-4.2191,-4.3422,-4.3427,-4.3469,-4.3518,-4.3344,-4.3329,-4.3329,-4.3329,-4.3076,-4.2739,-4.317,-4.282,-4.2222,-4.2996,-4.309,-4.2659,-4.1728,-4.1381,-4.1185,0.0,0.0,0.0,0.0,0.0,0.0,0.0,0.0,0.0,0.0,0.0,-1.8122,-1.7965,0.0,0.0,0.0,-1.9782,-2.0215,-2.0547,-2.0789,-2.0867,-2.0867,-2.1793,-2.2471,-2.284,-2.4211,-2.5487,-2.6495,-2.7174,-2.7846,-2.851,-2.851,-2.851,-2.851,-2.851,-2.851,-2.851,-2.851,-2.851,-2.851,-2.851,-2.851,-2.851,-2.851,-2.851,-2.851,-2.851,-2.851,-2.851,-2.8657,-2.8816,-2.8961,-2.9118,-2.9947,0.0,0.0,0.0,-3.2182,0.0,0.0,0.0,0.0,0.0,0.0,0.0,0.0,0.0,0.0,0.0,0.0,0.0,0.0,0.0,0.0,0.0,0.0,0.0,0.0,0.0,0.0,0.0,0.0,0.0,0.0,0.0,0.0,-4.0146,-4.0524,-4.0524,-4.0524,-4.0524,-4.0524,-4.0524,-4.0524,-4.0524,-4.1232,-4.2007,-4.2753,-4.297,-4.3244,-4.3512,-4.3427,-4.3423,-4.3423,-4.3329,-4.3329,-4.3329,-4.3329,-4.3329,-4.3329,-4.3329,-4.3329,-4.317,-4.2319,-4.199,-4.1854,0.0,0.0,0.0,0.0,0.0,0.0,0.0,0.0,0.0,0.0,0.0,-1.8699,-1.9136,-1.9609,-2.0153,-2.0915,-2.0731,-2.0537,-2.0566,-2.1308,-2.1766,-2.1766,-2.2917,0.0,-2.3646,-2.5464,-2.6393,-2.6495,-2.7838,-2.8431,-2.851,-2.851,-2.851,-2.851,-2.851,-2.851,-2.851,-2.851,-2.851,-2.851,-2.851,-2.851,-2.851,-2.851,-2.851,-2.851,-2.851,-2.851,-2.859,-2.9184,-2.9716,-3.0317,-3.0846,-3.1542,-3.2096,0.0,0.0,0.0,0.0,-3.2182,0.0,0.0,0.0,0.0,0.0,0.0,0.0,0.0,0.0,0.0,0.0,0.0,0.0,0.0,0.0,0.0,0.0,0.0,0.0,0.0,0.0,0.0,0.0,0.0,0.0,0.0,-4.0455,-4.0524,-4.0524,-4.0524,-4.0524,-4.0524,-4.0524,-4.0524,-4.0524,-4.1232,-4.153,-4.1347,-4.2646,-4.3228,-4.3062,-4.3467,-4.369,-4.369,-4.3423,-4.3329,-4.3329,-4.3329,-4.3329,-4.3329,-4.3329,-4.3329,-4.317,-4.2319,-4.199,-4.1908,0.0,0.0,0.0,0.0,0.0,0.0,0.0,0.0,0.0,0.0,0.0,0.0,0.0,-2.0252,-2.0686,-2.0751,-2.1141,-2.1614,-2.2134,-2.1918,-2.2185,-2.2993,-2.3482,-2.4337,-2.5441,-2.6624,-2.7482,-2.7814,-2.8255,-2.851,-2.851,-2.851,-2.851,-2.851,-2.851,-2.851,-2.851,-2.851,-2.851,-2.851,-2.851,-2.851,-2.851,-2.851,-2.851,-2.851,0.0,0.0,-2.9118,-2.9341,-2.9793,-3.033,-3.0545,-3.1084,-3.1629,-3.2096,-3.2182,-3.2182,-3.2182,0.0,0.0,0.0,0.0,0.0,0.0,0.0,0.0,0.0,0.0,0.0,0.0,0.0,0.0,0.0,0.0,0.0,0.0,0.0,0.0,0.0,0.0,0.0,0.0,0.0,0.0,0.0,0.0,-4.0524,-4.0524,-4.0524,-4.0524,-4.0524,-4.0524,-4.0524,-4.0524,-4.0786,-4.1054,-4.15,-4.1801,-4.2417,-4.3213,-4.306,-4.3253,-4.369,-4.3423,-4.3329,-4.3329,-4.3329,-4.3329,-4.3329,-4.3329,-4.3329,-4.325,-4.2915,-4.2835,-4.2835,0.0,0.0,0.0,0.0,0.0,-1.835,-1.8809,-1.9053,-1.9323,-1.9392,0.0,0.0,0.0,0.0,-2.135,-2.1431,-2.1907,-2.251,-2.3198,-2.2961,-2.3319,-2.4336,-2.4844,-2.565,-2.6889,-2.7394,-2.7981,-2.851,-2.833,-2.833,-2.851,-2.851,-2.851,-2.851,-2.851,-2.851,-2.851,-2.851,-2.851,-2.851,-2.851,-2.851,-2.851,-2.8736,-2.8657,0.0,0.0,0.0,0.0,0.0,-2.9947,-3.0393,-3.0784,-3.1246,-3.1616,-3.2096,-3.2182,-3.2182,-3.2182,-3.2182,0.0,0.0,0.0,0.0,0.0,0.0,0.0,0.0,0.0,0.0,0.0,0.0,0.0,0.0,0.0,0.0,0.0,0.0,0.0,0.0,0.0,0.0,0.0,0.0,0.0,0.0,0.0,0.0,-4.0524,-4.0524,-4.0524,-4.0524,-4.0524,-4.0524,-4.0524,-4.0524,-4.077,-4.1247,-4.129,-4.1801,-4.2705,-4.2834,-4.3137,-4.3592,-4.3491,-4.3344,-4.3329,-4.3329,-4.3329,-4.3329,-4.3329,-4.3329,-4.3329,-4.3329,-4.3329,-4.3329,0.0,0.0,-1.9044,-1.9065,-1.8823,-1.8713,-1.8723,-1.9788,-2.073,-2.1084,0.0,0.0,0.0,0.0,0.0,-2.2968,-2.3054,-2.3262,-2.3853,-2.4536,-2.5205,-2.5735,-2.6966,-2.7651,-2.7741,-2.7741,-2.7993,-2.851,-2.7993,-2.8005,-2.851,-2.851,-2.851,-2.851,-2.851,-2.851,-2.851,-2.851,-2.851,-2.851,-2.851,-2.851,-2.8578,-2.9118,0.0,0.0,-2.9184,-2.904,0.0,-2.9947,0.0,0.0,0.0,-3.2182,-3.2182,-3.2182,-3.2182,-3.2182,0.0,0.0,0.0,0.0,0.0,0.0,0.0,0.0,0.0,0.0,0.0,0.0,0.0,0.0,0.0,0.0,0.0,0.0,0.0,0.0,0.0,0.0,0.0,0.0,0.0,0.0,0.0,0.0,-3.9493,-3.9801,-4.0462,-4.0524,-4.0524,-4.0524,-4.0524,-4.0524,-4.0524,-4.0524,-4.0524,-4.0539,-4.1232,-4.1571,-4.1648,-4.272,-4.3242,-4.3318,-4.3607,-4.3581,-4.3329,-4.3329,-4.3329,-4.3329,-4.3329,-4.3329,-4.3329,-4.3329,-4.3329,-4.3329,0.0,-1.9966,-2.0074,-2.0941,-2.0651,-2.0586,-2.1402,-2.1723,-2.1858,0.0,0.0,0.0,-2.301,-2.2809,-2.3163,-2.4254,-2.4362,-2.4814,-2.5983,-2.5692,-2.5989,-2.7079,-2.6909,-2.7325,-2.8282,-2.8294,-2.8366,-2.851,-2.8366,-2.8366,-2.851,-2.851,-2.851,-2.851,-2.851,-2.851,-2.851,-2.851,-2.851,-2.851,-2.851,-2.851,0.0,0.0,0.0,0.0,0.0,-2.9574,-2.9947,0.0,-3.1233,-3.1716,0.0,-3.2182,-3.2182,-3.2182,-3.2182,-3.2182,-3.2182,0.0,0.0,0.0,0.0,0.0,0.0,-3.5255,0.0,0.0,0.0,0.0,0.0,0.0,0.0,0.0,0.0,0.0,0.0,0.0,0.0,0.0,0.0,0.0,0.0,0.0,0.0,0.0,-3.897,-3.9601,-3.9785,-4.0262,-4.0524,-4.0524,-4.0524,-4.0524,-4.0524,-4.0524,-4.0524,-4.0524,-4.0724,-4.1093,-4.1601,-4.1725,-4.234,-4.3288,-4.3259,-4.3301,-4.3596,-4.3344,-4.3329,-4.3329,-4.3329,-4.3329,-4.3329,-4.3329,-4.3329,-4.3329,-2.1282,-2.1057,-2.1138,-2.2033,-2.1823,-2.1702,-2.2408,-2.2857,-2.3028,0.0,0.0,0.0,-2.3817,-2.3765,-2.4351,-2.5616,-2.5437,-2.5809,-2.7148,-2.6777,-2.7014,-2.8029,-2.7557,-2.7699,-2.8498,-2.8294,-2.8294,-2.851,-2.8294,-2.8294,-2.851,-2.851,-2.851,-2.851,-2.851,-2.851,-2.851,-2.8736,-2.8736,0.0,-2.851,0.0,0.0,-2.904,-2.8961,0.0,0.0,0.0,-3.0024,-3.0921,-3.1629,0.0,0.0,0.0,-3.2182,-3.2182,-3.2182,-3.2182,-3.2182,-3.2182,-3.2241,-3.2574,0.0,0.0,-3.4647,-3.54,-3.6148,0.0,0.0,0.0,0.0,0.0,0.0,0.0,0.0,0.0,0.0,0.0,0.0,0.0,0.0,0.0,0.0,-3.7418,-3.7546,-3.7826,-3.8587,-3.9417,-4.0224,-4.0396,-4.0662,-4.0904,-4.0646,-4.0524,-4.0524,-4.0524,-4.0524,-4.0524,-4.0524,-4.0755,-4.117,-4.1275,-4.1843,-4.264,-4.2969,-4.329,-4.3516,-4.3554,-4.3503,-4.3329,-4.3329,-4.3329,-4.3329,-4.3329,-4.3329,-4.3329,0.0,-2.2586,-2.2255,-2.2831,-2.2727,-2.2535,-2.265,-2.3534,-2.4264,0.0,-2.4311,-2.4542,-2.505,-2.5108,-2.5639,-2.6896,-2.6312,-2.6445,-2.7699,-2.7813,-2.8017,-2.8486,-2.851,-2.851,-2.851,-2.8053,-2.8041,-2.851,-2.8041,-2.8053,-2.851,-2.851,-2.851,-2.851,-2.859,-2.859,-2.8669,-2.9263,0.0,-2.8736,-2.8736,-2.8657,0.0,0.0,-2.9561,-2.8816,-3.0545,-3.0545,-2.9793,-3.0921,-3.1703,0.0,0.0,0.0,0.0,0.0,-3.2182,-3.2182,-3.2182,-3.2241,-3.2444,-3.3017,-3.3283,0.0,-3.5124,-3.5464,-3.5737,0.0,0.0,0.0,0.0,0.0,0.0,0.0,0.0,0.0,0.0,0.0,0.0,0.0,0.0,0.0,-3.8502,-3.7911,-3.7773,-3.8347,-3.8457,-3.9336,-4.1281,-4.0902,-4.0878,-4.1575,-4.1024,-4.0715,-4.0715,-4.0646,-4.0578,-4.0578,-4.0524,-4.0524,-4.0555,-4.1186,-4.1524,-4.1663,-4.2702,-4.321,-4.3334,-4.3777,-4.3678,-4.3409,-4.3409,-4.3409,-4.3409,-4.3329,-4.3329,-4.3329,-2.3592,-2.3538,-2.3561,-2.4062,-2.4103,-2.4224,-2.4649,-2.4945,-2.5087,-2.5087,-2.5457,-2.5922,-2.647,-2.653,-2.682,-2.7512,-2.7406,-2.7621,-2.8318,-2.8354,-2.8402,-2.851,-2.851,-2.851,-2.851,-2.8414,-2.8414,-2.851,-2.8414,-2.8414,-2.851,-2.851,-2.851,-2.851,-2.904,-2.9184,-2.9263,-2.9871,0.0,-2.9947,-2.9947,0.0,-2.9263,-3.0024,-2.9871,-2.9419,-3.0696,-3.1071,-3.0996,-3.1703,-3.2096,-3.2182,0.0,0.0,0.0,-3.2182,0.0,0.0,-3.2182,-3.2561,0.0,0.0,0.0,0.0,-3.532,-3.5879,-3.6352,0.0,0.0,0.0,0.0,0.0,0.0,0.0,0.0,0.0,0.0,0.0,0.0,0.0,0.0,0.0,-3.8635,-3.843,-3.8343,-3.8489,-3.885,-3.9801,-4.1342,-4.1305,-4.158,-4.2316,-4.2205,-4.2078,-4.2078,-4.1575,-4.1327,-4.1276,-4.0783,-4.0524,-4.0524,-4.0678,-4.1047,-4.1617,-4.1878,-4.2441,-4.3288,-4.3425,-4.3579,-4.3817,-4.3817,-4.3817,-4.3817,-4.3675,-4.3596,-4.3596,-2.4097,-2.4145,-2.4302,-2.4819,-2.4915,-2.4999,-2.5264,-2.5312,-2.5408,-2.5661,-2.6178,-2.6644,-2.6942,-2.7167,-2.7459,-2.7763,-2.781,-2.7997,-2.8498,-2.8283,-2.8271,-2.851,-2.851,-2.851,-2.851,-2.851,-2.851,-2.851,-2.851,-2.851,-2.851,-2.851,-2.851,-2.851,-2.9118,-2.9419,-2.9496,-3.0393,-3.0771,-3.0696,-3.0393,0.0,-2.9947,-3.0545,-3.0393,-3.0024,-3.1246,-3.1703,-3.1776,-3.2096,-3.2182,0.0,0.0,-3.2182,-3.2182,0.0,-3.2182,-3.2241,0.0,0.0,0.0,-3.4095,0.0,0.0,0.0,-3.6211,-3.6492,0.0,0.0,0.0,0.0,0.0,0.0,0.0,0.0,0.0,0.0,0.0,0.0,0.0,0.0,0.0,-3.9697,-3.9309,-3.8997,-3.8958,-3.9178,-3.9886,-4.1213,-4.1336,-4.1691,-4.2414,-4.245,-4.252,-4.252,-4.2141,-4.1836,-4.1525,-4.1525,-4.1158,-4.0524,-4.0836,-4.1038,-4.1078,-4.1447,-4.1899,-4.2487,-4.3146,-4.3622,-4.3823,-4.3928,-4.3988,-4.3988,-4.3754,-4.369,-4.369,-2.459,-2.4675,-2.4807,-2.524,-2.5312,-2.5336,-2.5444,-2.5456,-2.5685,-2.6248,-2.6653,-2.6966,-2.7085,-2.7392,-2.7648,-2.7765,-2.78,-2.795,-2.8351,-2.8042,-2.8042,-2.851,-2.851,-2.851,-2.851,-2.851,-2.851,-2.851,-2.851,-2.851,-2.851,-2.8578,-2.8657,-2.8736,-2.9419,-2.9716,-2.9793,-3.0934,0.0,-3.1381,0.0,-3.0633,-3.0545,-3.1158,-3.1009,-3.062,-3.179,-3.2182,-3.2182,-3.2182,-3.2182,-3.2182,-3.2182,-3.2182,0.0,0.0,0.0,0.0,0.0,0.0,0.0,0.0,0.0,-3.5737,0.0,0.0,0.0,0.0,0.0,0.0,0.0,0.0,0.0,0.0,0.0,0.0,0.0,0.0,0.0,0.0,0.0,0.0,0.0,-4.0155,-3.974,-3.9594,-3.9506,-3.999,-4.1136,-4.1269,-4.1714,-4.256,-4.266,-4.2762,-4.2892,-4.2769,-4.2395,-4.1885,-4.2332,-4.1949,-4.0904,-4.1327,-4.1209,-4.0746,-4.121,-4.1463,-4.1678,-4.2756,-4.334,-4.3633,-4.3945,-4.4143,-4.4065,-4.391,-4.3769,-4.3675,-2.5204,-2.5216,-2.524,-2.53,-2.5312,-2.5468,-2.5937,-2.6009,-2.6222,-2.6919,-2.703,-2.7097,-2.7209,-2.7256,-2.729,-2.7267,-2.7267,-2.7452,-2.7962,-2.7973,-2.8042,-2.851,-2.851,-2.851,-2.851,-2.851,-2.851,-2.851,-2.851,-2.851,-2.851,-2.904,-2.9263,-2.9341,-3.0469,-3.0996,-3.1071,0.0,-3.2096,0.0,-3.2023,-3.1629,0.0,-3.1863,-3.1703,-3.122,-3.1936,-3.2182,-3.2182,0.0,-3.2182,-3.2182,0.0,-3.2182,-3.2182,0.0,0.0,0.0,0.0,0.0,0.0,0.0,-3.5879,0.0,0.0,0.0,0.0,0.0,0.0,0.0,0.0,0.0,0.0,0.0,0.0,0.0,0.0,0.0,0.0,0.0,0.0,0.0,0.0,-4.0521,-4.0349,-4.0223,-4.0104,-4.0358,-4.1171,-4.124,-4.1878,-4.3256,-4.3278,-4.3637,-4.4367,-4.3706,-4.3333,-4.3257,-4.2769,-4.2395,-4.2269,-4.1706,-4.1459,-4.1343,-4.0861,-4.1016,-4.1617,-4.1755,-4.2509,-4.3633,-4.431,-4.4496,-4.4511,-4.4281,-4.4127,-4.391,-2.5312,-2.5312,-2.5312,-2.5312,-2.5564,-2.5841,-2.6069,-2.6635,-2.7124,-2.7424,-2.7746,-2.785,-2.7592,-2.7626,0.0,-2.7185,0.0,-2.7115,0.0,0.0,-2.7777,-2.851,-2.851,-2.851,-2.851,-2.851,-2.851,-2.851,-2.8816,-2.904,-2.904,-2.9639,-2.9947,-2.9947,-3.0846,0.0,-3.122,0.0,-3.2182,0.0,0.0,0.0,0.0,-3.2096,-3.2023,-3.179,-3.2096,-3.2182,-3.2182,0.0,-3.2182,0.0,0.0,0.0,0.0,0.0,0.0,0.0,0.0,0.0,0.0,0.0,0.0,0.0,-3.6492,0.0,-3.6492,0.0,0.0,0.0,0.0,0.0,0.0,0.0,-3.8049,0.0,0.0,0.0,0.0,0.0,0.0,0.0,0.0,0.0,0.0,0.0,-4.0222,-4.0239,-4.0561,-4.0984,-4.1461,-4.2085,-4.2554,-4.3107,-4.391,-4.3581,-4.3463,-4.3512,-4.3196,-4.2892,-4.252,-4.2205,-4.1901,-4.1459,-4.1209,-4.1007,-4.1001,-4.1432,-4.1925,-4.2525,-4.3587,-4.4233,-4.4587,-4.4358,-4.4281,-4.4143,-2.5601,-2.5553,-2.5576,-2.5721,-2.6069,-2.637,-2.6526,-2.7268,-2.7789,-2.7789,-2.8112,-2.8111,-2.7545,-2.7545,0.0,0.0,-2.6539,-2.6704,0.0,0.0,-2.751,-2.8099,-2.8351,0.0,0.0,-2.8431,-2.851,-2.851,-2.9106,-2.9419,-2.9419,-3.0177,-3.0545,-3.0545,-3.1233,-3.1468,-3.1542,0.0,0.0,-3.2182,-3.2182,-3.2182,-3.2182,-3.2182,-3.2182,-3.2182,-3.2182,-3.2182,-3.2182,-3.2182,-3.2182,0.0,-3.2182,0.0,0.0,0.0,0.0,0.0,-3.4714,0.0,0.0,0.0,0.0,0.0,0.0,0.0,0.0,0.0,0.0,0.0,0.0,0.0,-3.6769,-3.7663,0.0,-3.8748,0.0,0.0,0.0,0.0,0.0,0.0,0.0,0.0,0.0,0.0,0.0,-4.007,-4.007,-4.0612,-4.1069,-4.1477,-4.1833,-4.2472,-4.3373,-4.3382,-4.339,-4.349,-4.3698,-4.3453,-4.2769,-4.2567,-4.2141,-4.1459,-4.1343,-4.0972,-4.057,-4.1093,-4.1432,-4.1709,-4.2863,-4.371,-4.4326,-4.4358,-4.4358,-4.4281,-2.6247,-2.6134,-2.6238,-2.6791,-2.6899,-2.7079,-2.7584,-2.7755,-2.7857,0.0,0.0,0.0,0.0,0.0,0.0,0.0,0.0,-2.6135,-2.6528,0.0,-2.7185,-2.7267,-2.8018,-2.8351,0.0,-2.8283,-2.851,-2.851,-2.9106,-2.9419,-2.9419,-3.062,-3.1158,-3.122,-3.1863,-3.2182,-3.2169,-3.2182,-3.2182,-3.2182,-3.2182,-3.2182,-3.2182,0.0,-3.2182,-3.2182,-3.2182,0.0,0.0,-3.2182,-3.2182,0.0,0.0,0.0,0.0,0.0,0.0,0.0,0.0,0.0,0.0,-3.6289,0.0,0.0,0.0,0.0,-3.6492,0.0,0.0,0.0,0.0,-3.6492,-3.6492,-3.6554,-3.7563,0.0,0.0,0.0,0.0,0.0,0.0,0.0,0.0,0.0,0.0,0.0,0.0,0.0,-4.007,-4.0138,-4.0798,-4.2243,-4.1579,-4.192,-4.3384,-4.3377,-4.3396,-4.3429,-4.4187,-4.4179,-4.3453,-4.2831,-4.2141,-4.1459,-4.0836,-4.0524,-4.0524,-4.0555,-4.097,-4.1663,-4.2371,-4.3033,-4.3679,-4.4341,-4.4435,-4.4281,-2.715,-2.722,-2.7115,-2.6959,0.0,-2.7311,-2.8083,-2.8243,0.0,0.0,0.0,0.0,0.0,0.0,-2.6445,0.0,0.0,-2.6052,-2.6445,-2.694,0.0,0.0,0.0,-2.8283,0.0,0.0,0.0,-2.9118,-2.9716,-3.0165,-3.062,-3.1468,-3.1863,-3.1863,-3.2096,-3.2182,0.0,0.0,0.0,0.0,0.0,-3.2182,-3.2182,0.0,0.0,-3.2182,-3.2182,-3.2182,0.0,-3.2182,-3.2182,-3.2182,-3.2182,-3.2182,-3.2314,-3.269,-3.3367,0.0,0.0,0.0,-3.6211,-3.6429,0.0,0.0,0.0,0.0,0.0,0.0,0.0,0.0,0.0,-3.6492,-3.6631,-3.7053,-3.7739,-3.8455,0.0,0.0,0.0,0.0,0.0,0.0,0.0,0.0,0.0,0.0,0.0,0.0,0.0,-4.0172,-4.0358,-4.0832,-4.0584,-4.1194,-4.2672,-4.2175,-4.2712,-4.4209,-4.3463,-4.3507,-4.4179,-4.3031,-4.2395,-4.2141,-4.1459,-4.0904,-4.0524,-4.0524,-4.0678,-4.0955,-4.1663,-4.234,-4.3063,-4.4172,-4.4587,-4.4511,-2.771,-2.777,-2.7741,0.0,0.0,0.0,0.0,0.0,0.0,0.0,-2.7626,0.0,-2.7021,0.0,-2.6445,0.0,-2.6063,-2.5979,-2.629,-2.6693,0.0,-2.6704,-2.7603,0.0,0.0,0.0,0.0,0.0,-3.0165,-3.0846,-3.122,-3.1863,-3.2182,-3.2182,-3.2182,-3.2182,-3.2182,0.0,-3.2182,0.0,0.0,-3.2182,0.0,0.0,-3.2182,-3.2182,0.0,-3.2182,-3.2182,-3.2182,-3.2182,-3.2182,-3.2182,-3.2182,-3.23,-3.303,-3.3561,-3.4109,-3.5124,-3.5737,0.0,-3.6414,-3.6492,0.0,-3.6492,0.0,0.0,0.0,0.0,0.0,0.0,-3.6492,-3.6631,-3.6993,-3.7791,-3.8567,0.0,-4.0003,0.0,0.0,0.0,0.0,0.0,0.0,0.0,0.0,0.0,0.0,0.0,0.0,-4.0256,-4.0459,-4.0247,-4.0704,-4.1902,-4.1443,-4.1912,-4.3376,-4.2942,-4.3155,-4.3771,-4.3122,-4.2606,-4.2141,-4.1706,-4.1158,-4.0524,-4.0524,-4.0524,-4.0601,-4.1324,-4.1863,-4.2417,-4.3725,-4.4372,-4.4572,-2.7893,-2.7893,0.0,0.0,-2.8122,0.0,0.0,0.0,-2.7185,0.0,-2.7185,-2.7021,-2.6528,-2.6445,-2.629,-2.5895,-2.5895,0.0,-2.5895,-2.629,0.0,0.0,-2.6787,-2.701,-2.6599,0.0,0.0,0.0,0.0,-3.1233,-3.1233,-3.1936,-3.2182,-3.2182,-3.2182,0.0,-3.2182,-3.2182,-3.2182,-3.2182,-3.2182,-3.2182,-3.2182,-3.2182,-3.2182,-3.2182,-3.2182,-3.2182,-3.2182,-3.2182,-3.2241,-3.2241,-3.2241,-3.2241,-3.2444,-3.3101,-3.3283,-3.363,-3.4993,-3.54,-3.5608,-3.6352,-3.6492,0.0,0.0,0.0,-3.6492,0.0,0.0,0.0,0.0,0.0,-3.6492,-3.6522,-3.7576,-3.8761,-3.99,-4.0358,0.0,0.0,0.0,0.0,0.0,0.0,0.0,0.0,0.0,0.0,0.0,0.0,-4.0578,-4.112,-4.0459,-4.0442,-4.1205,-4.1167,-4.1184,-4.1273,-4.2655,-4.3021,-4.2501,-4.3155,-4.2762,-4.1528,-4.1525,-4.1107,-4.0524,-4.0524,-4.0524,-4.0601,-4.1278,-4.1571,-4.1755,-4.3079,-4.3987,-4.4572,-2.736,-2.736,-2.7534,0.0,-2.7962,-2.7893,0.0,0.0,0.0,0.0,-2.6693,-2.6528,-2.6135,-2.6052,-2.5979,-2.5895,-2.5895,0.0,0.0,0.0,0.0,-2.5906,-2.7348,-2.8051,-2.7706,-2.8991,0.0,-3.062,0.0,-3.1468,-3.1936,-3.2096,-3.2182,-3.2182,-3.2182,0.0,-3.2182,-3.2182,-3.2182,-3.2182,-3.2182,-3.2182,0.0,0.0,-3.2182,-3.2182,-3.2182,-3.2182,-3.2182,-3.2182,-3.2503,-3.296,-3.296,-3.3297,-3.3782,-3.3973,-3.438,-3.4927,-3.5335,-3.58,-3.6289,-3.6429,-3.6492,-3.6492,0.0,0.0,0.0,0.0,0.0,0.0,0.0,0.0,0.0,-3.7111,-3.818,-3.9232,-4.0003,0.0,0.0,-4.0315,0.0,0.0,0.0,0.0,0.0,0.0,0.0,0.0,0.0,0.0,0.0,-4.0544,-4.0239,-4.0442,-4.1205,-4.0645,-4.0934,-4.2038,-4.1852,-4.2269,-4.3155,-4.2808,-4.2549,-4.2209,-4.172,-4.1146,-4.0524,-4.0524,-4.0524,-4.0539,-4.0724,-4.1124,-4.1755,-4.3079,-4.3987,-4.4572,-2.7534,0.0,0.0,-2.8122,0.0,0.0,-2.7615,0.0,0.0,-2.629,-2.6207,0.0,-2.5895,-2.5895,-2.5895,-2.5895,-2.5895,0.0,-2.6456,0.0,0.0,-2.7069,-2.8028,-2.8573,-2.8469,-2.9679,0.0,-3.0921,0.0,-3.1863,-3.2182,-3.2182,-3.2182,-3.2182,-3.2182,-3.2182,0.0,-3.2182,-3.2182,-3.2182,-3.2182,0.0,0.0,-3.2503,-3.2632,-3.2704,-3.2974,-3.2903,-3.2632,-3.2632,-3.3101,-3.3699,-3.3699,-3.3973,-3.438,-3.4714,-3.5059,-3.5464,-3.58,-3.6211,-3.6492,-3.6492,-3.6492,-3.6492,-3.6492,-3.6492,-3.6492,0.0,-3.6492,-3.6492,0.0,0.0,0.0,-3.7323,-3.8179,-3.9026,0.0,0.0,0.0,0.0,0.0,0.0,0.0,0.0,0.0,0.0,0.0,0.0,0.0,0.0,0.0,-4.0324,-4.0222,-4.0375,-4.0696,-4.029,-4.0544,-4.1324,-4.1239,-4.1784,-4.2952,-4.2858,-4.2724,-4.2472,-4.2077,-4.1377,-4.0524,-4.0524,-4.0524,-4.0524,-4.0524,-4.0963,-4.1666,-4.2478,-4.3349,-4.4216,-2.78,0.0,0.0,0.0,0.0,0.0,0.0,-2.6775,0.0,-2.5979,0.0,-2.5895,-2.5895,-2.5895,-2.5979,-2.6063,0.0,-2.6456,-2.7336,-2.7336,-2.7799,-2.8627,-2.8797,-2.8942,-2.9229,-3.0203,0.0,0.0,-3.1703,-3.2182,-3.2182,-3.2182,-3.2182,-3.2182,0.0,0.0,0.0,-3.2182,-3.2182,-3.2182,-3.2182,-3.2241,-3.2372,-3.296,-3.3283,-3.3422,-3.4109,-3.3905,-3.3353,-3.3353,-3.3837,-3.4447,-3.4447,-3.4514,-3.4714,-3.5335,-3.5529,-3.5672,-3.6352,-3.6492,-3.6492,-3.6492,-3.6492,-3.6492,-3.6492,-3.6492,-3.6492,-3.6492,-3.6492,-3.6492,0.0,0.0,0.0,-3.7294,0.0,0.0,0.0,0.0,0.0,0.0,0.0,0.0,0.0,0.0,0.0,0.0,0.0,0.0,0.0,0.0,0.0,-4.0306,-4.0307,-4.0239,-4.007,0.0,-4.007,-4.0087,-4.0764,-4.1443,-4.2192,-4.2926,-4.2948,-4.2355,-4.246,-4.1752,-4.0524,-4.0524,-4.0524,-4.0524,-4.0524,-4.0909,-4.1488,-4.1534,-4.2333,-4.3457,0.0,0.0,0.0,0.0,0.0,-2.7557,-2.7855,-2.6846,-2.5979,-2.5895,-2.5895,-2.5895,-2.5895,-2.5895,-2.6229,-2.694,-2.694,0.0,0.0,0.0,0.0,-2.8706,-2.9422,-2.9973,-3.0291,-3.1246,-3.1716,0.0,-3.2096,-3.2182,-3.2182,-3.2182,-3.2182,-3.2182,0.0,0.0,-3.2182,-3.2182,0.0,-3.2182,-3.2182,-3.2503,-3.3017,-3.3157,-3.3561,-3.4095,-3.4245,-3.4245,-3.4109,-3.4109,-3.4581,-3.519,-3.519,-3.5593,-3.6148,-3.6289,-3.6289,-3.6352,-3.6492,-3.6492,-3.6492,-3.6492,-3.6492,-3.6492,-3.6492,-3.6492,-3.6492,-3.6492,-3.6492,-3.6492,-3.6492,0.0,0.0,0.0,0.0,0.0,0.0,0.0,0.0,0.0,0.0,0.0,0.0,0.0,0.0,0.0,0.0,0.0,0.0,0.0,0.0,0.0,-4.0355,0.0,0.0,0.0,-4.007,-4.007,-4.0222,-4.0662,-4.1409,-4.2135,-4.2155,-4.1631,-4.2237,-4.1763,-4.0524,-4.0524,-4.0524,-4.0524,-4.0524,-4.057,-4.0763,-4.1357,-4.1736,-4.2131,0.0,0.0,0.0,0.0,0.0,0.0,0.0,-2.7487,0.0,-2.6539,-2.6539,-2.6693,-2.7162,-2.7162,-2.7406,-2.781,-2.7799,-2.8199,-2.8991,-2.9213,-2.9524,-3.0152,-3.0709,0.0,-3.1394,-3.1863,-3.2109,-3.2182,-3.2182,-3.2182,-3.2182,-3.2182,-3.2182,-3.2182,0.0,-3.2372,0.0,0.0,0.0,-3.3241,-3.2903,-3.3171,-3.3837,-3.4177,-3.4581,-3.4912,-3.532,-3.5464,-3.54,-3.4993,-3.5335,-3.5943,-3.5943,-3.6211,-3.6492,-3.6492,-3.6492,-3.6492,-3.6492,-3.6492,-3.6492,-3.6492,-3.6492,-3.6492,-3.6492,-3.6492,-3.6492,-3.6492,-3.6492,-3.6492,-3.6492,-3.677,0.0,0.0,0.0,0.0,0.0,0.0,0.0,0.0,0.0,0.0,0.0,0.0,0.0,0.0,0.0,0.0,0.0,0.0,0.0,0.0,0.0,0.0,0.0,0.0,0.0,-4.007,-4.007,-4.0476,-4.1239,-4.1952,-4.1967,-4.1458,-4.2186,-4.1728,-4.0524,-4.0524,-4.0524,-4.0524,-4.0524,-4.0524,-4.0555,-4.0909,-4.1279,-4.1728,0.0,-3.033,0.0,0.0,-2.9225,0.0,-2.9238,-2.8279,-2.7487,-2.7499,-2.7499,-2.773,-2.8347,-2.8426,-2.8505,-2.873,-2.873,-2.9135,-3.0024,-3.0241,-3.0709,-3.1609,-3.1817,-3.1963,-3.2182,-3.2182,-3.2182,0.0,-3.2182,-3.2182,-3.2182,-3.2182,-3.2182,-3.2182,0.0,0.0,0.0,0.0,-3.3311,-3.4245,-3.3699,-3.3905,-3.4581,-3.519,-3.5529,-3.5737,-3.6289,-3.6492,-3.6429,-3.5816,-3.6006,-3.6492,-3.6492,-3.6492,-3.6492,-3.6492,-3.6492,-3.6492,-3.6492,-3.6492,-3.6492,-3.6492,-3.6492,-3.6492,-3.6492,-3.6492,-3.6492,-3.6492,-3.6492,-3.6492,-3.6492,-3.6492,0.0,0.0,0.0,0.0,0.0,0.0,0.0,0.0,0.0,0.0,0.0,0.0,0.0,0.0,0.0,-4.0421,-4.0658,-4.0585,-4.0494,0.0,0.0,-4.0358,-4.007,0.0,-4.007,-4.007,-3.9986,-4.0206,-4.0815,-4.1698,-4.1677,-4.1047,-4.2041,-4.1728,-4.0524,-4.0524,-4.0524,-4.0524,-4.0524,-4.0524,-4.0524,-4.0524,-4.0893,-4.1426,0.0,0.0,0.0,0.0,0.0,0.0,-3.0165,-2.9279,-2.8481,-2.8347,-2.8267,-2.8347,-2.8426,-2.8426,-2.8809,-2.9756,-2.9833,-3.0317,-3.136,-3.1447,-3.1596,-3.189,-3.189,-3.1963,-3.2182,-3.2182,-3.2182,0.0,-3.2182,-3.2182,-3.2182,-3.2182,-3.2182,-3.2255,0.0,0.0,0.0,-3.3837,-3.4177,-3.4312,-3.423,-3.4647,-3.532,-3.54,-3.5816,-3.6429,-3.6492,-3.6492,-3.6492,-3.6429,-3.6414,-3.6492,-3.6492,-3.6492,-3.6492,-3.6492,-3.6492,-3.6492,-3.6492,-3.6492,-3.6492,-3.6492,-3.6492,-3.6492,-3.6492,-3.6492,-3.6492,-3.6492,-3.6492,-3.6492,-3.6492,-3.6492,-3.6492,0.0,0.0,0.0,0.0,0.0,0.0,0.0,0.0,0.0,0.0,-3.9657,0.0,0.0,0.0,-4.0366,-4.0506,-4.0536,-4.048,-4.0483,0.0,-4.0239,-4.007,-4.007,-4.007,-4.007,-3.9564,-3.9345,-3.943,-4.0832,-4.0793,-3.9715,-4.1641,-4.1728,-4.0524,-4.0524,-4.0524,-4.0524,-4.0524,-4.0524,-4.0524,-4.0524,-4.0555,-4.0616,0.0,0.0,0.0,0.0,0.0,0.0,0.0,-3.0241,-2.9833,-3.0254,-2.9858,-2.9691,-3.0075,-3.0254,-3.0482,-3.096,-3.096,-3.1123,-3.1609,-3.1683,-3.1817,-3.189,-3.2036,-3.2109,-3.2182,-3.2182,-3.2182,0.0,0.0,0.0,-3.2182,-3.2632,-3.303,0.0,0.0,-3.4109,-3.4514,-3.438,-3.478,-3.5593,-3.5124,-3.54,-3.6085,-3.6085,-3.6211,-3.6492,-3.6492,-3.6492,-3.6492,-3.6492,-3.6492,-3.6492,-3.6492,-3.6492,-3.6492,-3.6492,-3.6492,-3.6492,-3.6492,-3.6492,-3.6492,-3.6492,-3.6492,-3.6492,-3.6492,-3.6492,-3.6492,-3.6492,-3.6492,-3.6492,-3.6492,-3.6492,-3.6492,-3.6492,0.0,0.0,0.0,0.0,0.0,0.0,0.0,0.0,0.0,0.0,0.0,0.0,0.0,-4.0269,-4.047,-4.0404,-4.0368,-4.0377,0.0,-4.0085,-3.9564,-3.9935,-3.9935,-3.9564,-3.9665,-3.9551,-3.9242,-4.0713,-4.107,-4.0689,-4.1534,-4.1341,-4.0524,-4.0524,-4.0524,-4.0524,-4.0524,-4.0524,-4.0524,-4.0524,-4.0524,-4.0524,-3.1609,0.0,-3.1683,0.0,-3.1123,-3.0885,-3.1596,-3.1198,-3.1088,-3.1835,-3.1448,-3.1206,-3.1373,-3.1681,-3.1862,-3.1937,-3.2097,-3.2265,-3.2252,-3.224,-3.2219,-3.2219,-3.2204,0.0,-3.2182,-3.2182,-3.2182,-3.2182,-3.2182,0.0,0.0,0.0,0.0,0.0,-3.4514,-3.4912,-3.54,-3.5059,-3.5544,-3.6429,-3.5943,-3.6022,-3.6492,-3.6492,-3.6492,-3.6492,-3.6492,-3.6492,-3.6492,-3.6492,-3.6492,-3.6492,-3.6492,-3.6492,-3.6492,-3.6492,-3.6492,-3.6492,-3.6492,-3.6492,-3.6492,-3.6492,-3.6492,-3.6492,-3.6492,-3.6492,-3.6492,-3.6492,-3.6492,-3.6492,-3.6492,-3.6492,-3.6492,-3.6492,0.0,0.0,0.0,0.0,0.0,0.0,-3.7578,-3.7966,-3.7945,0.0,0.0,0.0,0.0,0.0,-4.0137,-4.0238,-4.0203,0.0,0.0,0.0,-3.9211,-3.9621,-3.9621,-3.9211,-3.9446,-3.9342,-3.8991,-4.0007,-4.0814,-4.148,-4.1252,-4.094,-4.0524,-4.0524,-4.0524,-4.0524,-4.0524,-4.0524,-4.0524,-4.0524,-4.0524,-4.0524,-3.1609,-3.1743,-3.1817,-3.1609,-3.1609,-3.1669,-3.189,-3.189,-3.2105,-3.2683,-3.2976,-3.2685,-3.1662,-3.2115,-3.2537,-3.2764,-3.3365,-3.3702,-3.3842,-3.3376,-3.3125,0.0,0.0,-3.2182,-3.2182,-3.2182,-3.2182,-3.2182,0.0,0.0,-3.3213,0.0,-3.4312,-3.4312,-3.5059,-3.54,-3.5464,-3.6148,-3.6492,-3.6492,-3.6492,-3.6492,-3.6492,-3.6492,-3.6492,-3.6492,-3.6492,-3.6492,-3.6492,-3.6492,-3.6492,-3.6492,-3.6492,-3.6492,-3.6492,-3.6492,-3.6492,-3.6492,-3.6492,-3.6492,-3.6492,-3.6492,-3.6492,-3.6492,-3.6492,-3.6492,-3.6492,-3.6492,-3.6492,-3.6492,-3.6492,-3.6492,-3.6492,-3.6492,0.0,0.0,0.0,0.0,0.0,0.0,-3.8507,-3.8744,-3.8177,0.0,0.0,0.0,0.0,0.0,0.0,0.0,0.0,-3.9443,-3.9294,0.0,-3.9211,-3.9182,-3.9182,-3.9194,-3.8606,-3.8304,-3.832,-3.8433,-3.9642,-4.1435,-4.0826,-4.0539,-4.0524,-4.0524,-4.0524,-4.0524,-4.0524,-4.0524,-4.0524,-4.0524,-4.0524,-4.0524,-3.1434,-3.1596,-3.1757,-3.1817,-3.1817,-3.2025,-3.2651,-3.2705,-3.2922,-3.3517,-3.3598,-3.3517,-3.3176,-3.3324,-3.3522,0.0,-3.3761,-3.3869,0.0,-3.377,-3.3661,-3.3661,-3.3091,-3.2779,-3.2779,-3.2386,-3.2444,-3.2889,0.0,0.0,0.0,-3.4927,-3.5335,-3.58,-3.6022,-3.6148,-3.6148,-3.6414,-3.6492,-3.6492,-3.6492,-3.6492,-3.6492,-3.6492,-3.6492,-3.6492,-3.6492,-3.6492,-3.6492,-3.6492,-3.6492,-3.6492,-3.6492,-3.6492,-3.6492,-3.6492,-3.6492,-3.6492,-3.6492,-3.6492,-3.6492,-3.6492,-3.6492,-3.6492,-3.6492,-3.6492,-3.6492,-3.6492,-3.6492,-3.6492,-3.6492,-3.6492,-3.6492,-3.6492,-3.6492,0.0,0.0,0.0,0.0,0.0,-3.7552,-3.7834,0.0,-3.8108,0.0,0.0,0.0,0.0,0.0,0.0,0.0,0.0,-3.8985,0.0,-3.8003,-3.8787,-3.8792,-3.8003,-3.8623,-3.8974,-3.9082,-3.9152,-3.9807,-4.086,-4.1096,-4.0924,-4.0524,-4.0524,-4.0524,-4.0524,-4.0524,-4.0524,-4.0524,-4.0524,-4.0524,-4.0524,-3.1508,-3.1843,-3.2213,-3.23,-3.255,-3.282,-3.3335,-3.3403,-3.3607,-3.4204,-3.4208,-3.4289,-3.4584,-3.4611,0.0,-3.4221,-3.4489,-3.4611,-3.4611,-3.4316,-3.4208,-3.4208,-3.3991,-3.39,-3.39,-3.3807,0.0,-3.3972,-3.402,-3.4514,-3.54,-3.5672,-3.6085,-3.6492,-3.6492,-3.6492,-3.6492,-3.6492,-3.6492,-3.6492,-3.6492,-3.6492,-3.6492,-3.6492,-3.6492,-3.6492,-3.6492,-3.6661,-3.6876,-3.6876,-3.703,-3.7246,-3.7246,-3.7246,-3.7153,-3.6645,-3.6492,-3.6492,-3.6492,-3.6492,-3.6492,-3.6492,-3.6492,-3.6492,-3.6492,-3.6492,-3.6492,-3.6492,-3.6492,-3.6492,-3.6492,-3.6492,-3.6492,-3.6492,-3.6492,-3.6492,-3.6492,0.0,0.0,0.0,0.0,0.0,0.0,-3.776,-3.812,0.0,0.0,0.0,0.0,0.0,0.0,-3.7986,-3.8329,-3.8148,-3.7424,-3.8182,-3.8166,-3.741,-3.815,-3.8682,-3.9093,-3.9118,-3.9642,-4.0539,-4.094,-4.0909,-4.0524,-4.0524,-4.0524,-4.0524,-4.0524,-4.0524,-4.0524,-4.0524,-4.0524,-4.0524,-3.2011,-3.2678,-3.3132,0.0,-3.358,0.0,-3.3923,-3.3923,-3.414,-3.4814,-3.4896,-3.5113,-3.5655,-3.571,-3.5493,-3.4936,0.0,0.0,0.0,-3.5194,-3.4896,-3.4961,-3.5127,-3.5314,-3.5314,-3.6072,-3.6093,-3.5467,-3.5555,-3.5614,-3.5599,-3.6285,-3.663,-3.663,-3.663,-3.663,-3.663,-3.6584,-3.6569,-3.6553,-3.6507,-3.6522,-3.6569,-3.6569,-3.6599,-3.663,-3.663,-3.703,-3.7569,-3.7569,-3.7984,-3.8508,-3.8508,-3.8508,-3.8262,-3.6953,-3.6569,-3.6553,-3.6507,-3.6492,-3.6492,-3.6492,-3.6492,-3.6492,-3.6492,-3.6492,-3.6492,-3.6492,-3.6492,-3.6492,-3.6492,-3.6492,-3.6492,-3.6492,-3.6492,-3.6492,-3.6492,0.0,0.0,0.0,0.0,0.0,-3.7559,-3.7836,-3.7745,0.0,0.0,0.0,0.0,0.0,-3.8526,-3.7373,-3.7393,-3.7361,-3.7319,-3.7382,-3.7421,-3.7421,-3.7421,-3.7795,-3.8482,-3.858,-3.9291,-4.0524,-4.0524,-4.0524,-4.0524,-4.0524,-4.0524,-4.0524,-4.0524,-4.0524,-4.0524,-4.0524,-4.0524,-4.0524,0.0,0.0,-3.3742,-3.3742,-3.3851,-3.4032,-3.4556,-3.4624,-3.4828,-3.5425,-3.5506,-3.556,-3.5696,-3.571,-3.5655,-3.552,-3.5642,-3.571,-3.571,-3.5588,-3.5732,-3.6415,-3.6031,-3.6131,-3.6721,-3.6489,-3.6608,-3.6901,-3.747,-3.7755,-3.7755,-3.795,-3.8031,-3.8031,-3.8031,-3.8031,-3.8,-3.7477,-3.7261,-3.7215,-3.6707,-3.6799,-3.7261,-3.7261,-3.7584,-3.8031,-3.8031,-3.8138,-3.8262,-3.8262,-3.8369,-3.8508,-3.8508,-3.8508,-3.8354,-3.7507,-3.7261,-3.7153,-3.663,-3.6492,-3.6492,-3.6492,-3.6492,-3.6492,-3.6492,-3.6492,-3.6492,-3.6492,-3.6492,-3.6492,-3.6492,-3.6492,-3.6507,-3.6646,-3.66,-3.6522,-3.6646,-3.6662,0.0,0.0,-3.7002,-3.7156,-3.6911,-3.7091,-3.7387,0.0,0.0,0.0,0.0,-3.7663,-3.7482,-3.6739,-3.7147,-3.716,-3.6691,-3.7188,-3.7421,-3.7421,-3.7468,-3.7826,-3.8482,-3.9005,-3.9703,-4.0524,-4.0524,-4.0524,-4.0524,-4.0524,-4.0524,-4.0524,-4.0524,-4.0524,-4.0524,-4.0524,-4.0524,-4.0524,-3.3738,-3.4086,-3.4275,-3.4275,-3.457,-3.4855,-3.5181,-3.5235,-3.5357,-3.5683,-3.571,-3.571,-3.571,-3.6017,-3.6256,-3.6256,-3.5937,-3.5871,-3.6243,-3.6256,-3.6624,-3.7434,-3.7483,-3.7725,-3.8178,-3.8225,-3.8277,-3.8387,-3.8448,-3.8508,-3.8508,-3.8508,-3.8508,-3.8508,-3.8508,-3.8508,-3.8492,-3.8123,-3.7969,-3.7938,-3.7569,-3.7631,-3.7969,-3.7969,-3.8185,-3.8508,-3.8508,-3.8708,-3.897,-3.897,-3.917,-3.9431,-3.9431,-3.9431,-3.9293,-3.8616,-3.82,-3.7815,-3.7138,-3.6953,-3.6876,-3.6569,-3.6492,-3.6492,-3.6492,-3.6492,-3.6492,-3.6492,-3.6492,-3.6492,-3.6492,-3.6492,-3.6522,-3.6662,-3.6662,-3.6676,-3.6786,-3.6832,-3.6816,-3.677,-3.6863,-3.6909,-3.6736,-3.694,-3.7204,-3.7463,-3.7537,0.0,-3.7345,-3.7247,-3.7018,-3.6507,-3.6846,-3.6831,-3.6492,-3.6816,-3.6987,-3.6987,-3.7328,-3.7839,-3.8542,-3.9191,-3.9864,-4.0524,-4.0524,-4.0524,-4.0524,-4.0524,-4.0524,-4.0524,-4.0524,-4.0524,-4.0524,-4.0524,-4.0524,-4.0524,-3.4113,-3.4611,-3.4963,-3.4963,-3.5384,-3.571,-3.571,-3.571,-3.571,-3.5871,-3.5871,-3.5937,-3.6017,-3.6702,-3.7078,-3.7078,-3.648,-3.6308,-3.7,-3.7078,-3.7448,-3.825,-3.8928,-3.9391,-3.9463,-4.0146,-4.0247,-3.9677,-3.9093,-3.8816,-3.8816,-3.8816,-3.8816,-3.8816,-3.8816,-3.8816,-3.8816,-3.8708,-3.8662,-3.8646,-3.8554,-3.8569,-3.8662,-3.8662,-3.8723,-3.8816,-3.8816,-3.9185,-3.9677,-3.9677,-4.0047,-4.0524,-4.0524,-4.0524,-4.0416,-3.9831,-3.9262,-3.8646,-3.7861,-3.7584,-3.7338,-3.6661,-3.6492,-3.6492,-3.6492,-3.6492,-3.6492,-3.6492,-3.6492,-3.6492,-3.6492,-3.6492,-3.6522,-3.6662,-3.6689,-3.6776,-3.6956,0.0,-3.7018,-3.7018,-3.7018,-3.694,-3.677,-3.6987,-3.7095,-3.7049,-3.7259,-3.7241,-3.703,-3.6954,-3.6816,-3.6507,-3.6492,-3.6492,-3.6492,-3.6492,-3.6492,-3.6492,-3.7264,-3.7981,-3.8523,-3.9275,-3.9994,-4.0524,-4.0524,-4.0524,-4.0524,-4.0524,-4.0524,-4.0524,-4.0524,-4.0524,-4.0524,-4.0524,-4.0524,-4.0524,-3.5343,-3.552,-3.5574,-3.5574,-3.5655,-3.571,-3.571,-3.571,-3.5937,-3.6624,-3.6702,-3.7,-3.7648,-3.78,-3.7875,-3.7875,-3.78,-3.78,-3.7875,-3.7875,-3.825,-3.9088,-3.9233,-3.9621,-4.0301,-4.0455,-4.0478,-4.037,-4.0262,-4.0216,-4.0216,-4.0216,-4.0216,-4.0216,-4.0216,-4.0216,-4.017,-3.9616,-3.9354,-3.9323,-3.8739,-3.8846,-3.9354,-3.9354,-3.9724,-4.0216,-4.0216,-4.0293,-4.037,-4.037,-4.0432,-4.0524,-4.0524,-4.0524,-4.0509,-4.0401,-4.0293,-3.9939,-3.8692,-3.7938,-3.7338,-3.6661,-3.6492,-3.6492,-3.6492,-3.6492,-3.6492,-3.6492,-3.6492,-3.6492,-3.6492,-3.6492,-3.6522,-3.6662,-3.6689,-3.6786,-3.6974,0.0,-3.7006,-3.7006,-3.7006,-3.6966,-3.6925,-3.6968,-3.7053,-3.7175,-3.6966,-3.6874,-3.699,-3.6707,-3.66,-3.6662,-3.6522,-3.6492,-3.6492,-3.6492,-3.6492,-3.6507,-3.7776,-3.8378,-3.8545,-3.9741,-4.0393,-4.0524,-4.0524,-4.0524,-4.0524,-4.0524,-4.0524,-4.0524,-4.0524,-4.0524,-4.0524,-4.0524,-4.0524,-4.0524,-3.5669,-3.571,-3.571,-3.571,-3.571,-3.5871,-3.6243,-3.6322,-3.6624,-3.7434,-3.751,-3.7663,-3.8026,-3.8473,-3.8782,-3.8782,-3.916,-3.9391,-3.9391,-3.9015,-3.9088,-3.992,-3.992,-4.0146,-4.0455,-4.0524,-4.0524,-4.0524,-4.0524,-4.0524,-4.0524,-4.0524,-4.0524,-4.0524,-4.0524,-4.0524,-4.0509,-4.0201,-4.0062,-4.0031,-3.9724,-3.9785,-4.0062,-4.0062,-4.0247,-4.0524,-4.0524,-4.0524,-4.0524,-4.0524,-4.0524,-4.0524,-4.0524,-4.0524,-4.0524,-4.0524,-4.0262,-3.9847,-3.9231,-3.8292,-3.743,-3.7107,-3.6769,-3.6492,-3.6492,-3.6522,-3.6615,-3.6615,-3.6677,-3.677,-3.6631,-3.6615,-3.6646,-3.6816,-3.6862,0.0,-3.7219,-3.7263,-3.7263,-3.7263,-3.714,-3.7128,-3.7136,-3.71,-3.7125,-3.7216,-3.7147,-3.7118,-3.7103,-3.6986,-3.6816,-3.6677,-3.6646,-3.66,-3.6492,-3.6492,-3.6492,-3.6522,-3.7871,-3.8523,-3.856,-3.9886,-4.0524,-4.0524,-4.0524,-4.0524,-4.0524,-4.0524,-4.0524,-4.0524,-4.0524,-4.0524,-4.0524,-4.0524,-4.0524,-4.0524,-3.571,-3.571,-3.579,-3.5937,-3.5937,-3.6243,-3.7078,-3.7141,-3.7448,-3.825,-3.8399,-3.8473,-3.8635,-3.9233,-3.955,-3.955,-4.0146,-4.0524,-4.0524,-3.992,-3.9849,-4.0455,-4.0524,-4.0524,-4.0524,-4.0524,-4.0524,-4.0524,-4.0524,-4.0524,-4.0524,-4.0524,-4.0524,-4.0524,-4.0524,-4.0524,-4.0524,-4.0524,-4.0524,-4.0524,-4.0524,-4.0524,-4.0524,-4.0524,-4.0524,-4.0524,-4.0524,-4.0524,-4.0524,-4.0524,-4.0524,-4.0524,-4.0524,-4.0524,-4.0524,-4.0524,-4.017,-3.9724,-3.9554,-3.8646,-3.7692,-3.7525,-3.7016,-3.6492,-3.6522,-3.6631,-3.6724,-3.677,-3.6894,-3.694,-3.6785,-3.6786,-3.6816,-3.6971,0.0,-3.7124,-3.7389,-3.7464,-3.748,-3.748,-3.7385,-3.7263,-3.7263,-3.7263,-3.7263,-3.7263,-3.7401,-3.7345,-3.7244,-3.7172,-3.7018,-3.6677,-3.6662,-3.6615,-3.6492,-3.6492,-3.6584,-3.6721,-3.7958,-3.8561,-3.8806,-3.9963,-4.0524,-4.0524,-4.0524,-4.0524,-4.0524,-4.0524,-4.0524,-4.0524,-4.0524,-4.0524,-4.0524,-4.0524,-4.0524,-4.0524,-3.571,-3.571,-3.5951,-3.6702,-3.678,-3.7078,-3.7875,-3.8026,-3.8324,-3.9088,-3.9233,-3.9463,-4.0231,-4.0385,-4.0385,-4.0385,-4.0455,-4.0524,-4.0524,-4.0455,-4.0455,-4.0524,-4.0524,-4.0524,-4.0524,-4.0524,-4.0524,-4.0524,-4.0524,-4.0524,-4.0524,-4.0524,-4.0524,-4.0524,-4.0524,-4.0524,-4.0524,-4.0524,-4.0524,-4.0524,-4.0524,-4.0524,-4.0524,-4.0524,-4.0524,-4.0524,-4.0524,-4.0524,-4.0524,-4.0524,-4.0524,-4.0524,-4.0524,-4.0524,-4.0524,-4.0524,-4.0493,-4.0309,-3.9693,-3.8985,-3.8296,-3.7685,-3.7002,-3.6507,-3.6646,-3.6677,-3.6724,-3.6946,-3.7018,-3.7018,-3.7002,-3.6969,-3.6971,-3.6987,0.0,0.0,-3.7247,-3.7401,-3.748,-3.748,-3.7464,-3.7464,-3.7464,-3.7464,-3.7464,-3.7464,-3.7294,-3.7247,-3.7188,-3.7074,-3.6939,-3.6677,-3.66,-3.6492,-3.6492,-3.6492,-3.6783,-3.7441,-3.8181,-3.8831,-3.9421,-4.0155,-4.0524,-4.0524,-4.0524,-4.0524,-4.0524,-4.0524,-4.0524,-4.0524,-4.0524,-4.0524,-4.0524,-4.0524,-4.0524,-4.0524,-3.648,-3.6844,-3.7281,-3.7587,-3.7663,-3.789,-3.8708,-3.8855,-3.916,-3.992,-4.006,-4.0146,-4.0455,-4.0524,-4.0524,-4.0524,-4.0524,-4.0524,-4.0524,-4.0524,-4.0524,-4.0524,-4.0524,-4.0524,-4.0524,-4.0524,-4.0524,-4.0524,-4.0524,-4.0524,-4.0524,-4.0524,-4.0524,-4.0524,-4.0524,-4.0524,-4.0524,-4.0524,-4.0524,-4.0524,-4.0524,-4.0524,-4.0524,-4.0524,-4.0593,-4.0662,-4.0524,-4.0593,-4.0662,-4.0662,-4.0593,-4.0524,-4.0814,-4.0814,-4.0662,-4.0662,-4.0593,-4.0478,-4.0216,-3.9647,-3.8954,-3.8299,-3.7652,-3.7142,-3.6786,-3.6877,-3.7011,-3.714,-3.7231,-3.7263,-3.7125,-3.7115,-3.7105,-3.7105,0.0,-3.7247,-3.7401,-3.7449,-3.748,-3.748,-3.748,-3.748,-3.748,-3.748,-3.748,-3.748,-3.7433,-3.7401,-3.7401,-3.7191,-3.7044,-3.6909,-3.6832,-3.6677,-3.6492,-3.6934,-3.7233,-3.7505,-3.8586,-3.9266,-3.9493,-4.0201,-4.0524,-4.0524,-4.0524,-4.0524,-4.0524,-4.0524,-4.0524,-4.0524,-4.0524,-4.0524,-4.0524,-4.0524,-4.0524,-4.0524,-3.7295,-3.7738,-3.8175,-3.8399,-3.8473,-3.8782,-3.9535,-3.9692,-3.9849,-4.0455,-4.0524,-4.0524,-4.0524,-4.0524,-4.0524,-4.0524,-4.0524,-4.0524,-4.0524,-4.0524,-4.0524,-4.0524,-4.0524,-4.0524,-4.0524,-4.0524,-4.0524,-4.0524,-4.0524,-4.0524,-4.0524,-4.0524,-4.0524,-4.0524,-4.0524,-4.0524,-4.0524,-4.0524,-4.0524,-4.0524,-4.0524,-4.0524,-4.0524,-4.0593,-4.0662,-4.0799,-4.0746,-4.0814,-4.0882,-4.0882,-4.0814,-4.0746,-4.1034,-4.1034,-4.0882,-4.0882,-4.0814,-4.0677,-4.0677,-4.0337,-3.9828,-3.9067,-3.8319,-3.767,-3.7297,-3.723,-3.7231,-3.7279,-3.7417,-3.7449,-3.7294,-3.7279,-3.7279,-3.7279,-3.7279,-3.731,-3.7464,-3.748,-3.748,-3.748,-3.748,-3.748,-3.748,-3.748,-3.748,-3.748,-3.748,-3.748,-3.748,-3.7294,-3.7147,-3.7078,-3.725,-3.7173,-3.6955,-3.7436,-3.7871,-3.8364,-3.9189,-3.9726,-3.9915,-4.0309,-4.0524,-4.0524,-4.0524,-4.0524,-4.0524,-4.0524,-4.0524,-4.0524,-4.0524,-4.0524,-4.0524,-4.0524,-4.0524,-4.0524,-3.8101,-3.8086,-3.8399,-3.916,-3.932,-3.955,-4.0385,-4.0524,-4.0524,-4.0524,-4.0524,-4.0524,-4.0524,-4.0524,-4.0524,-4.0524,-4.0524,-4.0524,-4.0524,-4.0524,-4.0524,-4.0524,-4.0524,-4.0524,-4.0524,-4.0524,-4.0524,-4.0524,-4.0524,-4.0524,-4.0524,-4.0524,-4.0524,-4.0524,-4.0524,-4.0524,-4.0524,-4.0524,-4.0524,-4.0524,-4.0524,-4.0524,-4.0539,-4.073,-4.0799,-4.0799,-4.1034,-4.1117,-4.1117,-4.1117,-4.1117,-4.1117,-4.1117,-4.1117,-4.1117,-4.1117,-4.1117,-4.1117,-4.1117,-4.1117,-4.0878,-3.9993,-3.8883,-3.8044,-3.8294,-3.7757,-3.7263,-3.7464,-3.748,-3.748,-3.748,-3.748,-3.748,-3.748,-3.748,-3.748,-3.748,-3.748,-3.748,-3.748,-3.748,-3.748,-3.748,-3.748,-3.748,-3.748,-3.748,-3.748,-3.748,-3.7294,-3.7231,-3.7231,-3.773,-3.7995,-3.8007,-3.8025,-3.8692,-4.0088,-3.989,-4.0161,-4.0799,-4.0593,-4.0524,-4.0524,-4.0524,-4.0524,-4.0524,-4.0524,-4.0524,-4.0524,-4.0524,-4.0524,-4.0524,-4.0524,-4.0524,-4.0524,-3.8928,-3.9391,-3.9849,-4.0076,-4.0146,-4.0231,-4.0455,-4.0524,-4.0524,-4.0524,-4.0524,-4.0524,-4.0524,-4.0524,-4.0524,-4.0524,-4.0524,-4.0524,-4.0524,-4.0524,-4.0524,-4.0524,-4.0524,-4.0524,-4.0524,-4.0524,-4.0524,-4.0524,-4.0524,-4.0524,-4.0524,-4.0524,-4.0524,-4.0524,-4.0524,-4.0524,-4.0524,-4.0662,-4.073,-4.073,-4.0882,-4.0898,-4.0898,-4.0966,-4.1086,-4.1138,-4.1102,-4.1169,-4.1272,-4.1272,-4.1153,-4.1117,-4.1221,-4.1272,-4.1272,-4.1272,-4.1153,-4.1117,-4.1117,-4.1153,-4.1049,-4.0193,-3.9816,-3.9492,-3.9108,-3.8547,-3.813,-3.8177,-3.7821,-3.748,-3.748,-3.748,-3.748,-3.748,-3.748,-3.748,-3.748,-3.748,-3.748,-3.748,-3.748,-3.748,-3.748,-3.748,-3.748,-3.748,-3.748,-3.748,-3.748,-3.7912,-3.8098,-3.7959,-3.8667,-3.9245,-3.9596,-3.9508,-3.9695,-4.0128,-4.052,-4.0743,-4.0799,-4.073,-4.0662,-4.0524,-4.0524,-4.0524,-4.0524,-4.0524,-4.0524,-4.0524,-4.0524,-4.0524,-4.0524,-4.0524,-4.0524,-4.0524,-3.9763,-4.0146,-4.0524,-4.0524,-4.0524,-4.0524,-4.0524,-4.0524,-4.0524,-4.0524,-4.0524,-4.0524,-4.0524,-4.0524,-4.0524,-4.0524,-4.0524,-4.0524,-4.0524,-4.0524,-4.0524,-4.0524,-4.0524,-4.0524,-4.0524,-4.0524,-4.0524,-4.0524,-4.0524,-4.0524,-4.0524,-4.0524,-4.0524,-4.0593,-4.0593,-4.0662,-4.0746,-4.0882,-4.095,-4.095,-4.1034,-4.1117,-4.1117,-4.1169,-4.1205,-4.1323,-4.1288,-4.1339,-4.139,-4.139,-4.1339,-4.1288,-4.139,-4.139,-4.139,-4.139,-4.1339,-4.1288,-4.1288,-4.1339,-4.1295,-4.0836,-4.056,-4.029,-3.9897,-3.9345,-3.8916,-3.8898,-3.8535,-3.8177,-3.7943,-3.7912,-3.7805,-3.7571,-3.748,-3.748,-3.748,-3.748,-3.748,-3.748,-3.748,-3.748,-3.748,-3.748,-3.748,-3.748,-3.7757,-3.7912,-3.7912,-3.8519,-3.8842,-3.8809,-3.9563,-4.0072,-4.0423,-4.0614,-4.0679,-4.0732,-4.1037,-4.1086,-4.095,-4.0867,-4.0662,-4.0524,-4.0524,-4.0524,-4.0524,-4.0524,-4.0524,-4.0524,-4.0524,-4.0524,-4.0524,-4.0524,-4.0524,-4.0524,-4.0524,-4.0524,-4.0524,-4.0524,-4.0524,-4.0524,-4.0524,-4.0524,-4.0524,-4.0524,-4.0524,-4.0524,-4.0524,-4.0524,-4.0524,-4.0524,-4.0524,-4.0524,-4.0524,-4.0524,-4.0524,-4.0524,-4.0524,-4.0524,-4.0524,-4.0524,-4.0524,-4.0524,-4.0524,-4.0524,-4.0524,-4.0524,-4.0662,-4.0799,-4.0799,-4.095,-4.1117,-4.1102,-4.1102,-4.1102,-4.1117,-4.1169,-4.1169,-4.1272,-4.1323,-4.1323,-4.1522,-4.1588,-4.1588,-4.1588,-4.1588,-4.1588,-4.1588,-4.1588,-4.1588,-4.1588,-4.1588,-4.1588,-4.1588,-4.1588,-4.1588,-4.1588,-4.1157,-4.0661,-4.0661,-4.0103,-3.9591,-3.9601,-3.9558,-3.9278,-3.8699,-3.8615,-3.8364,-3.7789,-3.765,-3.765,-3.765,-3.765,-3.765,-3.765,-3.765,-3.765,-3.765,-3.765,-3.765,-3.765,-3.8269,-3.8599,-3.8619,-3.923,-3.9624,-3.9613,-4.0294,-4.0661,-4.0661,-4.1317,-4.1588,-4.1588,-4.139,-4.1272,-4.1117,-4.0882,-4.073,-4.0524,-4.0524,-4.0524,-4.0524,-4.0524,-4.0524,-4.0524,-4.0524,-4.0524,-4.0524,-4.0524,-4.0524,-4.0524,-4.0524,-4.0524,-4.0524,-4.0524,-4.0524,-4.0524,-4.0524,-4.0524,-4.0524,-4.0524,-4.0524,-4.0524,-4.0524,-4.0524,-4.0524,-4.0524,-4.0524,-4.0524,-4.0524,-4.0524,-4.0524,-4.0524,-4.0524,-4.0524,-4.0524,-4.0524,-4.0524,-4.0524,-4.0524,-4.0593,-4.073,-4.073,-4.0814,-4.1034,-4.1034,-4.1034,-4.1117,-4.1221,-4.1272,-4.1272,-4.1406,-4.1472,-4.1472,-4.1522,-4.1522,-4.1522,-4.1588,-4.1588,-4.1588,-4.1588,-4.1588,-4.1588,-4.1588,-4.1588,-4.1588,-4.1588,-4.1588,-4.1588,-4.1588,-4.1588,-4.1588,-4.1588,-4.1509,-4.138,-4.138,-4.0836,-4.0329,-4.0385,-3.991,-3.9435,-3.9341,-3.9279,-3.9237,-3.9065,-3.9049,-3.9049,-3.9049,-3.9049,-3.9049,-3.9049,-3.9049,-3.9049,-3.9049,-3.9049,-3.9049,-3.9049,-3.9205,-3.9288,-3.9279,-3.9957,-4.0368,-4.0391,-4.1012,-4.138,-4.138,-4.1541,-4.1588,-4.1588,-4.1588,-4.1406,-4.1117,-4.1034,-4.0814,-4.0524,-4.0524,-4.0524,-4.0524,-4.0524,-4.0524,-4.0524,-4.0524,-4.0524,-4.0524,-4.0524,-4.0524,-4.0524,-4.0524,-4.0524,-4.0524,-4.0524,-4.0524,-4.0524,-4.0524,-4.0524,-4.0524,-4.0524,-4.0524,-4.0524,-4.0524,-4.0524,-4.0524,-4.0524,-4.0524,-4.0524,-4.0662,-4.0524,-4.0524,-4.0662,-4.0524,-4.0524,-4.0524,-4.0593,-4.0662,-4.0662,-4.0662,-4.0746,-4.095,-4.095,-4.1018,-4.1221,-4.1221,-4.1221,-4.1355,-4.139,-4.1456,-4.1456,-4.1588,-4.1588,-4.1588,-4.1588,-4.1588,-4.1588,-4.1588,-4.1588,-4.1588,-4.1588,-4.1588,-4.1588,-4.1588,-4.1588,-4.1588,-4.1588,-4.1588,-4.1588,-4.1588,-4.1588,-4.1588,-4.1588,-4.1588,-4.1588,-4.1588,-4.1349,-4.106,-4.106,-4.0789,-4.0423,-4.0072,-4.0023,-3.9928,-3.9565,-3.9534,-3.9534,-3.9534,-3.9534,-3.9534,-3.9534,-3.9534,-3.9534,-3.9534,-3.9534,-3.9534,-3.9534,-3.9802,-4.0024,-4.001,-4.0661,-4.106,-4.106,-4.1733,-4.1926,-4.1588,-4.1926,-4.1926,-4.1588,-4.1588,-4.1472,-4.1221,-4.1102,-4.0966,-4.0746,-4.0662,-4.0662,-4.083,-4.083,-4.0746,-4.0662,-4.0662,-4.0593,-4.0524,-4.0524,-4.0524,-4.0524,-4.0524,-4.0524,-4.0524,-4.0524,-4.0524,-4.0524,-4.0524,-4.0524,-4.0524,-4.0524,-4.0524,-4.0524,-4.0524,-4.0524,-4.0524,-4.0524,-4.0524,-4.0662,-4.0814,-4.0662,-4.0662,-4.0867,-4.0662,-4.0608,-4.0608,-4.0746,-4.0799,-4.0799,-4.0799,-4.095,-4.1102,-4.1102,-4.1221,-4.1323,-4.1323,-4.1456,-4.1588,-4.1588,-4.1588,-4.1588,-4.1588,-4.1588,-4.1588,-4.1588,-4.1588,-4.1588,-4.1588,-4.1588,-4.1588,-4.1588,-4.1588,-4.1588,-4.1588,-4.1588,-4.1588,-4.1588,-4.1588,-4.1588,-4.1588,-4.1588,-4.1588,-4.1588,-4.1588,-4.1588,-4.1588,-4.1588,-4.1588,-4.1588,-4.1588,-4.1412,-4.0852,-4.0789,-4.0598,-3.9944,-3.9866,-3.9866,-3.9866,-3.9866,-3.9866,-3.9866,-3.9866,-3.9866,-3.9866,-3.9866,-3.9866,-3.9866,-4.0438,-4.0821,-4.0965,-4.1365,-4.162,-4.1765,-4.2182,-4.2123,-4.1629,-4.2123,-4.215,-4.1588,-4.1588,-4.1522,-4.1323,-4.1153,-4.1102,-4.1117,-4.095,-4.095,-4.1117,-4.1117,-4.1034,-4.0867,-4.0799,-4.073,-4.0524,-4.0524,-4.0524,-4.0524,-4.0524,-4.0524,-4.0524,-4.0524,-4.0524,-4.0524,-4.0524,-4.0524,-4.0524,-4.0524,-4.0524,-4.0524,-4.0524,-4.0524,-4.0593,-4.073,-4.073,-4.0867,-4.1034,-4.0882,-4.0882,-4.1034,-4.0882,-4.0814,-4.1049,-4.1049,-4.095,-4.0799,-4.095,-4.1153,-4.1256,-4.1256,-4.139,-4.1588,-4.1588,-4.1588,-4.1588,-4.1588,-4.1588,-4.1588,-4.1588,-4.1588,-4.1588,-4.1588,-4.1588,-4.1588,-4.1588,-4.1588,-4.1588,-4.1588,-4.1588,-4.1588,-4.1588,-4.1588,-4.1588,-4.1588,-4.1588,-4.1588,-4.1588,-4.1588,-4.1588,-4.1588,-4.1588,-4.1588,-4.1588,-4.1588,-4.1588,-4.1588,-4.1588,-4.1573,-4.1509,-4.1428,-4.1412,-4.1349,-4.1333,-4.1333,-4.1333,-4.1333,-4.1333,-4.1333,-4.1333,-4.1333,-4.1333,-4.1333,-4.1333,-4.1333,-4.1396,-4.1733,-4.2312,-4.1894,-4.1894,-4.2473,-4.1973,-4.1687,-4.1619,-4.1655,-4.1718,-4.1588,-4.1588,-4.1522,-4.1323,-4.1256,-4.1221,-4.1117,-4.1034,-4.1034,-4.1117,-4.1117,-4.1117,-4.1034,-4.0882,-4.0799,-4.073,-4.0593,-4.0524,-4.0524,-4.0524,-4.0593,-4.0662,-4.0662,-4.0746,-4.083,-4.083,-4.0746,-4.0662,-4.0662,-4.0662,-4.0662,-4.0662,-4.0746,-4.0882,-4.095,-4.095,-4.1018,-4.1205,-4.1086,-4.1018,-4.1205,-4.1049,-4.0997,-4.1117,-4.1169,-4.1153,-4.1055,-4.1138,-4.1272,-4.1456,-4.1456,-4.1522,-4.1588,-4.1588,-4.1588,-4.1588,-4.1588,-4.1588,-4.1588,-4.1588,-4.1588,-4.1588,-4.1588,-4.1588,-4.1588,-4.1588,-4.1588,-4.1588,-4.1588,-4.1588,-4.1588,-4.1588,-4.1588,-4.1588,-4.1588,-4.1588,-4.1588,-4.1588,-4.1588,-4.1588,-4.1588,-4.1588,-4.1588,-4.1588,-4.1588,-4.1588,-4.1588,-4.1588,-4.1588,-4.1588,-4.1588,-4.1588,-4.1588,-4.1588,-4.1588,-4.1588,-4.1588,-4.1588,-4.1588,-4.1588,-4.1588,-4.1588,-4.1588,-4.1588,-4.1588,-4.1588,-4.1733,-4.2005,-4.2154,-4.2293,-4.2602,-4.2666,-4.2494,-4.2185,-4.2478,-4.2312,-4.1588,-4.1973,-4.1892,-4.1456,-4.1323,-4.1323,-4.1339,-4.1272,-4.1288,-4.1339,-4.1339,-4.1272,-4.1221,-4.1018,-4.0814,-4.0593,-4.0524,-4.0524,-4.0524]},{"header":{"parameterUnit":"m.s-1","parameterCategory":1,"la1":30.6,"la2":28.766,"lo1":-90.7593,"lo2":-88.6598,"dy":0.0162,"dx":0.0183,"nx":116,"ny":114,"refTime":"2024-05-06T00:00:00:Z","depth":0,"parameterNumber":3,"parameterNumberName":"V-component_of_WINDS"},"data":[0.0,0.0,0.0,0.0,0.0,0.0,0.0,0.0,0.0,0.0,0.0,0.0,0.0,0.0,0.0,0.0,0.0,0.0,0.0,0.0,0.0,0.0,0.0,0.0,0.0,0.0,0.0,0.0,0.0,0.0,0.0,0.0,0.0,0.0,0.0,0.0,0.0,0.0,0.0,0.0,0.0,0.0,0.0,0.0,0.0,0.0,0.0,0.0,0.0,0.0,0.0,0.0,0.0,0.0,0.0,0.0,0.0,0.0,0.0,0.0,0.0,0.0,0.0,0.0,0.0,0.0,0.0,0.0,0.0,0.0,0.0,0.0,0.0,0.0,0.0,0.0,0.0,0.0,0.0,0.0,0.0,0.0,0.0,0.0,0.0,0.0,0.0,0.0,0.0,0.0,0.0,0.0,0.0,0.0,0.0,0.0,0.0,0.0,0.0,0.0,0.0,0.0,0.0,0.0,0.0,0.0,0.0,0.0,0.0,0.0,0.0,0.0,0.0,0.0,0.0,0.0,0.0,0.0,0.0,0.0,0.0,0.0,0.0,0.0,0.0,0.0,0.0,0.0,0.0,0.0,0.0,0.0,0.0,0.0,0.0,0.0,0.0,0.0,0.0,0.0,0.0,0.0,0.0,0.0,0.0,0.0,0.0,0.0,0.0,0.0,0.0,0.0,0.0,0.0,0.0,0.0,0.0,0.0,0.0,0.0,0.0,0.0,0.0,0.0,0.0,0.0,0.0,0.0,0.0,0.0,0.0,0.0,0.0,0.0,0.0,0.0,0.0,0.0,0.0,0.0,0.0,0.0,0.0,0.0,0.0,0.0,0.0,0.0,0.0,0.0,0.0,0.0,0.0,0.0,0.0,0.0,0.0,0.0,0.0,0.0,0.0,0.0,0.0,0.0,0.0,0.0,0.0,0.0,0.0,0.0,0.0,0.0,0.0,0.0,0.0,0.0,0.0,0.0,0.0,0.0,0.0,0.0,0.0,0.0,0.0,0.0,0.0,0.0,0.0,0.0,0.0,0.0,0.0,0.0,0.0,0.0,0.0,0.0,0.0,0.0,0.0,0.0,0.0,0.0,0.0,0.0,0.0,0.0,0.0,0.0,0.0,0.0,0.0,0.0,0.0,0.0,0.0,0.0,0.0,0.0,0.0,0.0,0.0,0.0,0.0,0.0,0.0,0.0,0.0,0.0,0.0,0.0,0.0,0.0,0.0,0.0,0.0,0.0,0.0,0.0,0.0,0.0,0.0,0.0,0.0,0.0,0.0,0.0,0.0,0.0,0.0,0.0,0.0,0.0,0.0,0.0,0.0,0.0,0.0,0.0,0.0,0.0,0.0,0.0,0.0,0.0,0.0,0.0,0.0,0.0,0.0,0.0,0.0,0.0,0.0,0.0,0.0,0.0,0.0,0.0,0.0,0.0,0.0,0.0,0.0,0.0,0.0,0.0,0.0,0.0,0.0,0.0,0.0,0.0,0.0,0.0,0.0,0.0,0.0,0.0,0.0,0.0,0.0,0.0,0.0,0.0,0.0,0.0,0.0,0.0,0.0,0.0,0.0,0.0,0.0,0.0,0.0,0.0,0.0,0.0,0.0,0.0,0.0,0.0,0.0,0.0,0.0,0.0,0.0,0.0,0.0,0.0,0.0,0.0,0.0,0.0,0.0,0.0,0.0,0.0,0.0,0.0,0.0,0.0,0.0,0.0,0.0,0.0,0.0,0.0,0.0,0.0,0.0,0.0,0.0,0.0,0.0,0.0,0.0,0.0,0.0,0.0,0.0,0.0,0.0,0.0,0.0,0.0,0.0,0.0,0.0,0.0,0.0,0.0,0.0,0.0,0.0,0.0,0.0,0.0,0.0,0.0,0.0,0.0,0.0,0.0,0.0,0.0,0.0,0.0,0.0,0.0,0.0,0.0,0.0,0.0,0.0,0.0,0.0,0.0,0.0,0.0,0.0,0.0,0.0,0.0,0.0,0.0,0.0,0.0,0.0,0.0,0.0,0.0,0.0,0.0,0.0,0.0,0.0,0.0,0.0,0.0,0.0,0.0,0.0,0.0,0.0,0.0,0.0,0.0,0.0,0.0,0.0,0.0,0.0,0.0,0.0,0.0,0.0,0.0,0.0,0.0,0.0,0.0,0.0,0.0,0.0,0.0,0.0,0.0,0.0,0.0,0.0,0.0,0.0,0.0,0.0,0.0,0.0,0.0,0.0,0.0,0.0,0.0,0.0,0.0,0.0,0.0,0.0,0.0,0.0,0.0,0.0,0.0,0.0,0.0,0.0,0.0,0.0,0.0,0.0,0.0,0.0,0.0,0.0,0.0,0.0,0.0,0.0,0.0,0.0,0.0,0.0,0.0,0.0,0.0,0.0,0.0,0.0,0.0,0.0,0.0,0.0,0.0,0.0,0.0,0.0,0.0,0.0,0.0,0.0,0.0,0.0,0.0,0.0,0.0,0.0,0.0,0.0,0.0,0.0,0.0,0.0,0.0,0.0,0.0,0.0,0.0,0.0,0.0,0.0,0.0,0.0,0.0,0.0,0.0,0.0,0.0,0.0,0.0,0.0,0.0,0.0,0.0,0.0,0.0,0.0,0.0,0.0,0.0,0.0,0.0,0.0,0.0,0.0,0.0,0.0,0.0,0.0,0.0,0.0,0.0,0.0,0.0,0.0,0.0,0.0,0.0,0.0,0.0,0.0,0.0,0.0,0.0,0.0,0.0,0.0,0.0,0.0,0.0,0.0,0.0,0.0,0.0,0.0,0.0,0.0,0.0,0.0,0.0,0.0,0.0,0.0,0.0,0.0,0.0,0.0,0.0,0.0,0.0,0.0,0.0,0.0,0.0,0.0,0.0,0.0,0.0,0.0,0.0,0.0,0.0,0.0,0.0,0.0,0.0,0.0,0.0,0.0,0.0,0.0,0.0,0.0,0.0,0.0,0.0,0.0,0.0,0.0,0.0,0.0,0.0,0.0,0.0,0.0,0.0,0.0,0.0,0.0,0.0,0.0,0.0,0.0,0.0,0.0,0.0,0.0,0.0,0.0,0.0,0.0,0.0,0.0,0.0,0.0,0.0,0.0,0.0,0.0,0.0,0.0,0.0,0.0,0.0,0.0,0.0,0.0,0.0,0.0,0.0,0.0,0.0,0.0,0.0,0.0,0.0,0.0,0.0,0.0,0.0,0.0,0.0,0.0,0.0,0.0,0.0,0.0,0.0,0.0,0.0,0.0,0.0,0.0,0.0,0.0,0.0,0.0,0.0,0.0,0.0,0.0,0.0,0.0,0.0,0.0,0.0,0.0,0.0,0.0,0.0,0.0,0.0,0.0,0.0,0.0,0.0,0.0,0.0,0.0,0.0,0.0,0.0,0.0,0.0,0.0,0.0,0.0,0.0,0.0,0.0,0.0,0.0,0.0,0.0,0.0,0.0,0.0,0.0,0.0,0.0,0.0,0.0,0.0,0.0,0.0,0.0,0.0,0.0,0.0,0.0,0.0,0.0,0.0,0.0,0.0,0.0,0.0,0.0,0.0,0.0,0.0,0.0,0.0,0.0,0.0,0.0,0.0,0.0,0.0,0.0,0.0,0.0,0.0,0.0,0.0,0.0,0.0,0.0,0.0,0.0,0.0,0.0,0.0,0.0,0.0,0.0,0.0,0.0,0.0,0.0,0.0,0.0,0.0,0.0,0.0,0.0,0.0,0.0,0.0,0.0,0.0,0.0,0.0,0.0,0.0,0.0,0.0,0.0,0.0,0.0,0.0,0.0,0.0,0.0,0.0,0.0,0.0,0.0,0.0,0.0,0.0,0.0,0.0,0.0,0.0,0.0,0.0,0.0,0.0,0.0,0.0,0.0,0.0,0.0,0.0,0.0,0.0,0.0,0.0,0.0,0.0,0.0,0.0,0.0,0.0,0.0,0.0,0.0,0.0,0.0,0.0,0.0,0.0,0.0,0.0,0.0,0.0,0.0,0.0,0.0,0.0,0.0,0.0,0.0,0.0,0.0,0.0,0.0,0.0,0.0,0.0,0.0,0.0,0.0,0.0,0.0,0.0,0.0,0.0,0.0,0.0,0.0,0.0,0.0,0.0,0.0,0.0,0.0,0.0,0.0,0.0,0.0,0.0,0.0,0.0,0.0,0.0,0.0,0.0,0.0,0.0,0.0,0.0,0.0,0.0,0.0,0.0,0.0,0.0,0.0,0.0,0.0,0.0,0.0,0.0,0.0,0.0,0.0,0.0,0.0,0.0,0.0,0.0,0.0,0.0,0.0,0.0,0.0,0.0,0.0,0.0,0.0,0.0,0.0,0.0,0.0,0.0,0.0,0.0,0.0,0.0,0.0,0.0,0.0,0.0,0.0,0.0,0.0,0.0,0.0,0.0,0.0,0.0,0.0,0.0,0.0,0.0,0.0,0.0,0.0,0.0,0.0,0.0,0.0,0.0,0.0,0.0,0.0,0.0,0.0,0.0,0.0,0.0,0.0,0.0,0.0,0.0,0.0,0.0,0.0,0.0,0.0,0.0,0.0,0.0,0.0,0.0,0.0,0.0,0.0,0.0,0.0,0.0,0.0,0.0,0.0,0.0,0.0,0.0,0.0,0.0,0.0,0.0,0.0,0.0,0.0,0.0,0.0,0.0,0.0,0.0,0.0,0.0,0.0,0.0,0.0,0.0,0.0,0.0,0.0,0.0,0.0,0.0,0.0,0.0,0.0,0.0,0.0,0.0,0.0,0.0,0.0,0.0,0.0,0.0,0.0,0.0,0.0,0.0,0.0,0.0,0.0,0.0,0.0,0.0,0.0,0.0,0.0,0.0,0.0,0.0,0.0,0.0,0.0,0.0,0.0,0.0,0.0,0.0,0.0,0.0,0.0,0.0,0.0,0.0,0.0,0.0,0.0,0.0,0.0,0.0,0.0,0.0,0.0,0.0,0.0,0.0,0.0,0.0,0.0,0.0,0.0,0.0,0.0,0.0,0.0,0.0,0.0,0.0,0.0,0.0,0.0,0.0,0.0,0.0,0.0,0.0,0.0,0.0,0.0,0.0,0.0,0.0,0.0,0.0,0.0,0.0,0.0,0.0,0.0,0.0,0.0,0.0,0.0,0.0,0.0,0.0,0.0,0.0,0.0,0.0,0.0,0.0,0.0,0.0,0.0,0.0,0.0,0.0,0.0,0.0,0.0,0.0,0.0,0.0,0.0,0.0,0.0,0.0,0.0,0.0,0.0,0.0,0.0,0.0,0.0,0.0,0.0,0.0,0.0,0.0,0.0,0.0,0.0,0.0,0.0,0.0,0.0,0.0,0.0,0.0,0.0,0.0,0.0,0.0,0.0,0.0,0.0,0.0,0.0,0.0,0.0,0.0,0.0,0.0,0.0,0.0,0.0,0.0,0.0,0.0,0.0,0.0,0.0,0.0,0.0,0.0,0.0,0.0,0.0,0.0,0.0,0.0,0.0,0.0,0.0,0.0,0.0,0.0,0.0,0.0,0.0,0.0,0.0,0.0,0.0,0.0,0.0,0.0,0.0,0.0,0.0,0.0,0.0,0.0,0.0,0.0,0.0,0.0,0.0,0.0,0.0,0.0,0.0,0.0,0.0,0.0,0.0,0.0,0.0,0.0,0.0,0.0,0.0,0.0,0.0,0.0,0.0,0.0,0.0,0.0,0.0,0.0,0.0,0.0,0.0,0.0,0.0,0.0,0.0,0.0,0.0,0.0,0.0,0.0,0.0,0.0,0.0,0.0,0.0,0.0,0.0,0.0,0.0,0.0,0.0,0.0,0.0,0.0,0.0,0.0,0.0,0.0,0.0,0.0,0.0,0.0,0.0,0.0,0.0,0.0,0.0,0.0,0.0,0.0,0.0,0.0,0.0,0.0,0.0,0.0,0.0,0.0,0.0,0.0,0.0,0.0,0.0,0.0,0.0,0.0,0.0,0.0,0.0,0.0,0.0,0.0,0.0,0.0,0.0,0.0,0.0,0.0,0.0,0.0,0.0,0.0,0.0,0.0,0.0,0.0,0.0,0.0,0.0,0.0,0.0,0.0,0.0,0.0,0.0,0.0,0.0,0.0,0.0,0.0,0.0,0.0,0.0,0.0,0.0,-4.9046,0.0,0.0,0.0,0.0,0.0,0.0,0.0,0.0,0.0,0.0,0.0,0.0,0.0,0.0,0.0,0.0,0.0,0.0,0.0,0.0,0.0,0.0,0.0,0.0,1.2078,1.237,1.237,1.2667,1.2861,1.3152,0.0,0.0,0.0,0.0,0.0,0.2003,-0.7795,-1.0181,-0.4739,-0.9385,-1.1232,-1.0525,-1.6077,-2.4337,-3.4465,0.0,0.0,0.0,0.0,0.0,0.0,0.0,0.0,0.0,0.0,0.0,0.0,0.0,0.0,0.0,0.0,0.0,0.0,0.0,0.0,0.0,0.0,0.0,0.0,0.0,0.0,0.0,0.0,0.0,0.0,0.0,0.0,0.0,0.0,0.0,0.0,0.0,0.0,0.0,0.0,0.0,0.0,0.0,0.0,0.0,0.0,0.0,0.0,0.0,0.0,0.0,0.0,0.0,0.0,0.0,0.0,0.0,0.0,0.0,0.0,0.0,0.0,0.0,0.0,0.0,0.0,0.0,0.0,0.0,0.0,0.0,-4.9052,0.0,0.0,0.0,0.0,0.0,0.0,0.0,0.0,0.0,0.0,0.0,0.0,0.0,0.0,0.0,0.0,0.0,0.0,0.0,0.0,0.0,1.1194,1.1096,1.1683,1.2175,1.217,1.2759,1.3244,1.3426,1.3811,1.4286,1.4943,0.7741,0.4263,0.5568,-0.2151,-0.1641,0.7851,0.0206,-0.2967,-0.1817,0.7094,0.0758,-1.8176,-2.0867,0.0,0.0,0.0,0.0,0.0,0.0,0.0,0.0,0.0,0.0,0.0,0.0,0.0,0.0,0.0,0.0,0.0,0.0,0.0,0.0,0.0,0.0,0.0,0.0,0.0,0.0,0.0,0.0,0.0,0.0,0.0,0.0,0.0,0.0,0.0,0.0,0.0,0.0,0.0,0.0,0.0,0.0,0.0,0.0,0.0,0.0,0.0,0.0,0.0,0.0,0.0,0.0,0.0,0.0,0.0,0.0,0.0,0.0,0.0,0.0,0.0,0.0,0.0,-4.4333,-4.3931,-4.4439,-4.5177,-4.5653,-4.6011,-4.7927,-4.812,-4.7168,0.0,0.0,0.0,0.0,0.0,0.0,0.0,0.0,0.0,0.0,0.0,0.0,0.0,0.0,0.0,0.0,0.0,0.0,0.0,0.0,1.0998,1.0609,1.178,1.2651,1.2931,1.3908,1.4867,1.569,1.5961,1.6598,1.7802,1.7108,1.6982,1.7637,1.729,1.8074,1.9918,2.0536,2.1074,2.1402,2.4111,1.95,0.8348,-0.3872,-1.0109,-1.2146,0.0,0.0,0.0,0.0,0.0,0.0,0.0,0.0,0.0,0.0,0.0,0.0,0.0,0.0,0.0,0.0,0.0,0.0,0.0,0.0,0.0,0.0,0.0,0.0,0.0,0.0,0.0,0.0,0.0,0.0,0.0,0.0,0.0,0.0,0.0,0.0,0.0,0.0,0.0,0.0,0.0,-4.7965,-4.8867,0.0,0.0,0.0,0.0,0.0,0.0,0.0,0.0,0.0,0.0,0.0,0.0,0.0,-4.5119,-4.4568,-4.6064,-4.5803,-4.386,-4.4193,-4.4273,-4.4168,-4.4474,-4.5296,-4.6473,-4.7368,0.0,-4.6178,-4.6484,0.0,0.0,0.0,0.0,0.0,0.0,0.0,0.0,0.0,0.0,0.0,0.0,0.0,0.0,0.0,0.0,0.0,0.0,0.0,0.0,0.0,1.2549,1.3323,1.3125,1.419,1.533,1.6331,1.6929,1.7911,1.929,2.041,2.1316,2.2193,2.3699,2.4708,2.5258,2.7463,2.8737,2.934,3.0338,2.8659,2.459,1.8592,0.872,-0.3819,-0.9814,0.0,0.0,0.0,0.0,0.0,0.0,0.0,0.0,0.0,0.0,0.0,0.0,0.0,0.0,0.0,0.0,0.0,0.0,0.0,0.0,0.0,0.0,0.0,0.0,0.0,0.0,0.0,0.0,0.0,0.0,0.0,0.0,0.0,0.0,0.0,0.0,0.0,0.0,0.0,-4.9032,-4.9235,-5.0113,-5.024,-5.0457,0.0,0.0,0.0,0.0,0.0,0.0,0.0,0.0,0.0,-4.7274,-4.6634,-4.5937,-4.5077,-4.41,-4.4491,-4.6197,-4.6481,-4.6635,-4.6615,-4.6672,-4.7059,-4.7774,-4.8255,-4.8208,-4.7903,-4.8528,-4.9163,-4.9817,0.0,0.0,0.0,0.0,-5.3371,-5.3737,0.0,0.0,0.0,0.0,0.0,0.0,0.0,0.0,0.0,0.0,0.0,0.0,1.1864,1.3126,1.3726,1.3498,1.4842,1.6088,1.7252,1.8378,1.9766,2.1526,2.2945,2.4095,2.4826,2.6508,2.7621,2.8201,3.0645,3.2136,3.2794,3.3694,3.4295,3.4545,3.4713,2.4831,0.7838,0.3666,-0.3182,-1.1907,0.0,0.0,0.0,0.0,0.0,0.0,0.0,0.0,0.0,0.0,0.0,0.0,0.0,0.0,0.0,0.0,0.0,0.0,0.0,0.0,0.0,0.0,0.0,0.0,0.0,0.0,0.0,0.0,0.0,0.0,0.0,0.0,0.0,0.0,0.0,0.0,0.0,-5.0013,-5.0156,-5.0835,-5.0764,-5.0771,0.0,0.0,0.0,0.0,0.0,0.0,-4.9291,-4.8531,-4.7032,-4.4691,-4.6097,-4.6494,-4.5657,-4.3368,-4.4306,-4.8465,-4.8852,-4.8895,-4.8728,-4.8605,-4.8861,-4.9309,-4.9669,-4.9922,-5.0071,-5.0431,-5.0513,-5.0511,-5.1203,-5.21,-5.303,-5.3376,-5.3901,-5.4373,0.0,0.0,0.0,0.0,0.0,0.0,0.0,0.0,0.0,0.0,0.0,1.187,1.1881,1.2974,1.3896,1.444,1.6134,1.7819,1.9588,2.1185,2.3122,2.5485,2.6736,2.7293,2.7102,2.8492,2.9324,2.9589,3.2919,3.4495,3.4592,3.6711,3.7842,3.7965,3.7697,3.534,3.0801,1.964,1.4401,1.1603,-1.1208,0.0,0.0,0.0,0.0,0.0,0.0,0.0,0.0,0.0,0.0,0.0,0.0,0.0,0.0,0.0,0.0,0.0,0.0,0.0,0.0,0.0,0.0,0.0,0.0,0.0,0.0,0.0,0.0,0.0,0.0,0.0,0.0,0.0,0.0,0.0,0.0,0.0,0.0,-5.0666,-5.0329,0.0,0.0,0.0,0.0,-4.9923,-4.8534,-4.7819,-4.7979,-4.8714,-4.774,-4.471,-4.4687,-4.456,-4.4125,-4.394,-4.5568,-4.8879,-5.0305,-5.0312,-4.908,-4.9062,-4.9746,-5.0913,-5.1563,-5.1981,-5.204,-5.0559,-5.0607,-5.1717,-5.2709,-5.3821,-5.4967,-5.5874,-5.6239,-5.6269,0.0,0.0,0.0,0.0,0.0,1.1624,1.1271,1.1282,1.1625,1.2227,1.2523,1.2849,1.329,1.4821,1.5842,1.5859,1.7715,1.9627,2.1236,2.3365,2.5613,2.8083,3.0083,3.1517,3.2358,3.0025,3.0322,3.3454,3.5888,3.7633,3.8695,3.9935,4.0528,4.0543,4.0311,3.9506,3.7967,3.2057,2.5271,1.7744,0.826,-0.5161,0.0,0.0,0.0,0.0,0.0,0.0,0.0,0.0,0.0,0.0,0.0,0.0,0.0,0.0,0.0,0.0,0.0,0.0,0.0,0.0,0.0,0.0,0.0,0.0,0.0,0.0,0.0,0.0,0.0,0.0,0.0,0.0,0.0,0.0,0.0,0.0,0.0,-5.0474,-5.0507,0.0,-5.0235,-4.8973,-4.787,-4.7236,-4.6299,-4.5863,-4.6072,-4.582,-4.6194,-4.7332,-4.5533,-4.436,-4.3989,-4.6078,-4.8781,-5.2068,-5.3031,-5.2344,-5.0289,-5.1337,-5.1798,-5.1803,-5.2308,-5.2565,-5.2596,-5.233,-5.2329,-5.2527,-5.3089,-5.363,-5.4161,-5.458,-5.4726,-5.475,0.0,0.0,0.0,1.2443,1.2186,1.2015,1.1671,1.1671,1.2072,1.2847,1.3306,1.3896,1.469,1.6174,1.7157,1.7329,1.919,2.1087,2.2808,2.5305,2.7846,3.0532,3.3118,3.4756,3.546,3.3272,3.3663,3.6763,3.8758,4.0256,4.1387,4.1964,4.2483,4.2961,4.2657,4.2392,4.2123,4.022,3.4708,2.6842,2.2072,1.0239,-0.5716,0.0,0.0,0.0,0.0,0.0,0.0,0.0,0.0,0.0,0.0,0.0,0.0,0.0,0.0,0.0,0.0,0.0,0.0,0.0,0.0,0.0,0.0,0.0,0.0,0.0,0.0,0.0,0.0,0.0,0.0,0.0,0.0,0.0,0.0,0.0,-5.1022,-5.0494,-5.0427,-5.0159,-4.9549,-4.7043,-4.5648,-4.6027,-4.515,-4.5106,-4.6324,-4.592,-4.6724,-4.9043,-4.8268,-4.7802,-4.7766,-4.9626,-5.1788,-5.4175,-5.4214,-5.3369,-5.1764,-5.2684,-5.2938,-5.2615,-5.2896,-5.3031,-5.3075,-5.3397,-5.3415,-5.3235,-5.3451,-5.376,-5.4124,-5.4265,-5.4483,-5.4757,0.0,1.3677,1.3555,1.279,1.2577,1.2528,1.2437,1.2613,1.2954,1.3451,1.4048,1.4887,1.5951,1.6822,1.7831,1.8991,2.0486,2.2339,2.4449,2.7024,2.9843,3.279,3.5843,3.7078,3.6169,3.8302,3.9413,3.9395,4.1353,4.23,4.232,4.277,4.3719,4.5109,4.4699,4.4468,4.4304,4.4065,4.2802,4.0092,2.9158,2.3165,1.8193,0.0,0.0,0.0,0.0,0.0,0.0,0.0,0.0,0.0,0.0,0.0,0.0,0.0,0.0,0.0,0.0,0.0,0.0,0.0,0.0,0.0,0.0,0.0,0.0,0.0,0.0,0.0,0.0,0.0,0.0,0.0,0.0,0.0,-5.1064,-5.0932,-5.0773,-5.0627,-4.9908,-4.9155,-4.8483,-4.5424,-4.4413,-4.66,-4.5326,-4.5736,-4.8689,-4.9288,-4.9551,-4.959,-5.2674,-5.4621,-5.5171,-5.4322,-5.4162,-5.474,-5.3651,-5.3202,-5.3307,-5.29,-5.2966,-5.3376,-5.3395,-5.3475,-5.3608,-5.3609,-5.3693,-5.3798,-5.3798,-5.4323,-5.5075,-5.5217,-5.579,-5.6523,-0.5464,0.1983,0.6619,0.553,1.0913,1.5418,1.526,1.5418,1.5501,1.5606,1.6018,1.6659,1.7502,1.847,1.9631,2.0839,2.281,2.4788,2.6968,2.9363,3.245,3.6244,3.793,3.9007,3.9454,4.0781,4.1475,4.1495,4.2029,4.245,4.2767,4.3849,4.4751,4.5471,4.5306,4.5225,4.5223,4.5105,4.469,4.3729,3.9608,3.2386,2.3103,0.0,0.0,0.0,0.0,0.0,0.0,0.0,0.0,0.0,0.0,0.0,0.0,0.0,0.0,0.0,0.0,0.0,0.0,0.0,0.0,0.0,0.0,0.0,0.0,0.0,0.0,0.0,0.0,0.0,0.0,0.0,0.0,-4.9603,-5.0925,-4.9988,-4.8949,-4.8375,-4.7949,-4.7403,-4.6751,-4.4897,-4.4321,-4.5814,-4.5829,-4.6352,-4.7617,-4.9617,-5.1015,-5.1584,-5.2608,-5.3622,-5.461,-5.5132,-5.4185,-5.1833,-5.1591,-5.148,-5.1545,-5.274,-5.3012,-5.2569,-5.3296,-5.3637,-5.3676,-5.3789,-5.3852,-5.3873,-5.381,-5.4017,-5.4309,-5.4337,-5.451,-5.4704,-1.1582,-0.5283,-0.0361,0.2643,0.7528,1.2514,1.6734,1.7268,1.7179,1.7535,1.7992,1.8453,1.9104,2.0535,2.1837,2.2933,2.5016,2.7037,2.8983,3.2082,3.5141,3.8277,3.9262,4.0087,4.0948,4.184,4.2388,4.2559,4.3112,4.3627,4.4113,4.5023,4.5591,4.5851,4.581,4.5757,4.5692,4.5734,4.5706,4.555,4.4528,3.9881,3.2755,2.5754,1.0497,-0.8279,-1.6376,-2.8306,-4.0502,-4.2498,0.0,0.0,0.0,0.0,0.0,0.0,0.0,0.0,0.0,0.0,0.0,0.0,0.0,0.0,0.0,0.0,0.0,0.0,0.0,0.0,0.0,0.0,0.0,0.0,-4.9302,-4.8787,-4.987,-4.9156,-4.8293,-4.762,-4.6587,-4.596,-4.5959,-4.5244,-4.5263,-4.6399,-4.7015,-4.8004,-4.9543,-5.103,-5.2254,-5.3129,-5.346,-5.3805,-5.4197,-5.3953,-5.3548,-5.2913,-5.2296,-5.1932,-5.1915,-5.305,-5.3416,0.0,-5.3596,-5.3972,-5.4378,-5.444,-5.4711,0.0,0.0,0.0,0.0,0.0,-5.5084,-5.5095,-1.3103,-1.0769,-0.7655,0.0072,0.1982,0.5819,1.6183,1.7206,1.7448,1.9431,2.0207,2.0668,2.1064,2.2772,2.4234,2.5121,2.7056,2.8985,3.0982,3.4832,3.7809,3.9354,4.0078,4.0749,4.1321,4.2042,4.2681,4.3143,4.4308,4.5212,4.5837,4.6084,4.6197,4.6216,4.6212,4.6064,4.5855,4.5993,4.6071,4.6065,4.5636,4.5223,4.3663,3.2605,1.9281,0.4728,-0.8599,-2.3689,-3.7609,-3.986,0.0,0.0,0.0,0.0,0.0,0.0,0.0,0.0,0.0,0.0,0.0,0.0,0.0,0.0,0.0,0.0,0.0,0.0,0.0,0.0,0.0,0.0,0.0,0.0,-4.8738,-4.825,-4.8354,-4.8405,-4.824,-4.7682,-4.5927,-4.508,-4.5892,-4.6191,-4.6758,-4.7789,-4.8619,-5.0236,-5.2877,0.0,0.0,0.0,0.0,-5.4354,-5.3839,-5.1876,-5.2412,-5.5413,-5.4381,-5.3831,-5.3756,-5.373,-5.4058,-5.4645,-5.4276,-5.4615,-5.5449,-5.5444,-5.5893,-5.6458,-5.4898,-5.4777,-5.5532,-5.6313,-5.6598,-5.6607,-2.9509,-2.3,-1.7134,-1.5846,-0.9478,-0.1089,0.8983,1.0562,1.3558,2.1869,2.3285,2.3804,2.4826,2.5329,2.5908,2.6896,2.8131,3.0318,3.3859,3.7141,3.9268,4.0019,4.0941,4.1635,4.2002,4.2883,4.3732,4.4511,4.4763,4.5323,4.6116,4.6173,4.6222,4.6288,4.6219,4.6169,4.6111,4.5926,4.5956,4.6089,4.5877,4.5624,4.5054,4.2268,3.311,1.9916,0.5879,-0.776,-2.1258,-3.5059,-3.9992,-4.0817,-4.3374,-4.4495,0.0,0.0,0.0,0.0,0.0,0.0,0.0,0.0,0.0,0.0,0.0,0.0,0.0,0.0,0.0,0.0,0.0,0.0,0.0,-4.8843,-4.8131,-4.7553,-4.7544,-4.7495,-4.7376,-4.7094,-4.6642,-4.6359,-4.6377,-4.6915,-4.7681,-4.8745,-5.0111,-5.151,-5.2935,-5.367,-5.4156,-5.4372,-5.3456,-5.3114,-5.341,-5.1741,-5.1238,-5.1927,0.0,0.0,-5.5948,-5.4943,-5.4704,-5.5113,-5.5778,-5.6171,-5.6343,-5.6347,-5.6445,-5.6568,-5.6231,-5.6192,-5.6373,-5.6532,-5.6606,-5.6591,-3.3039,-2.9381,-2.4758,-2.0628,-1.6023,-0.9558,0.0399,0.624,1.1471,1.683,2.2411,2.6158,2.6985,2.7733,2.8479,2.9288,3.0977,3.3236,3.6162,3.8289,3.9983,4.1243,4.1783,4.2448,4.3365,4.3519,4.4033,4.49,4.5336,4.5769,4.6199,4.6236,4.6262,4.6307,4.6261,4.6192,4.6072,4.5846,4.5647,4.5512,4.5797,4.5698,4.5394,4.5241,3.7337,2.4526,1.1104,-0.252,-1.6461,-3.2106,-3.8154,-3.96,-4.2258,-4.3706,-4.4545,0.0,0.0,0.0,0.0,0.0,0.0,0.0,0.0,0.0,0.0,0.0,0.0,0.0,0.0,-4.8704,-4.904,0.0,-4.8027,-4.8086,-4.7718,-4.7404,-4.7395,-4.7689,-4.7636,-4.6915,-4.7212,-4.7375,-4.7219,-4.8286,-4.9417,-5.0427,-5.1661,-5.2818,-5.3803,-5.3898,-5.3831,-5.3623,-5.3139,-5.2686,-5.2241,-5.3252,-5.3748,-5.376,-5.5489,-5.6352,-5.6426,-5.5895,-5.5742,-5.5937,-5.6395,-5.6602,-5.6602,-5.6602,-5.6567,-5.6491,-5.6491,-5.6542,-5.6598,-5.653,-5.6471,-5.6439,-3.194,-3.2247,-3.019,-2.3191,-2.1965,-1.866,-0.8748,0.1363,0.8783,1.133,2.1124,2.8023,2.8461,2.9754,3.0836,3.1494,3.3824,3.5876,3.7477,3.8941,4.0513,4.2154,4.2553,4.3314,4.4506,4.418,4.4321,4.5044,4.5815,4.6201,4.6208,4.6278,4.6286,4.6245,4.624,4.6095,4.5856,4.5757,4.5395,4.4959,4.5592,4.5641,4.5306,4.5554,3.9219,2.8549,1.5998,0.2299,-1.2028,-2.6234,-3.4151,-3.8479,-4.0728,-4.2613,-4.4058,-4.4403,-4.5134,0.0,0.0,0.0,0.0,0.0,0.0,0.0,0.0,0.0,-4.936,-4.9357,-4.8508,-4.7939,-4.8602,-4.7949,-4.7419,-4.7713,-4.7698,-4.7669,-4.7702,-4.837,-4.8485,-4.7507,-4.7998,-4.8407,-4.8279,-4.9836,-5.1163,-5.1915,-5.287,-5.3743,-5.4433,-5.3779,-5.318,-5.2786,-5.2855,-5.235,-5.1215,-5.4786,-5.6607,-5.6605,-5.6597,-5.6521,-5.6364,-5.651,-5.6582,-5.6582,-5.6548,-5.6528,-5.6548,-5.6491,-5.6414,-5.6317,-5.6317,-5.6485,-5.6673,-5.6427,-5.629,-5.6222,-3.1784,-3.1841,-3.166,-3.1061,-3.1222,-2.7963,-1.7785,-0.7429,0.2679,1.2127,2.2786,2.9656,3.0011,3.1028,3.1952,3.2792,3.4867,3.6247,3.6711,3.9508,4.1305,4.1481,4.3101,4.4095,4.4242,4.4978,4.5417,4.5529,4.5984,4.6201,4.6198,4.6268,4.6204,4.6036,4.6037,4.5794,4.5398,4.5667,4.5445,4.494,4.5497,4.5522,4.5263,4.57,4.4687,4.1461,2.9421,1.6555,0.3128,-1.0938,-2.438,-3.5752,-3.8467,-4.1159,-4.3474,-4.4288,-4.5161,-4.5859,-4.5722,-4.5739,-4.6222,-4.8125,-4.8336,-4.8213,0.0,0.0,-4.8805,-4.8866,-4.8163,-4.7793,-4.863,-4.8016,-4.7686,-4.8602,-4.8636,-4.8535,-4.8476,-4.9205,-4.9683,-4.9485,-4.9552,-4.9595,-4.9579,-5.1114,-5.2136,-5.2244,-5.303,-5.3527,-5.3622,-5.3145,-5.2831,-5.2708,-5.1874,-5.1365,-5.1206,-5.48,-5.6607,-5.6606,-5.6602,-5.6586,-5.6579,-5.6538,-5.6509,-5.6509,-5.6327,-5.6271,-5.6329,-5.6129,-5.6049,-5.6035,-5.6035,-5.6495,-5.7033,-5.631,-5.6051,-5.6032,-3.1597,-3.1727,-3.1841,-3.2053,-3.2221,-3.093,-2.6637,-1.6992,-0.8486,-0.3643,0.6316,1.5656,2.2564,2.9352,3.3633,3.4301,3.5976,3.7269,3.7908,4.0026,4.149,4.1949,4.3032,4.3757,4.4026,4.4714,4.5262,4.567,4.6018,4.6201,4.6195,4.6264,4.6184,4.6008,4.6001,4.5901,4.5717,4.5732,4.5603,4.5376,4.553,4.538,4.5148,4.566,4.5655,4.379,3.1603,1.8886,0.0,-0.8413,-2.2794,-3.5245,-3.7866,-4.0552,-4.2938,-4.4026,-4.4841,-4.5506,-4.5838,-4.5819,-4.6143,0.0,-4.8195,-4.8002,-4.8643,-4.8393,-4.8152,-4.8697,-4.8072,-4.7715,-4.8623,-4.8487,-4.8377,0.0,-4.9257,-4.9525,-4.9531,-5.0204,-5.0731,-5.0729,-5.0689,-5.0646,-5.0558,-5.1663,-5.2337,-5.2298,-5.2649,-5.3101,-5.3642,-5.256,-5.2382,-5.3379,-5.2046,-5.227,-5.4271,-5.5797,-5.6542,-5.653,-5.653,-5.6536,-5.6542,-5.6359,-5.6242,-5.62,-5.6129,-5.6375,-5.6816,-5.6733,-5.695,-5.7349,-5.7349,-5.7506,-5.7639,-5.6867,-5.6902,-5.733,-3.1482,-3.1597,-3.1727,-3.1727,-3.1769,-3.1883,-3.1996,-2.2845,-1.5693,-1.5188,-0.5611,0.451,1.3235,2.3699,3.0357,3.0911,3.4708,3.7537,3.8491,3.9933,4.1182,4.2073,4.2813,4.341,4.3737,4.4267,4.4801,4.5349,4.5935,4.6203,4.6196,4.6273,4.6211,4.6069,4.603,4.6005,4.5988,4.5832,4.5703,4.5526,4.5569,4.5361,4.5109,4.5609,4.3636,3.94,3.0491,1.9057,0.5992,-0.8403,-2.2886,-3.5339,-3.8091,-4.0699,-4.297,-4.4116,-4.489,-4.5445,-4.5896,-4.581,0.0,-4.7416,-4.7543,-4.7506,-4.8298,-4.7977,-4.7735,-4.8593,-4.824,-4.8053,-4.897,-4.9153,-4.9258,-4.9534,-5.0078,-5.0467,-5.0498,-5.0984,-5.1343,-5.1368,-5.1347,-5.1289,-5.1191,-5.1951,-5.2417,-5.2366,-5.2587,-5.2964,-5.3511,-5.258,-5.2381,-5.3167,-5.2935,-5.4001,-5.6478,-5.6503,-5.6495,-5.6503,-5.629,-5.6251,-5.6338,-5.6131,-5.6149,-5.6323,-5.6275,-5.6725,-5.7461,-5.7427,-5.7718,-5.8184,-5.8184,-5.8265,-5.8317,-5.7774,-5.7841,-5.8184,-3.1482,-3.1482,-3.1539,-3.1539,-3.1539,-3.164,-3.194,-2.2611,-1.5518,-1.5498,-0.5446,0.2227,0.3602,1.2979,1.94,1.995,2.9828,3.6536,3.7643,3.902,4.0203,4.1313,4.2569,4.3314,4.3314,4.3841,4.4226,4.4445,4.5614,4.6204,4.6209,4.6271,4.6296,4.6285,4.6085,4.5994,4.5998,4.5985,4.5648,4.5169,4.5594,4.5549,4.5238,4.5653,3.8374,2.7918,2.768,1.9406,0.6326,-0.8435,-2.301,-3.5564,-3.899,-4.165,-4.3762,-4.4849,-4.5557,-4.5942,-4.5835,0.0,-4.5667,-4.5911,-4.6026,-4.6329,-4.7392,-4.7567,-4.7735,-4.8541,-4.8723,-4.8992,-4.9817,-5.0027,-5.0331,-5.1185,-5.1341,-5.1334,-5.1287,-5.1343,-5.1362,-5.13,-5.1351,-5.1408,0.0,-5.2052,-5.2491,-5.248,-5.3159,-5.3377,-5.2951,-5.3497,-5.3068,-5.1431,-5.4601,-5.6401,-5.6498,-5.6509,-5.65,-5.6484,-5.5777,-5.5606,-5.5923,-5.5916,-5.6369,-5.7146,-5.6964,-5.736,-5.8132,-5.7947,-5.7894,-5.7913,-5.7913,-5.8383,-5.9071,-5.9033,-5.859,-5.7992,-3.1351,-3.1351,-3.1409,-3.1467,-3.1482,-3.1539,-3.1655,-2.8116,-2.5301,-2.4826,-1.4684,0.0,0.0,0.0,0.0,0.0,1.3013,1.8785,2.6769,2.8188,3.2307,4.0292,4.1323,4.1806,4.2085,4.2607,4.3135,4.3794,4.4214,4.4808,4.5611,4.5752,4.5998,4.6309,4.6234,4.5637,4.4743,4.5726,4.5733,4.5133,4.5617,4.5718,4.5534,4.4999,3.7585,2.6305,0.0,0.6474,-0.458,-1.1046,-2.291,-3.5519,-3.8599,-4.1199,-4.3389,-4.4801,-4.5675,-4.6154,-4.5984,0.0,-4.5944,-4.7287,-4.7378,-4.735,-4.8203,-4.8389,-4.858,-4.9394,-4.9623,-4.9921,-5.0778,-5.0956,-5.1064,-5.1355,-5.1406,-5.1381,-5.1365,-5.1386,-5.1386,-5.1368,-5.186,0.0,0.0,0.0,0.0,-5.2567,-5.3214,-5.3727,-5.4006,-5.378,-5.3973,-5.473,-5.5676,-5.6168,-5.6184,-5.6169,-5.6035,-5.5782,-5.5381,-5.5326,-5.5593,-5.6209,-5.6566,-5.6707,-5.7226,-5.7927,-5.8712,-5.8606,-5.8968,-5.9548,-5.9417,-5.9384,-5.9419,-5.9387,-5.9015,-5.8631,0.0,-3.1234,-3.1292,-3.1524,-3.1467,0.0,0.0,0.0,0.0,0.0,0.0,0.0,0.0,0.0,0.0,0.0,0.0,0.7518,1.5491,1.6392,2.0065,2.7861,2.8704,2.9082,2.9327,3.2789,3.7352,4.3066,4.333,4.3894,4.4666,4.4916,4.5404,4.6035,4.5642,4.5226,4.4855,4.5476,4.5426,4.4947,4.5161,4.2606,3.8624,3.7967,2.7919,0.0,0.3215,-0.7923,-1.834,-2.0588,-2.7569,-3.5975,-4.0032,-4.2519,-4.4093,-4.4832,-4.558,-4.6123,-4.5998,-4.5822,-4.6114,-4.801,-4.8399,-4.8477,-4.9087,-4.9235,-4.9452,-5.0291,-5.0527,-5.0742,-5.1308,-5.1396,-5.1398,-5.1405,-5.1662,-5.1756,-5.1401,-5.1629,-5.1814,-5.1798,-5.2244,-5.2685,0.0,0.0,0.0,-5.3408,-5.3679,-5.421,-5.5048,-5.4652,-5.4987,-5.6285,-5.5845,-5.5615,-5.5611,-5.5607,-5.5467,-5.5212,-5.5078,-5.5297,-5.5779,-5.6198,-5.6654,-5.7066,-5.7639,-5.8391,-5.919,-5.9288,-5.9623,-6.008,-6.0099,-5.9874,-5.9568,-5.9518,-5.9323,-5.914,0.0,0.0,-3.1249,0.0,0.0,0.0,0.0,0.0,0.0,0.0,0.0,0.0,0.0,0.0,0.0,0.0,0.0,0.0,0.4235,0.4045,0.4527,0.6173,0.6941,0.7318,0.7328,1.6025,2.7059,4.0462,4.2398,4.3406,4.3437,4.3767,4.448,4.5369,4.1831,4.1797,4.4256,4.2959,4.2456,4.2511,4.2273,3.512,2.4598,2.4547,1.0045,-1.0551,-1.3231,-2.2252,-3.324,-3.5594,-3.6224,-3.7055,-4.2816,0.0,0.0,0.0,0.0,-4.5852,-4.5967,-4.5956,-4.6348,-4.8114,-4.9032,-4.9595,-4.9977,-5.0074,-5.0312,-5.1132,-5.1348,-5.1406,0.0,0.0,-5.1394,-5.139,-5.2093,-5.2336,-5.1483,-5.2067,-5.2582,0.0,0.0,0.0,0.0,0.0,0.0,-5.4933,0.0,-5.4854,-5.5937,-5.6001,-5.5979,-5.5939,-5.5266,-5.4901,-5.4901,-5.4912,-5.4917,-5.4914,-5.4952,-5.5437,-5.6349,-5.5977,-5.6662,-5.8151,-5.8242,-5.8713,-5.9484,-5.9874,-5.9791,-5.9484,-5.9874,-5.9791,-5.9413,-5.9413,-5.9395,-5.9413,0.0,0.0,0.0,0.0,0.0,0.0,0.0,0.0,0.0,0.0,0.0,0.0,0.0,0.0,0.0,0.0,0.0,0.0,-0.8583,-0.8105,-0.4429,0.3946,0.4494,0.4855,0.54,1.3072,1.6982,1.6842,3.3417,4.1938,4.2584,4.2702,4.3337,4.2802,0.6283,0.0284,1.7223,1.1281,1.0958,1.4453,1.4718,1.1718,0.6971,0.6219,-0.3162,-1.6109,-1.7602,-2.5725,-3.6043,-3.799,0.0,0.0,0.0,-4.2894,-4.5035,0.0,0.0,-4.5334,-4.6892,-4.7563,-4.826,-5.0158,-5.0727,-5.0859,-5.101,-5.1034,-5.1093,-5.1264,-5.1355,-5.1408,-5.1402,0.0,0.0,-5.1336,-5.1512,0.0,-5.2144,-5.2341,0.0,-5.2975,0.0,-5.4106,-5.3807,-5.4902,0.0,0.0,-5.5615,-5.5692,-5.5982,-5.5992,-5.5758,-5.5186,-5.5002,-5.4897,-5.4905,-5.4886,-5.489,-5.4924,-5.5527,-5.5811,-5.5937,-5.6995,-5.7489,-5.7581,-5.8633,-5.9009,-5.8893,-5.895,-5.8989,-5.899,-5.8989,-5.8753,-5.8386,-5.8338,-5.8076,-5.7868,0.0,0.0,0.0,0.0,0.0,0.0,0.0,0.0,0.0,0.0,0.0,0.0,0.0,0.0,0.0,0.0,0.0,0.0,0.0,-2.1127,-1.8482,-1.2357,-1.2309,-1.1874,-1.0616,-0.5479,-0.3848,-0.6169,0.4583,1.0146,1.0636,0.8658,0.7512,0.6274,-1.2415,-1.3532,-0.1425,-0.1597,-0.0327,0.0,0.0,-0.2069,-0.8331,-0.889,-1.6213,-2.645,-2.8296,-3.3835,-4.0262,0.0,0.0,-4.3566,-4.2415,-4.3482,-4.5132,-4.4879,0.0,-4.5429,-4.681,-4.802,-4.927,-5.0835,-5.1265,-5.1279,-5.1154,-5.1191,-5.1226,-5.1103,-5.117,0.0,-5.1765,0.0,0.0,0.0,0.0,0.0,-5.2181,-5.2787,-5.3331,0.0,-5.4126,0.0,-5.4709,-5.5489,-5.5996,0.0,-5.5992,-5.5997,-5.6011,-5.5696,-5.5333,-5.4917,-5.4884,-5.4884,-5.4893,-5.4893,-5.4915,-5.4909,-5.5359,-5.5716,-5.6063,-5.7053,-5.7528,-5.7605,0.0,-5.8609,-5.8338,-5.8545,-5.8508,-5.8405,-5.8568,-5.8332,-5.7959,-5.7886,-5.7737,-5.7516,0.0,0.0,0.0,0.0,0.0,0.0,0.0,0.0,0.0,0.0,-3.2749,-3.2695,0.0,0.0,0.0,0.0,0.0,0.0,0.0,0.0,-3.2563,-3.267,-3.3064,-3.2429,-3.074,-2.8852,-2.7015,-2.5028,-2.8419,-3.0142,-3.0247,-3.5074,-3.8605,-4.0096,-2.2417,-1.5385,-1.6232,-0.7807,-0.5087,-0.6457,-0.6623,-1.3232,-2.2982,0.0,-2.9158,-3.8118,-4.0578,-4.283,-4.4375,0.0,-4.3149,-4.4761,-4.4509,-4.4954,-4.5452,-4.494,-4.5201,-4.5813,-4.6455,-4.7921,-4.9536,-5.0701,-5.111,-5.1152,-5.087,-5.0903,-5.0965,-5.0826,0.0,-5.1341,-5.2193,-5.1851,-5.1665,-5.2436,0.0,-5.3201,-5.2107,-5.3261,-5.4201,-5.4183,-5.4221,-5.4604,-5.5542,-5.5834,-5.5938,-5.5731,-5.57,-5.5746,-5.5834,-5.5248,-5.4903,-5.4895,-5.4912,-5.4912,-5.4881,-5.4678,-5.4575,-5.4574,-5.4812,-5.5495,-5.6607,-5.6772,-5.7235,-5.7812,-5.7859,0.0,-5.7812,-5.8245,-5.8157,-5.7859,-5.8245,-5.8157,-5.7831,-5.7831,-5.7831,-5.7737,0.0,0.0,0.0,0.0,0.0,0.0,0.0,0.0,0.0,0.0,-3.4431,-3.4317,0.0,0.0,0.0,0.0,0.0,0.0,0.0,0.0,0.0,-3.4988,-3.5086,-3.4542,-3.3308,-3.4682,-3.2947,-2.7795,-3.0482,-3.1768,-3.1931,-3.8651,-4.2841,-4.449,-3.7329,-3.4644,-3.5292,-3.2037,-3.2055,-3.4325,-3.438,-3.6905,-4.0673,-4.0692,0.0,0.0,-4.4186,-4.4407,-4.4479,-4.4576,-4.4491,-4.3972,-4.2042,-4.3005,-4.4782,-4.4733,-4.5105,-4.588,-4.7452,-4.8181,-4.8885,-5.0509,-5.0895,-5.0875,-5.0815,-5.0616,0.0,0.0,-5.1164,-5.1628,-5.208,-5.2627,-5.2958,-5.2854,0.0,0.0,0.0,0.0,-5.3935,0.0,0.0,0.0,0.0,0.0,0.0,0.0,0.0,-5.4446,-5.5045,-5.4963,-5.49,-5.4897,-5.4919,-5.489,-5.4914,-5.3571,-5.2929,-5.2926,-5.4283,-5.5651,-5.7102,-5.7473,-5.7562,-5.732,-5.7737,0.0,-5.7338,-5.7419,-5.7419,-5.7338,-5.7419,-5.737,-5.732,-5.732,-5.732,-5.7289,0.0,0.0,0.0,0.0,0.0,0.0,0.0,-3.5752,-3.5795,-3.6246,-3.6229,-3.59,-3.504,-3.5121,-3.5243,0.0,0.0,0.0,0.0,0.0,0.0,-3.6547,-3.6903,-3.6661,-3.5799,-3.8362,0.0,0.0,0.0,-3.8388,-3.9611,-4.2454,-4.4215,-4.4836,-4.1934,-4.136,-4.2414,-4.1415,-4.1987,-4.3539,-4.3544,-4.4169,-4.5084,0.0,0.0,0.0,0.0,-4.4957,-4.4866,-4.5182,-4.5098,-4.4674,-4.3462,-4.426,-4.5581,-4.523,-4.5467,-4.6183,-4.7612,-4.7862,-4.8121,-4.9814,-5.024,-5.0239,-5.0065,0.0,0.0,0.0,-5.0879,-5.1405,-5.2513,0.0,0.0,0.0,0.0,0.0,0.0,0.0,0.0,0.0,0.0,0.0,0.0,0.0,0.0,0.0,0.0,-5.3944,-5.4331,-5.4321,-5.4316,-5.4315,-5.3887,-5.3639,-5.3635,-5.2904,-5.2346,-5.2098,-5.4815,-5.6412,-5.6975,-5.727,-5.7311,-5.7126,-5.7361,0.0,-5.7093,-5.7093,-5.7039,-5.6951,-5.6617,-5.6492,-5.6438,-5.6057,-5.5928,-5.5928,0.0,0.0,0.0,0.0,0.0,0.0,-3.6724,-3.6666,-3.6768,-3.7469,-3.7632,-3.7271,-3.6173,-3.6342,-3.6658,0.0,0.0,0.0,0.0,0.0,0.0,0.0,0.0,0.0,0.0,0.0,0.0,0.0,0.0,0.0,0.0,0.0,0.0,0.0,0.0,-4.3611,-4.4882,-4.4812,-4.5117,0.0,0.0,-4.5401,0.0,0.0,0.0,0.0,0.0,0.0,-4.5158,-4.5137,-4.5185,-4.5249,-4.506,-4.5609,-4.6222,-4.5753,-4.5731,-4.613,-4.7444,-4.7369,-4.729,-4.8946,-4.9364,-4.9313,-4.9189,-4.9201,0.0,0.0,-5.0622,-5.1275,-5.2948,0.0,-5.2704,0.0,0.0,0.0,0.0,0.0,0.0,0.0,0.0,0.0,0.0,0.0,0.0,0.0,0.0,0.0,-5.3794,-5.3516,-5.3339,-5.3332,-5.2679,-5.2322,-5.2318,-5.2309,-5.2123,-5.1708,-5.5296,-5.6927,-5.6721,-5.6653,-5.6761,-5.7012,-5.6778,0.0,0.0,-5.6886,-5.6706,-5.6311,-5.5865,-5.5658,-5.553,-5.4982,-5.4783,-5.48,0.0,0.0,0.0,0.0,0.0,0.0,-3.7667,-3.7613,-3.7577,-3.7667,-3.8096,-3.8363,-3.8232,-3.8264,-3.8295,0.0,0.0,0.0,0.0,0.0,0.0,0.0,0.0,0.0,0.0,0.0,0.0,0.0,0.0,0.0,0.0,0.0,0.0,0.0,0.0,0.0,0.0,-4.5729,0.0,0.0,0.0,0.0,0.0,0.0,0.0,0.0,0.0,0.0,0.0,0.0,0.0,-4.453,-4.414,-4.4681,-4.5517,-4.5923,0.0,0.0,-4.7218,-4.6893,-4.6338,-4.8091,-4.818,-4.8034,-4.854,0.0,0.0,-5.0174,-5.0878,-5.1596,-5.2799,-5.3616,-5.4056,-5.3867,0.0,-5.3684,0.0,0.0,0.0,0.0,0.0,0.0,0.0,0.0,0.0,0.0,0.0,0.0,-5.3744,-5.2601,-5.189,-5.1882,-5.1828,-5.1744,-5.1742,-5.1772,-5.1776,-5.1741,-5.4932,-5.6454,-5.6418,-5.5786,-5.6014,-5.6926,-5.61,0.0,0.0,-5.6455,-5.6115,-5.4999,-5.5244,-5.5131,-5.4844,-5.4783,-5.4783,-5.4783,0.0,0.0,0.0,0.0,0.0,0.0,-3.8143,-3.8065,-3.8101,-3.8504,-3.873,-3.8876,-3.8876,-3.9175,-3.9333,-3.9099,-3.9364,0.0,0.0,0.0,0.0,0.0,0.0,0.0,0.0,0.0,-3.9112,-4.0564,0.0,0.0,0.0,0.0,0.0,0.0,0.0,0.0,0.0,0.0,0.0,0.0,0.0,0.0,0.0,0.0,0.0,0.0,0.0,0.0,0.0,0.0,0.0,0.0,-4.3943,-4.4535,0.0,0.0,-4.5574,-4.5806,-4.6746,-4.6218,-4.5648,-4.6916,-4.718,-4.7155,-4.7386,0.0,-4.759,-4.867,-4.9465,-5.0177,-5.1158,-5.2333,-5.3023,-5.2589,-5.2809,0.0,0.0,0.0,0.0,0.0,0.0,0.0,0.0,0.0,0.0,0.0,0.0,0.0,-5.252,-5.2,-5.1715,-5.1718,-5.1669,-5.1701,-5.1702,-5.1704,-5.1669,-5.1699,-5.1429,-5.2695,-5.5203,-5.5757,-5.5741,-5.5453,-5.5872,0.0,0.0,-5.397,-5.4275,-5.4579,-5.4694,-5.4668,-5.4466,-5.3651,-5.3348,-5.3348,0.0,0.0,0.0,0.0,0.0,-3.8032,-3.8499,-3.848,-3.8584,-3.9082,-3.9301,-3.9432,-3.9432,-3.9886,-4.0081,-3.9859,-3.9886,0.0,0.0,0.0,0.0,0.0,0.0,0.0,0.0,0.0,-3.9735,-4.1089,-4.0924,-4.1283,0.0,0.0,0.0,0.0,0.0,0.0,0.0,0.0,0.0,0.0,0.0,0.0,0.0,0.0,0.0,0.0,0.0,0.0,0.0,0.0,0.0,0.0,0.0,-4.4083,-4.4874,0.0,-4.5553,-4.6033,-4.6338,-4.5605,-4.5019,-4.5936,-4.6147,-4.6165,0.0,-4.6406,-4.6684,-4.7684,-4.8514,-4.9279,-5.0093,-5.1293,-5.206,-5.1651,-5.1976,-5.2083,-5.1647,0.0,0.0,0.0,0.0,0.0,0.0,0.0,0.0,0.0,0.0,0.0,-5.0655,-5.0611,-5.0939,-5.1705,-5.167,-5.1723,-5.1678,-5.0972,-5.0637,-5.0592,-4.8813,-5.0042,-5.3822,-5.4816,-5.5132,-5.497,-5.518,0.0,0.0,-5.2431,-5.2986,-5.3798,-5.3788,-5.3804,-5.3685,-5.2774,-5.2373,-5.2373,0.0,0.0,0.0,0.0,0.0,-3.8707,-3.8707,-3.899,-3.9195,-3.9195,-3.977,-4.0204,-4.0204,-4.0427,-4.0588,-4.0588,-4.0588,0.0,0.0,0.0,0.0,0.0,0.0,0.0,-4.0274,-4.0868,-4.1046,-4.0793,-4.0937,-4.0865,-4.0648,-4.1575,0.0,0.0,0.0,0.0,0.0,0.0,0.0,0.0,0.0,0.0,0.0,0.0,0.0,0.0,0.0,0.0,0.0,0.0,0.0,0.0,0.0,-4.2951,-4.3966,-4.479,-4.5091,-4.5332,-4.5929,-4.5125,-4.4354,-4.5373,-4.523,-4.4978,-4.5563,-4.5699,-4.6127,-4.7589,-4.8514,-4.9279,-5.0245,-5.1048,-5.1619,-5.1601,-5.1619,-5.15,-5.1262,0.0,0.0,0.0,0.0,0.0,0.0,0.0,0.0,0.0,0.0,0.0,-4.8186,-4.8025,-4.9171,-5.1628,-5.1697,-5.1697,-5.1697,-4.9275,-4.8048,-4.8057,-4.7988,-4.9528,-5.2435,-5.2462,-5.3885,0.0,0.0,0.0,0.0,-5.2428,-5.2445,-5.2445,-5.239,-5.239,-5.239,-5.239,-5.2373,-5.2373,0.0,0.0,0.0,0.0,0.0,0.0,-3.7915,-3.7877,-3.8109,-3.8899,-3.9182,-3.9547,-4.0134,-4.0525,-4.0733,-4.0738,-4.0694,0.0,0.0,0.0,0.0,0.0,0.0,0.0,-4.0652,-4.0876,-4.094,-4.0878,-4.0733,-4.0649,-4.0597,-4.0569,-4.0726,-4.1033,-4.1391,-4.2051,0.0,-4.2511,0.0,0.0,0.0,0.0,0.0,0.0,0.0,0.0,0.0,0.0,0.0,0.0,0.0,0.0,0.0,0.0,0.0,-4.3541,-4.4436,-4.5316,-4.5509,-4.5007,-4.4507,-4.4818,-4.4886,-4.4831,-4.5069,-4.5052,-4.5228,-4.5665,-4.6357,-4.7153,-4.7931,-4.9114,-4.9975,-5.0146,-5.0477,-5.0387,0.0,0.0,0.0,0.0,0.0,0.0,0.0,0.0,0.0,0.0,0.0,0.0,-4.8034,-4.7968,-4.8382,-4.9148,-4.9148,-4.9186,-4.9154,-4.8395,-4.7995,-4.8011,-4.798,-4.8462,-4.946,-5.1463,-5.2874,0.0,0.0,0.0,0.0,-5.2368,-5.2378,-5.2425,-5.2425,-5.2415,-5.2373,-5.2373,-5.2373,-5.2373,0.0,0.0,0.0,0.0,0.0,0.0,-3.7411,-3.7427,-3.767,-3.8396,-3.8623,-3.9006,-3.9738,-4.0077,-4.0409,-4.0842,-4.0799,0.0,0.0,0.0,0.0,0.0,0.0,0.0,-4.0884,-4.0813,-4.0772,-4.0745,-4.0467,-4.0289,-4.0252,-3.9844,-3.9802,-4.0031,-4.0169,-4.0589,0.0,-4.1141,0.0,0.0,0.0,0.0,-4.1481,0.0,0.0,0.0,0.0,0.0,0.0,0.0,0.0,0.0,0.0,0.0,0.0,0.0,-4.3631,-4.4658,-4.4949,-4.4797,-4.4587,-4.4587,-4.4682,-4.472,-4.472,-4.472,-4.4737,-4.4776,-4.5371,-4.6073,-4.655,-4.7649,-4.8603,-4.9034,-4.9121,0.0,0.0,0.0,0.0,0.0,0.0,0.0,0.0,0.0,0.0,0.0,0.0,0.0,-4.7556,-4.7877,-4.7896,-4.7614,-4.7838,-4.8012,-4.8018,-4.7968,-4.7992,-4.8001,-4.8002,-4.8,-4.8041,-4.9875,-5.135,0.0,0.0,0.0,0.0,-5.0515,-5.0452,-5.0615,-5.1884,-5.2395,-5.24,-5.24,-5.24,-5.24,0.0,0.0,0.0,0.0,0.0,0.0,0.0,-3.7421,-3.7693,-3.7731,-3.8112,-3.8558,-3.9135,-3.9334,-3.9852,-4.091,-4.0937,0.0,0.0,0.0,0.0,0.0,0.0,-4.0857,-4.0964,-4.0726,-4.0546,-4.0462,-4.0139,-3.9876,-3.9664,-3.9364,-3.899,-3.8572,-3.9323,-3.9257,-3.8658,-3.9858,-4.0718,-4.1323,-4.1375,-4.1393,0.0,0.0,0.0,0.0,0.0,0.0,0.0,0.0,0.0,0.0,0.0,0.0,0.0,0.0,0.0,0.0,0.0,-4.4587,-4.4587,-4.4587,-4.4587,-4.4587,-4.4587,-4.4587,0.0,-4.4776,-4.532,-4.5796,-4.6015,-4.6659,-4.7362,-4.8099,0.0,0.0,0.0,0.0,0.0,0.0,0.0,0.0,0.0,0.0,0.0,0.0,0.0,0.0,-4.6525,-4.7244,-4.731,-4.6555,-4.72,-4.7686,-4.7984,-4.7968,-4.7985,-4.8018,-4.7985,-4.7996,-4.801,-4.8042,-4.941,0.0,0.0,0.0,0.0,-4.7274,-4.7274,-4.7603,-5.0771,-5.2044,-5.2012,-5.2012,-5.2012,-5.2012,0.0,0.0,0.0,0.0,0.0,0.0,0.0,0.0,0.0,0.0,-3.7566,-3.8166,-3.9164,-4.0077,-4.0737,0.0,0.0,0.0,0.0,0.0,0.0,0.0,-4.0848,-4.08,-4.061,-4.0607,-4.0411,-4.0023,-3.9861,-3.9656,-3.9389,-3.8952,-3.8542,-3.8143,-3.8057,-3.7945,-3.7791,-3.925,-3.9738,-3.9648,-4.0195,-4.0434,0.0,0.0,0.0,0.0,-4.0434,-4.0434,0.0,0.0,0.0,0.0,0.0,0.0,0.0,0.0,-4.2422,-4.2861,-4.4215,0.0,-4.4587,-4.4587,-4.4587,-4.4587,0.0,-4.4587,-4.4626,-4.4626,-4.4354,-4.4449,-4.5568,-4.5513,-4.5552,0.0,0.0,0.0,0.0,0.0,0.0,0.0,0.0,0.0,0.0,0.0,0.0,0.0,0.0,-4.4502,-4.331,-4.3378,-4.338,-4.3225,-4.3426,-4.4921,-4.7993,-4.7981,-4.8036,-4.796,-4.7965,-4.8007,-4.7965,-4.7994,-4.7048,0.0,0.0,0.0,-4.7333,-4.7265,-4.7289,-4.7348,-4.8142,-4.8457,-4.8498,-4.8498,-4.8498,-4.8498,0.0,0.0,0.0,0.0,0.0,0.0,0.0,0.0,0.0,0.0,-3.67,-3.7036,-3.7637,-3.8307,-3.8677,0.0,0.0,0.0,0.0,0.0,0.0,-4.0798,-4.0754,-4.0649,-4.05,-4.0285,-4.0062,-3.9802,-3.9389,-3.9125,-3.898,-3.8355,-3.798,-3.7737,-3.719,-3.7138,-3.7473,-3.8471,-3.8908,-3.9056,-3.9783,0.0,0.0,0.0,0.0,0.0,-3.9799,-3.9696,0.0,-3.9348,-3.9295,-3.9295,0.0,0.0,0.0,0.0,-4.1415,-4.173,-4.3206,-4.4121,-4.4587,-4.4587,-4.4587,-4.4587,-4.4587,-4.4587,-4.4497,-4.4179,0.0,-4.3645,-4.4135,-4.4056,0.0,0.0,0.0,0.0,0.0,0.0,0.0,0.0,0.0,0.0,0.0,0.0,0.0,0.0,0.0,-4.3195,-4.2878,-4.2365,-4.2115,-4.2104,-4.209,-4.3137,-4.5243,-4.6776,-4.6745,-4.5309,-4.5285,-4.5298,-4.5306,-4.5278,-4.4388,0.0,0.0,0.0,-4.7262,-4.6882,-4.6942,-4.7272,-4.7297,-4.7295,-4.7311,-4.7304,-4.7289,-4.7311,0.0,0.0,0.0,0.0,0.0,0.0,0.0,0.0,0.0,0.0,0.0,0.0,0.0,0.0,0.0,0.0,0.0,0.0,0.0,0.0,-4.053,-4.0654,-4.0545,-4.0446,-4.038,-3.9925,-3.9622,-3.9529,-3.8839,-3.8523,-3.8523,-3.7826,-3.7469,-3.7377,-3.6557,-3.6629,-3.7342,-3.7755,-3.8328,-3.9056,-3.9716,0.0,0.0,0.0,0.0,0.0,0.0,0.0,0.0,-3.8446,-3.8278,-3.8278,-3.8278,0.0,0.0,0.0,0.0,0.0,-4.2002,-4.3267,-4.4253,-4.4253,-4.4253,-4.4253,-4.4253,0.0,0.0,0.0,0.0,0.0,0.0,0.0,0.0,0.0,0.0,0.0,0.0,0.0,0.0,0.0,0.0,0.0,0.0,0.0,0.0,0.0,0.0,-4.2465,-4.3384,-4.2614,-4.2092,-4.2092,-4.2092,-4.21,-4.2107,-4.477,-4.4827,-4.2107,-4.2123,-4.2091,-4.2138,-4.2138,-4.2113,-4.2223,0.0,0.0,-4.6998,-4.6196,-4.6403,-4.711,-4.7125,-4.7066,-4.708,-4.7288,-4.7228,-4.708,0.0,0.0,0.0,0.0,0.0,0.0,0.0,0.0,0.0,0.0,0.0,0.0,0.0,0.0,0.0,0.0,0.0,0.0,0.0,-3.988,-4.0245,-4.0062,-4.0227,-4.0156,-3.9821,-3.9754,-3.9383,-3.8759,-3.8305,-3.8147,-3.8241,-3.7739,-3.7321,-3.6939,-3.6097,-3.6135,-3.6961,-3.7631,-3.8328,-3.9006,-3.9239,0.0,0.0,0.0,0.0,0.0,0.0,0.0,0.0,-3.8334,-3.8278,-3.8278,-3.8278,0.0,0.0,0.0,0.0,0.0,-4.1403,-4.2252,-4.2831,-4.2831,-4.2831,-4.2831,-4.2831,-4.2831,0.0,0.0,0.0,0.0,0.0,0.0,0.0,0.0,0.0,0.0,0.0,0.0,0.0,0.0,0.0,0.0,0.0,0.0,0.0,0.0,0.0,-4.217,-4.2354,-4.2189,-4.2092,-4.2092,-4.2092,-4.2087,-4.2076,-4.257,-4.2577,-4.209,-4.2071,-4.2076,-4.2082,-4.2082,-4.2131,-4.2114,0.0,-4.4126,-4.6055,-4.5957,-4.6018,-4.6123,-4.6079,-4.6124,-4.6168,-4.6993,-4.6786,-4.6256,0.0,0.0,0.0,0.0,0.0,0.0,0.0,0.0,0.0,0.0,0.0,0.0,0.0,0.0,0.0,0.0,0.0,0.0,0.0,-3.9261,-3.9863,-3.9607,-3.9584,-3.9561,-3.9505,-3.9231,-3.8943,-3.8585,-3.8249,-3.8,-3.781,-3.715,-3.662,-3.6199,-3.6225,-3.6451,-3.6857,-3.7683,-3.8187,-3.8555,0.0,0.0,0.0,0.0,0.0,0.0,0.0,0.0,0.0,0.0,-3.7342,-3.7342,-3.7342,0.0,0.0,0.0,0.0,0.0,-4.0245,-4.0939,-4.1393,-4.1393,-4.1949,-4.252,-4.252,-4.252,-4.2395,0.0,0.0,0.0,0.0,0.0,0.0,0.0,0.0,0.0,0.0,0.0,0.0,0.0,0.0,0.0,0.0,0.0,0.0,0.0,0.0,0.0,-4.2092,-4.2092,-4.2092,-4.2092,-4.2092,-4.2092,-4.2092,-4.2092,-4.214,-4.2056,-4.2058,-4.2092,-4.2092,-4.2092,-4.2136,-4.2111,0.0,-4.2763,-4.3843,-4.3819,-4.4254,-4.4981,-4.5669,-4.5859,-4.5933,-4.6344,-4.6255,-4.602,0.0,0.0,0.0,0.0,0.0,0.0,0.0,0.0,0.0,0.0,0.0,0.0,0.0,0.0,0.0,0.0,0.0,0.0,0.0,-3.8764,-3.9457,-3.9238,-3.9036,-3.898,-3.9125,-3.877,-3.8554,-3.851,-3.8104,-3.765,-3.7208,-3.6597,-3.6174,-3.6027,-3.6547,-3.6912,-3.7158,-3.7836,-3.8143,-3.813,0.0,0.0,0.0,0.0,0.0,0.0,0.0,0.0,0.0,0.0,0.0,0.0,0.0,0.0,0.0,-3.7107,-3.7861,-3.8616,-3.9139,-3.9893,-4.0524,-4.0524,-4.1276,-4.2013,-4.2013,-4.1949,-4.1821,0.0,0.0,0.0,0.0,0.0,0.0,0.0,0.0,0.0,0.0,0.0,0.0,0.0,0.0,0.0,0.0,0.0,0.0,0.0,0.0,0.0,-4.2092,-4.2092,-4.2092,-4.2092,-4.2092,-4.2092,-4.2092,-4.2092,-4.2092,-4.2092,-4.2092,-4.2092,-4.2092,-4.2092,-4.2092,-4.2107,-4.206,-4.2062,-4.2091,-4.2138,-4.2797,-4.3949,-4.4662,-4.5347,-4.5931,-4.5903,-4.5873,-4.5991,0.0,0.0,0.0,0.0,0.0,0.0,0.0,0.0,0.0,0.0,0.0,0.0,0.0,0.0,0.0,0.0,0.0,0.0,-3.7566,-3.8507,-3.9036,-3.9036,-3.8759,-3.8646,-3.8658,-3.8615,-3.8478,-3.8225,-3.7413,-3.6799,-3.6385,-3.6343,-3.6663,-3.7249,-3.6951,-3.7278,-3.7998,-3.8046,-3.8159,-3.8213,-3.7663,0.0,0.0,0.0,0.0,0.0,0.0,0.0,0.0,0.0,0.0,0.0,0.0,0.0,-3.6507,-3.6553,-3.7492,-3.8523,-3.8569,-3.9539,-4.0524,-4.0524,-4.0593,-4.0646,-4.0646,-4.0422,-4.0341,-4.0997,0.0,0.0,0.0,0.0,0.0,0.0,0.0,0.0,0.0,0.0,0.0,0.0,0.0,0.0,0.0,0.0,0.0,0.0,0.0,0.0,-4.2063,-4.2092,-4.2092,-4.2092,-4.2092,-4.2092,-4.2092,-4.2092,-4.2092,-4.2092,-4.2092,-4.2092,-4.2092,-4.2092,-4.2092,-4.2092,-4.2121,-4.2121,-4.2067,-4.2077,-4.262,-4.3294,-4.2639,-4.3835,-4.5942,-4.587,-4.5898,-4.588,0.0,0.0,0.0,0.0,0.0,0.0,0.0,0.0,0.0,0.0,0.0,-3.5191,-3.5209,0.0,0.0,0.0,0.0,0.0,-3.6981,-3.8108,-3.8688,-3.8491,-3.8401,-3.8219,-3.7929,-3.7929,-3.7879,-3.7756,-3.6939,-3.6451,-3.6301,-3.6498,-3.674,-3.7047,-3.7446,-3.7803,-3.8077,-3.7822,-3.7655,-3.7679,-3.7058,-3.6831,0.0,0.0,0.0,0.0,0.0,0.0,0.0,0.0,-3.6492,-3.6492,-3.6492,-3.6492,-3.6492,-3.6492,-3.7446,-3.8508,-3.8508,-3.9493,-4.0524,-4.0524,-4.0524,-4.0524,-4.0524,-4.0256,-4.0037,-4.0101,-4.0146,0.0,0.0,0.0,0.0,0.0,0.0,0.0,0.0,0.0,0.0,0.0,0.0,0.0,0.0,0.0,0.0,0.0,0.0,0.0,-4.1439,-4.1482,-4.1671,-4.2092,-4.2092,-4.2092,-4.2092,-4.2092,-4.2092,-4.2092,-4.2092,-4.2092,-4.2092,-4.2092,-4.2092,-4.2092,-4.2092,-4.2092,-4.2107,-4.2125,-4.2256,-4.2528,-4.2593,-4.3472,-4.4732,-4.4732,-4.4253,-4.3574,0.0,0.0,0.0,0.0,0.0,0.0,0.0,0.0,-3.5407,0.0,0.0,0.0,0.0,-3.5081,0.0,0.0,0.0,0.0,-3.6604,-3.7794,-3.8382,-3.8153,-3.8036,-3.7774,-3.7321,-3.7208,-3.717,-3.7321,-3.6638,-3.6337,-3.6465,-3.6518,-3.6885,-3.7516,-3.7716,-3.7965,-3.8142,-3.7588,-3.7298,-3.7074,-3.6662,-3.6492,0.0,0.0,0.0,0.0,0.0,0.0,0.0,0.0,-3.6492,-3.6492,-3.6492,-3.6492,-3.6492,-3.6492,-3.7292,-3.8231,-3.8446,-3.9339,-4.0262,-4.0478,-4.0524,-4.0478,-4.0262,-3.9931,-3.9567,-3.917,-3.9154,-3.9406,-4.0115,0.0,0.0,0.0,0.0,0.0,0.0,0.0,0.0,0.0,0.0,0.0,0.0,0.0,0.0,0.0,0.0,0.0,0.0,-4.0894,-4.1213,-4.1758,-4.199,-4.2092,-4.2092,-4.1814,-4.1633,-4.1633,-4.1633,-4.1814,-4.2092,-4.2092,-4.2092,-4.2092,-4.2092,-4.2092,-4.2092,-4.2092,-4.2092,-4.2136,-4.2542,-4.2992,-4.3398,-4.3398,-4.2839,-4.2081,0.0,0.0,0.0,0.0,0.0,0.0,0.0,0.0,-3.5343,-3.4945,-3.4901,0.0,0.0,0.0,0.0,0.0,0.0,0.0,-3.6567,-3.7582,-3.8119,-3.7993,-3.7685,-3.7321,-3.69,-3.6492,-3.6492,-3.69,-3.6492,-3.6456,-3.6789,-3.6187,-3.7019,-3.8939,-3.7744,-3.7591,-3.8222,-3.7621,-3.7074,-3.6492,-3.6492,-3.6492,-3.6492,0.0,0.0,0.0,0.0,0.0,0.0,0.0,-3.6492,-3.6492,-3.6492,-3.6492,-3.6492,-3.6492,-3.6969,-3.7646,-3.8323,-3.9016,-3.9693,0.0,0.0,0.0,-3.9662,-3.9249,-3.8867,-3.8284,-3.7788,-3.7578,-3.8267,-3.7794,0.0,-3.8086,0.0,0.0,0.0,0.0,0.0,0.0,0.0,0.0,0.0,0.0,0.0,0.0,0.0,0.0,0.0,-4.0406,-4.0914,-4.1091,-4.1744,-4.2092,-4.2092,-4.1057,-4.0603,-4.0603,-4.0603,-4.1071,-4.2092,-4.2092,-4.2092,-4.2092,-4.2092,-4.2092,-4.2092,-4.2092,-4.2092,-4.2092,-4.2092,-4.2092,-4.2092,-4.2092,-4.2092,-4.2092,0.0,0.0,0.0,0.0,0.0,0.0,0.0,0.0,-3.5038,-3.492,-3.4698,0.0,0.0,0.0,0.0,0.0,0.0,0.0,-3.586,-3.7009,-3.7542,-3.7248,-3.7114,-3.69,-3.6492,-3.6045,-3.5871,-3.5985,-3.6416,-3.669,-3.6806,-3.7694,-3.8187,-3.8352,-3.809,-3.7874,-3.7637,-3.7013,-3.6662,-3.6492,-3.6492,-3.6492,-3.6492,0.0,0.0,0.0,0.0,0.0,0.0,0.0,0.0,0.0,-3.6492,-3.6492,-3.6492,-3.6492,-3.7307,-3.8262,-3.8462,-3.9084,0.0,0.0,0.0,0.0,0.0,-3.8335,0.0,0.0,-3.6872,-3.6526,-3.7178,0.0,0.0,0.0,0.0,0.0,0.0,0.0,0.0,0.0,0.0,0.0,0.0,0.0,0.0,0.0,0.0,0.0,0.0,-3.9247,-3.9496,-3.9592,-4.0761,-4.0896,-3.9798,-4.0332,-4.0246,-3.9637,-3.9637,-4.0087,-4.1057,-4.1814,-4.1717,-4.1057,-4.1057,-4.0631,-4.01,-4.0802,-4.1057,-4.1156,-4.1814,-4.2092,-4.2092,-4.2092,-4.2092,-4.2092,0.0,0.0,0.0,0.0,0.0,0.0,-3.4789,-3.4682,-3.4574,-3.4504,-3.4344,-3.4252,0.0,0.0,0.0,0.0,0.0,0.0,-3.5397,-3.656,-3.7152,-3.69,-3.6759,-3.6474,-3.6045,-3.5739,-3.5774,-3.6079,-3.6552,-3.6941,-3.7263,-3.8218,-3.8588,-3.8507,-3.81,-3.7738,-3.7358,-3.6785,-3.6492,-3.6492,-3.6492,-3.6492,-3.6492,0.0,0.0,0.0,0.0,0.0,0.0,0.0,0.0,0.0,-3.6492,-3.6492,-3.6429,-3.6226,-3.6728,-3.7475,-3.7728,0.0,0.0,0.0,0.0,0.0,0.0,0.0,0.0,0.0,0.0,0.0,0.0,0.0,0.0,0.0,0.0,0.0,0.0,0.0,0.0,0.0,0.0,0.0,0.0,0.0,0.0,0.0,0.0,0.0,0.0,-3.7737,-3.7782,-3.8242,-3.9257,-3.9338,-3.8451,-3.9061,-3.9108,-3.8689,-3.8689,-3.8944,-3.9549,-4.046,-4.0631,-4.0073,-4.0073,-3.9899,-3.9812,-4.0332,-4.0873,-4.1254,-4.1437,-4.1748,-4.2103,-4.2103,-4.2103,-4.2074,0.0,0.0,-3.3908,-3.3771,0.0,0.0,-3.3688,-3.3963,-3.4117,-3.3913,-3.3889,-3.3963,0.0,0.0,0.0,-3.3243,0.0,0.0,-3.5188,-3.6227,-3.6821,-3.6781,-3.6451,-3.6002,-3.5532,-3.5532,-3.5903,-3.6616,-3.6793,-3.7263,-3.8024,-3.8136,-3.856,-3.9082,-3.7911,-3.7358,-3.7298,-3.6723,-3.6492,-3.6492,-3.6492,-3.6492,-3.6492,-3.6492,0.0,0.0,0.0,0.0,0.0,0.0,0.0,0.0,-3.6492,-3.6492,-3.6352,-3.5816,-3.5733,-3.5839,-3.6547,0.0,0.0,0.0,0.0,0.0,0.0,0.0,0.0,0.0,0.0,0.0,0.0,0.0,0.0,0.0,0.0,0.0,0.0,0.0,0.0,0.0,0.0,0.0,0.0,0.0,0.0,0.0,0.0,0.0,0.0,-3.6076,-3.5959,-3.6988,-3.7371,-3.7557,-3.7664,-3.7416,-3.7363,-3.7625,-3.7625,-3.7625,-3.7625,-3.8675,-3.9121,-3.9033,-3.893,-3.9461,-4.0332,-4.0332,-4.0986,-4.1814,-4.0873,-4.1014,-4.181,-4.1867,-4.2024,-4.2095,0.0,0.0,-3.337,-3.3339,0.0,0.0,-3.3486,-3.375,-3.3947,-3.3907,-3.385,-3.3715,-3.3441,-3.316,0.0,-3.3351,-3.4182,0.0,-3.5092,-3.5931,-3.6284,-3.5898,-3.5783,-3.5498,-3.4975,-3.4975,-3.5116,-3.5362,-3.6932,-3.8041,-3.8785,-3.8904,-3.8826,-3.8463,-3.7754,-3.7134,-3.6662,-3.6554,-3.6492,-3.6492,-3.6492,-3.6492,-3.6492,-3.6492,-3.6492,0.0,0.0,0.0,0.0,0.0,0.0,0.0,-3.6492,-3.6226,-3.5816,-3.5752,-3.5774,-3.5904,0.0,-3.6526,0.0,0.0,0.0,0.0,0.0,0.0,0.0,0.0,0.0,0.0,0.0,0.0,0.0,0.0,0.0,0.0,0.0,0.0,0.0,0.0,0.0,0.0,0.0,0.0,0.0,0.0,0.0,0.0,-3.599,-3.5263,-3.5033,-3.5508,-3.6071,-3.5953,-3.5201,-3.604,-3.6332,0.0,-3.6275,-3.637,-3.6465,-3.8328,-3.8765,-3.8069,-3.7348,-3.752,-3.8419,-3.8419,-3.9387,-4.0788,-3.9899,-3.9335,-3.9222,-4.0236,-4.127,-4.2095,0.0,0.0,0.0,0.0,0.0,0.0,0.0,0.0,-3.3372,-3.3368,-3.3212,-3.3057,-3.2991,-3.2745,0.0,0.0,-3.3958,-3.4532,-3.5111,-3.5659,-3.5888,-3.5622,-3.5622,-3.547,-3.5178,-3.5576,-3.5808,-3.5953,-3.7336,-3.802,-3.8129,-3.8858,-3.8739,-3.7854,-3.7519,-3.7058,-3.6492,-3.6492,-3.6492,-3.6492,-3.6492,-3.6492,-3.6492,-3.6492,-3.6492,-3.6492,-3.6492,0.0,0.0,0.0,0.0,0.0,0.0,0.0,-3.5623,-3.5415,-3.5193,-3.5044,0.0,0.0,0.0,0.0,0.0,0.0,0.0,0.0,0.0,0.0,0.0,0.0,0.0,0.0,0.0,0.0,0.0,0.0,0.0,0.0,0.0,0.0,0.0,0.0,0.0,0.0,0.0,0.0,0.0,-3.4568,-3.4992,-3.3888,-3.3449,-3.4097,-3.4193,-3.4098,-3.363,-3.4768,-3.5282,-3.5227,-3.5784,-3.6098,-3.6181,-3.7348,-3.7612,-3.7083,-3.6628,-3.6909,-3.7808,-3.7808,-3.8689,-3.9812,-3.8944,-3.8399,-3.8397,-3.9033,-4.0437,-4.2137,0.0,0.0,0.0,0.0,0.0,0.0,0.0,0.0,0.0,-3.2699,-3.2468,-3.2368,-3.2601,-3.2491,-3.2651,0.0,0.0,0.0,-3.5218,-3.5487,-3.5622,-3.5622,-3.5622,-3.5577,-3.547,-3.6118,-3.6569,-3.6713,-3.7436,-3.7579,-3.7118,-3.8313,-3.8367,-3.7417,-3.7298,-3.6952,-3.6492,-3.6492,-3.6492,-3.6492,-3.6492,-3.6492,-3.6492,-3.6492,-3.6492,-3.6492,-3.6492,-3.6492,-3.6492,-3.6492,0.0,0.0,0.0,0.0,-3.535,-3.4876,-3.4341,-3.3994,0.0,0.0,0.0,0.0,0.0,0.0,0.0,0.0,0.0,0.0,0.0,0.0,0.0,0.0,0.0,0.0,0.0,0.0,0.0,0.0,0.0,0.0,0.0,0.0,0.0,0.0,0.0,0.0,0.0,-3.331,-3.4056,-3.2575,-3.2077,-3.2993,-3.2616,-3.2473,-3.2713,-3.3611,-3.425,-3.4621,-3.5553,-3.6098,-3.6358,-3.6358,-3.6358,-3.6358,-3.6358,-3.6909,-3.7808,-3.7625,-3.8238,-3.9121,-3.7978,-3.7795,-3.8227,-3.8372,-3.9878,-4.1783,0.0,0.0,0.0,0.0,0.0,0.0,0.0,0.0,0.0,0.0,-3.2317,-3.2162,-3.1896,-3.2429,-3.2982,-3.3393,-3.4041,-3.4745,-3.5508,0.0,0.0,-3.5622,-3.5622,-3.5379,-3.4927,-3.5136,-3.534,-3.5538,-3.6253,-3.6632,-3.6584,-3.731,-3.7578,-3.7358,-3.6831,-3.6554,-3.6492,-3.6492,-3.6492,-3.6492,-3.6492,-3.6492,-3.6492,-3.6492,-3.6492,-3.6492,-3.6492,-3.6492,-3.6492,-3.6492,-3.6226,0.0,0.0,0.0,-3.4274,-3.4221,-3.3825,-3.3396,0.0,0.0,0.0,0.0,0.0,0.0,0.0,0.0,0.0,0.0,0.0,0.0,0.0,0.0,0.0,0.0,0.0,0.0,0.0,0.0,0.0,0.0,0.0,0.0,0.0,0.0,0.0,0.0,-3.3152,-3.3066,-3.3152,-3.2239,-3.2077,-3.2993,-3.2237,-3.201,-3.2581,-3.2726,-3.3256,-3.4137,-3.5171,-3.5895,-3.6358,-3.6358,-3.6358,-3.6358,-3.6358,-3.6909,-3.7717,-3.6896,-3.7612,-3.9033,-3.7256,-3.7095,-3.8018,-3.8827,-3.9694,-4.0655,0.0,0.0,0.0,0.0,0.0,0.0,0.0,0.0,0.0,0.0,0.0,-3.1866,-3.2334,-3.2505,-3.3071,-3.425,-3.4432,-3.481,-3.5571,-3.5622,-3.5622,-3.5622,-3.5316,-3.5221,-3.5414,-3.5605,-3.5738,-3.5843,-3.6611,-3.682,-3.6492,-3.6785,-3.6892,-3.6892,-3.6616,-3.6492,-3.6492,-3.6492,-3.6492,-3.6492,-3.6492,-3.6492,-3.6492,-3.6492,-3.6492,-3.6492,-3.6492,-3.6492,-3.6492,-3.6492,-3.6352,-3.6163,-3.6163,0.0,0.0,0.0,-3.3962,0.0,-3.3326,0.0,0.0,0.0,0.0,0.0,0.0,0.0,0.0,0.0,0.0,0.0,0.0,0.0,0.0,0.0,0.0,0.0,0.0,0.0,0.0,0.0,0.0,0.0,0.0,0.0,0.0,0.0,-3.2575,-3.2239,-3.2239,-3.1913,-3.1925,-3.2239,-3.1913,-3.1781,-3.2034,-3.2346,-3.3112,-3.4231,-3.4854,-3.5515,-3.6193,-3.637,-3.6358,-3.6358,-3.6358,-3.6628,-3.6989,-3.6546,-3.6896,-3.752,-3.6722,-3.664,-3.7083,-3.8069,-3.8589,-3.9083,0.0,0.0,0.0,0.0,0.0,0.0,0.0,0.0,0.0,0.0,0.0,-3.1868,-3.2916,0.0,0.0,0.0,-3.4788,-3.5013,-3.5588,-3.547,-3.5424,-3.5424,-3.5046,-3.5103,-3.5679,-3.6064,-3.623,-3.6301,-3.6892,-3.6952,-3.6492,-3.6492,-3.6492,-3.6492,-3.6492,-3.6492,-3.6492,-3.6492,-3.6492,-3.6492,-3.6492,-3.6492,-3.6492,-3.6492,-3.6492,-3.6492,-3.6492,-3.6492,-3.6492,-3.6352,-3.6226,-3.6085,-3.5958,-3.5219,0.0,0.0,0.0,-3.3326,0.0,0.0,0.0,0.0,0.0,0.0,0.0,0.0,0.0,0.0,0.0,0.0,0.0,0.0,0.0,0.0,0.0,0.0,0.0,0.0,0.0,0.0,0.0,0.0,0.0,0.0,0.0,0.0,-3.2077,-3.1661,-3.1661,-3.1661,-3.1661,-3.1661,-3.1661,-3.1661,-3.1661,-3.2214,-3.2967,-3.4007,-3.4487,-3.5018,-3.5709,-3.6118,-3.6275,-3.6275,-3.6358,-3.6358,-3.6358,-3.6358,-3.6358,-3.6358,-3.6358,-3.6358,-3.6546,-3.7441,-3.7808,-3.8018,0.0,0.0,0.0,0.0,0.0,0.0,0.0,0.0,0.0,0.0,0.0,-3.2551,-3.3313,-3.3964,-3.4213,-3.3798,-3.4846,-3.5571,-3.5622,-3.5115,-3.4833,-3.4833,-3.4954,0.0,-3.5056,-3.5864,-3.6327,-3.6301,-3.6443,-3.6554,-3.6492,-3.6492,-3.6492,-3.6492,-3.6492,-3.6492,-3.6492,-3.6492,-3.6492,-3.6492,-3.6492,-3.6492,-3.6492,-3.6492,-3.6492,-3.6492,-3.6492,-3.6492,-3.6429,-3.5879,-3.5415,-3.4876,-3.4409,-3.3825,-3.3382,0.0,0.0,0.0,0.0,-3.3326,0.0,0.0,0.0,0.0,0.0,0.0,0.0,0.0,0.0,0.0,0.0,0.0,0.0,0.0,0.0,0.0,0.0,0.0,0.0,0.0,0.0,0.0,0.0,0.0,0.0,0.0,-3.1749,-3.1661,-3.1661,-3.1661,-3.1661,-3.1661,-3.1661,-3.1661,-3.1661,-3.2214,-3.2593,-3.2889,-3.3922,-3.4539,-3.4871,-3.5672,-3.6015,-3.6015,-3.6275,-3.6358,-3.6358,-3.6358,-3.6358,-3.6358,-3.6358,-3.6358,-3.6546,-3.7441,-3.7808,-3.79,0.0,0.0,0.0,0.0,0.0,0.0,0.0,0.0,0.0,0.0,0.0,0.0,0.0,-3.404,-3.4258,-3.488,-3.5011,-3.4927,-3.4577,-3.4738,-3.4823,-3.4904,-3.4978,-3.5246,-3.5832,-3.5817,-3.5978,-3.6412,-3.6492,-3.6492,-3.6492,-3.6492,-3.6492,-3.6492,-3.6492,-3.6492,-3.6492,-3.6492,-3.6492,-3.6492,-3.6492,-3.6492,-3.6492,-3.6492,-3.6492,-3.6492,0.0,0.0,-3.5958,-3.5752,-3.535,-3.489,-3.4677,-3.4221,-3.377,-3.3382,-3.3326,-3.3326,-3.3326,0.0,0.0,0.0,0.0,0.0,0.0,0.0,0.0,0.0,0.0,0.0,0.0,0.0,0.0,0.0,0.0,0.0,0.0,0.0,0.0,0.0,0.0,0.0,0.0,0.0,0.0,0.0,0.0,-3.1661,-3.1661,-3.1661,-3.1661,-3.1661,-3.1661,-3.1661,-3.1661,-3.1865,-3.2219,-3.2569,-3.3101,-3.374,-3.4527,-3.5182,-3.5655,-3.6015,-3.6275,-3.6358,-3.6358,-3.6358,-3.6358,-3.6358,-3.6358,-3.6358,-3.6452,-3.6815,-3.6909,-3.6909,0.0,0.0,0.0,0.0,0.0,-3.1466,-3.1148,-3.1867,-3.2479,-3.2757,0.0,0.0,0.0,0.0,-3.4333,-3.4971,-3.4721,-3.4497,-3.4392,-3.4527,-3.4734,-3.508,-3.5154,-3.5466,-3.6009,-3.5701,-3.5814,-3.6492,-3.6261,-3.6261,-3.6492,-3.6492,-3.6492,-3.6492,-3.6492,-3.6492,-3.6492,-3.6492,-3.6492,-3.6492,-3.6492,-3.6492,-3.6492,-3.6289,-3.6352,0.0,0.0,0.0,0.0,0.0,-3.5219,-3.481,-3.4491,-3.4099,-3.3756,-3.3382,-3.3326,-3.3326,-3.3326,-3.3326,0.0,0.0,0.0,0.0,0.0,0.0,0.0,0.0,0.0,0.0,0.0,0.0,0.0,0.0,0.0,0.0,0.0,0.0,0.0,0.0,0.0,0.0,0.0,0.0,0.0,0.0,0.0,0.0,-3.1661,-3.1661,-3.1661,-3.1661,-3.1661,-3.1661,-3.1661,-3.1661,-3.1853,-3.2226,-3.2551,-3.3101,-3.3817,-3.4531,-3.5088,-3.5458,-3.6011,-3.637,-3.6358,-3.6358,-3.6358,-3.6358,-3.6358,-3.6358,-3.6358,-3.6358,-3.6358,-3.6358,0.0,0.0,-3.0477,-3.051,-3.1482,-3.2249,-3.2266,-3.245,-3.2854,-3.3578,0.0,0.0,0.0,0.0,0.0,-3.4052,-3.4018,-3.4325,-3.5033,-3.4558,-3.4534,-3.5259,-3.5462,-3.5552,-3.5507,-3.5507,-3.583,-3.6492,-3.583,-3.5845,-3.6492,-3.6492,-3.6492,-3.6492,-3.6492,-3.6492,-3.6492,-3.6492,-3.6492,-3.6492,-3.6492,-3.6492,-3.6414,-3.5958,0.0,0.0,-3.5879,-3.6022,0.0,-3.5219,0.0,0.0,0.0,-3.3326,-3.3326,-3.3326,-3.3326,-3.3326,0.0,0.0,0.0,0.0,0.0,0.0,0.0,0.0,0.0,0.0,0.0,0.0,0.0,0.0,0.0,0.0,0.0,0.0,0.0,0.0,0.0,0.0,0.0,0.0,0.0,0.0,0.0,0.0,-3.0855,-3.1096,-3.1613,-3.1661,-3.1661,-3.1661,-3.1661,-3.1661,-3.1661,-3.1661,-3.1661,-3.1673,-3.2214,-3.2478,-3.2539,-3.3829,-3.4396,-3.4457,-3.547,-3.6086,-3.6358,-3.6358,-3.6358,-3.6358,-3.6358,-3.6358,-3.6358,-3.6358,-3.6358,-3.6358,0.0,-2.9881,-3.0043,-3.0186,-3.0762,-3.125,-3.1433,-3.2206,-3.2868,0.0,0.0,0.0,-3.3953,-3.4136,-3.418,-3.416,-3.4155,-3.4311,-3.4638,-3.4879,-3.5122,-3.545,-3.5873,-3.6097,-3.6199,-3.6215,-3.6307,-3.6492,-3.6307,-3.6307,-3.6492,-3.6492,-3.6492,-3.6492,-3.6492,-3.6492,-3.6492,-3.6492,-3.6492,-3.6492,-3.6492,-3.6492,0.0,0.0,0.0,0.0,0.0,-3.5559,-3.5219,0.0,-3.4085,-3.3716,0.0,-3.3326,-3.3326,-3.3326,-3.3326,-3.3326,-3.3326,0.0,0.0,0.0,0.0,0.0,0.0,-2.9845,0.0,0.0,0.0,0.0,0.0,0.0,0.0,0.0,0.0,0.0,0.0,0.0,0.0,0.0,0.0,0.0,0.0,0.0,0.0,0.0,-3.0446,-3.0939,-3.1084,-3.1456,-3.1661,-3.1661,-3.1661,-3.1661,-3.1661,-3.1661,-3.1661,-3.1661,-3.1817,-3.2106,-3.2503,-3.3041,-3.3679,-3.4433,-3.4875,-3.5536,-3.6098,-3.637,-3.6358,-3.6358,-3.6358,-3.6358,-3.6358,-3.6358,-3.6358,-3.6358,-2.9562,-2.9795,-3.0048,-3.0465,-3.1166,-3.1725,-3.1853,-3.2492,-3.304,0.0,0.0,0.0,-3.4014,-3.4098,-3.4139,-3.4304,-3.4533,-3.472,-3.4904,-3.5214,-3.5525,-3.5876,-3.624,-3.6426,-3.6476,-3.6215,-3.6215,-3.6492,-3.6215,-3.6215,-3.6492,-3.6492,-3.6492,-3.6492,-3.6492,-3.6492,-3.6492,-3.6289,-3.6289,0.0,-3.6492,0.0,0.0,-3.6022,-3.6085,0.0,0.0,0.0,-3.5154,-3.4341,-3.377,0.0,0.0,0.0,-3.3326,-3.3326,-3.3326,-3.3326,-3.3326,-3.3326,-3.3241,-3.286,0.0,0.0,-3.0519,-2.9704,-2.8882,0.0,0.0,0.0,0.0,0.0,0.0,0.0,0.0,0.0,0.0,0.0,0.0,0.0,0.0,0.0,0.0,-2.7941,-2.855,-2.8763,-2.9343,-2.9703,-2.9764,-3.0997,-3.1484,-3.1104,-3.1472,-3.1661,-3.1661,-3.1661,-3.1661,-3.1661,-3.1661,-3.1841,-3.2166,-3.2539,-3.2986,-3.3615,-3.4332,-3.4899,-3.5396,-3.5904,-3.6181,-3.6358,-3.6358,-3.6358,-3.6358,-3.6358,-3.6358,-3.6358,0.0,-2.9837,-3.0352,-3.0995,-3.201,-3.2788,-3.2803,-3.2994,-3.3093,0.0,-3.3156,-3.3471,-3.4164,-3.4242,-3.4335,-3.458,-3.5076,-3.5415,-3.5613,-3.5599,-3.5861,-3.6461,-3.6492,-3.6492,-3.6492,-3.5907,-3.5891,-3.6492,-3.5891,-3.5907,-3.6492,-3.6492,-3.6492,-3.6492,-3.6429,-3.6429,-3.6367,-3.5816,0.0,-3.6289,-3.6289,-3.6352,0.0,0.0,-3.5544,-3.6226,-3.4677,-3.4677,-3.535,-3.4341,-3.3701,0.0,0.0,0.0,0.0,0.0,-3.3326,-3.3326,-3.3326,-3.3241,-3.3016,-3.2304,-3.2001,0.0,-2.9999,-2.9626,-2.9328,0.0,0.0,0.0,0.0,0.0,0.0,0.0,0.0,0.0,0.0,0.0,0.0,0.0,0.0,0.0,-2.5484,-2.6423,-2.7193,-2.7733,-2.7813,-2.7929,-2.8107,-3.0128,-3.0944,-3.0068,-3.0913,-3.1383,-3.1383,-3.1472,-3.156,-3.156,-3.1661,-3.1661,-3.1685,-3.2178,-3.2442,-3.2551,-3.3663,-3.4217,-3.4469,-3.5135,-3.5846,-3.6263,-3.6263,-3.6263,-3.6263,-3.6358,-3.6358,-3.6358,-3.0197,-3.0264,-3.0567,-3.1217,-3.1554,-3.1856,-3.2415,-3.2509,-3.2547,-3.2547,-3.3027,-3.363,-3.4342,-3.4419,-3.4639,-3.5214,-3.5396,-3.5674,-3.6245,-3.6292,-3.6353,-3.6492,-3.6492,-3.6492,-3.6492,-3.6368,-3.6368,-3.6492,-3.6368,-3.6368,-3.6492,-3.6492,-3.6492,-3.6492,-3.6022,-3.5879,-3.5816,-3.5285,0.0,-3.5219,-3.5219,0.0,-3.5816,-3.5154,-3.5285,-3.5688,-3.4543,-3.4206,-3.4274,-3.3701,-3.3382,-3.3326,0.0,0.0,0.0,-3.3326,0.0,0.0,-3.3326,-3.2846,0.0,0.0,0.0,0.0,-2.9768,-2.9184,-2.8657,0.0,0.0,0.0,0.0,0.0,0.0,0.0,0.0,0.0,0.0,0.0,0.0,0.0,0.0,0.0,-2.521,-2.5557,-2.5863,-2.5961,-2.6576,-2.7227,-2.8017,-2.8521,-2.8845,-2.8947,-2.9143,-2.9326,-2.9326,-3.0068,-3.0441,-3.0543,-3.1294,-3.1661,-3.1661,-3.1781,-3.207,-3.2515,-3.2719,-3.3458,-3.4433,-3.4542,-3.5132,-3.58,-3.58,-3.58,-3.58,-3.6003,-3.6098,-3.6098,-3.0843,-3.0905,-3.1105,-3.1767,-3.189,-3.1997,-3.2336,-3.2398,-3.2521,-3.2844,-3.3506,-3.4257,-3.5112,-3.5087,-3.5305,-3.6181,-3.6243,-3.6322,-3.6476,-3.6693,-3.6677,-3.6492,-3.6492,-3.6492,-3.6492,-3.6492,-3.6492,-3.6492,-3.6492,-3.6492,-3.6492,-3.6492,-3.6492,-3.6492,-3.5958,-3.5688,-3.5623,-3.481,-3.4476,-3.4543,-3.481,0.0,-3.5219,-3.4677,-3.481,-3.5154,-3.4099,-3.3701,-3.3632,-3.3382,-3.3326,0.0,0.0,-3.3326,-3.3326,0.0,-3.3326,-3.3241,0.0,0.0,0.0,-3.1106,0.0,0.0,0.0,-2.8803,-2.851,0.0,0.0,0.0,0.0,0.0,0.0,0.0,0.0,0.0,0.0,0.0,0.0,0.0,0.0,0.0,-2.3617,-2.4444,-2.5083,-2.5179,-2.6055,-2.64,-2.6003,-2.736,-2.7989,-2.7676,-2.8364,-2.868,-2.868,-2.9235,-2.9704,-3.017,-3.017,-3.0734,-3.1661,-3.1193,-3.1347,-3.2094,-3.2382,-3.2883,-3.3494,-3.4014,-3.4389,-3.4858,-3.5414,-3.562,-3.562,-3.5908,-3.6015,-3.6015,-3.1474,-3.1582,-3.1751,-3.2305,-3.2398,-3.2428,-3.2567,-3.2582,-3.2875,-3.3748,-3.4423,-3.5143,-3.6107,-3.6022,-3.6195,-3.7013,-3.706,-3.6923,-3.6616,-3.6877,-3.6877,-3.6492,-3.6492,-3.6492,-3.6492,-3.6492,-3.6492,-3.6492,-3.6492,-3.6492,-3.6492,-3.6414,-3.6352,-3.6289,-3.5688,-3.5415,-3.535,-3.4356,0.0,-3.3948,0.0,-3.4624,-3.4677,-3.4153,-3.4288,-3.461,-3.3646,-3.3326,-3.3326,-3.3326,-3.3326,-3.3326,-3.3326,-3.3326,0.0,0.0,0.0,0.0,0.0,0.0,0.0,0.0,0.0,-2.9328,0.0,0.0,0.0,0.0,0.0,0.0,0.0,0.0,0.0,0.0,0.0,0.0,0.0,0.0,0.0,0.0,0.0,0.0,0.0,-2.3184,-2.4115,-2.4502,-2.5411,-2.5232,-2.375,-2.5913,-2.696,-2.6465,-2.744,-2.8036,-2.8121,-2.8308,-2.8866,-2.9601,-2.8958,-2.951,-3.1104,-3.0441,-3.0633,-3.1407,-3.2052,-3.2394,-3.2563,-3.3404,-3.3861,-3.409,-3.5112,-3.5428,-3.5524,-3.5716,-3.592,-3.6003,-3.2259,-3.2275,-3.2305,-3.2382,-3.2398,-3.2598,-3.3198,-3.329,-3.3867,-3.54,-3.5708,-3.6123,-3.7109,-3.7172,-3.7219,-3.7358,-3.7358,-3.727,-3.6938,-3.6954,-3.6877,-3.6492,-3.6492,-3.6492,-3.6492,-3.6492,-3.6492,-3.6492,-3.6492,-3.6492,-3.6492,-3.6022,-3.5816,-3.5752,-3.4743,-3.4274,-3.4206,0.0,-3.3382,0.0,-3.3452,-3.377,0.0,-3.3577,-3.3701,-3.407,-3.3507,-3.3326,-3.3326,0.0,-3.3326,-3.3326,0.0,-3.3326,-3.3326,0.0,0.0,0.0,0.0,0.0,0.0,0.0,-2.9184,0.0,0.0,0.0,0.0,0.0,0.0,0.0,0.0,0.0,0.0,0.0,0.0,0.0,0.0,0.0,0.0,0.0,0.0,0.0,0.0,-2.1887,-2.2366,-2.3223,-2.3388,-2.3418,-2.3175,-2.3451,-2.43,-2.5734,-2.562,-2.5704,-2.6004,-2.6914,-2.7474,-2.7558,-2.8308,-2.8866,-2.905,-2.9886,-3.026,-3.0453,-3.1354,-3.2046,-3.2515,-3.2623,-3.3212,-3.409,-3.4619,-3.492,-3.4932,-3.5223,-3.5416,-3.5716,-3.2398,-3.2398,-3.2398,-3.2398,-3.2721,-3.3075,-3.3367,-3.4091,-3.4873,-3.5579,-3.5997,-3.6459,-3.7118,-3.7165,0.0,-3.7417,0.0,-3.7492,0.0,0.0,-3.7029,-3.6492,-3.6492,-3.6492,-3.6492,-3.6492,-3.6492,-3.6492,-3.6226,-3.6022,-3.6022,-3.5479,-3.5219,-3.5219,-3.4409,0.0,-3.407,0.0,-3.3326,0.0,0.0,0.0,0.0,-3.3382,-3.3452,-3.3646,-3.3382,-3.3326,-3.3326,0.0,-3.3326,0.0,0.0,0.0,0.0,0.0,0.0,0.0,0.0,0.0,0.0,0.0,0.0,0.0,-2.851,0.0,-2.851,0.0,0.0,0.0,0.0,0.0,0.0,0.0,-2.6396,0.0,0.0,0.0,0.0,0.0,0.0,0.0,0.0,0.0,0.0,0.0,-2.3106,-2.3115,-2.3065,-2.307,-2.3457,-2.4176,-2.4692,-2.5139,-2.5352,-2.5799,-2.6374,-2.7189,-2.7652,-2.8121,-2.868,-2.9143,-2.9612,-3.026,-3.0633,-3.1324,-3.2034,-3.237,-3.2755,-3.3224,-3.4054,-3.4559,-3.4835,-3.5126,-3.5223,-3.5428,-3.3064,-3.2854,-3.2736,-3.2921,-3.3367,-3.3752,-3.3952,-3.5058,-3.589,-3.589,-3.6307,-3.68,-3.7225,-3.7225,0.0,0.0,-3.7902,-3.7786,0.0,0.0,-3.7178,-3.6785,-3.6616,0.0,0.0,-3.6554,-3.6492,-3.6492,-3.5943,-3.5688,-3.5688,-3.5023,-3.4677,-3.4677,-3.4085,-3.3894,-3.3825,0.0,0.0,-3.3326,-3.3326,-3.3326,-3.3326,-3.3326,-3.3326,-3.3326,-3.3326,-3.3326,-3.3326,-3.3326,-3.3326,0.0,-3.3326,0.0,0.0,0.0,0.0,0.0,-3.0443,0.0,0.0,0.0,0.0,0.0,0.0,0.0,0.0,0.0,0.0,0.0,0.0,0.0,-2.8087,-2.6741,0.0,-2.589,0.0,0.0,0.0,0.0,0.0,0.0,0.0,0.0,0.0,0.0,0.0,-2.3135,-2.3135,-2.3094,-2.3118,-2.3109,-2.3909,-2.4521,-2.4915,-2.5173,-2.5814,-2.6781,-2.6778,-2.7284,-2.8308,-2.8577,-2.9235,-3.026,-3.0453,-3.1015,-3.1697,-3.2106,-3.237,-3.2587,-3.3489,-3.415,-3.4631,-3.4969,-3.5126,-3.5223,-3.4831,-3.4058,-3.3583,-3.4291,-3.4429,-3.466,-3.5306,-3.6335,-3.6968,0.0,0.0,0.0,0.0,0.0,0.0,0.0,0.0,-3.8205,-3.7886,0.0,-3.7417,-3.7358,-3.6846,-3.6616,0.0,-3.6693,-3.6492,-3.6492,-3.5943,-3.5688,-3.5688,-3.461,-3.4153,-3.407,-3.3577,-3.3326,-3.3312,-3.3326,-3.3326,-3.3326,-3.3326,-3.3326,-3.3326,0.0,-3.3326,-3.3326,-3.3326,0.0,0.0,-3.3326,-3.3326,0.0,0.0,0.0,0.0,0.0,0.0,0.0,0.0,0.0,0.0,-2.8736,0.0,0.0,0.0,0.0,-2.851,0.0,0.0,0.0,0.0,-2.851,-2.851,-2.8431,-2.7416,0.0,0.0,0.0,0.0,0.0,0.0,0.0,0.0,0.0,0.0,0.0,0.0,0.0,-2.3135,-2.3057,-2.3082,-2.3055,-2.3167,-2.3597,-2.4421,-2.5297,-2.569,-2.571,-2.5769,-2.6284,-2.7284,-2.8215,-2.9235,-3.026,-3.1193,-3.1661,-3.1661,-3.1685,-3.201,-3.2551,-3.3104,-3.3621,-3.4126,-3.4643,-3.503,-3.5223,-3.5223,-3.4997,-3.4706,-3.4506,0.0,-3.5592,-3.6107,-3.6477,0.0,0.0,0.0,0.0,0.0,0.0,-3.7943,0.0,0.0,-3.8262,-3.7943,-3.7594,0.0,0.0,0.0,-3.6693,0.0,0.0,0.0,-3.5958,-3.5415,-3.5008,-3.461,-3.3894,-3.3577,-3.3577,-3.3382,-3.3326,0.0,0.0,0.0,0.0,0.0,-3.3326,-3.3326,0.0,0.0,-3.3326,-3.3326,-3.3326,0.0,-3.3326,-3.3326,-3.3326,-3.3326,-3.3326,-3.3171,-3.269,-3.1942,0.0,0.0,0.0,-2.8803,-2.859,0.0,0.0,0.0,0.0,0.0,0.0,0.0,0.0,0.0,-2.851,-2.8235,-2.7418,-2.7671,-2.7178,0.0,0.0,0.0,0.0,0.0,0.0,0.0,0.0,0.0,0.0,0.0,0.0,0.0,-2.3076,-2.3066,-2.3102,-2.4265,-2.4386,-2.3532,-2.3861,-2.4536,-2.5653,-2.5729,-2.5884,-2.6284,-2.7945,-2.8866,-2.9235,-3.026,-3.1104,-3.1661,-3.1661,-3.1781,-3.1997,-3.2551,-3.308,-3.3645,-3.4511,-3.4835,-3.4932,-3.595,-3.6028,-3.5828,0.0,0.0,0.0,0.0,0.0,0.0,0.0,-3.7165,0.0,-3.7535,0.0,-3.7943,0.0,-3.8278,-3.8335,-3.8075,-3.777,0.0,-3.7786,-3.7134,0.0,0.0,0.0,0.0,0.0,-3.5008,-3.4409,-3.407,-3.3577,-3.3326,-3.3326,-3.3326,-3.3326,-3.3326,0.0,-3.3326,0.0,0.0,-3.3326,0.0,0.0,-3.3326,-3.3326,0.0,-3.3326,-3.3326,-3.3326,-3.3326,-3.3326,-3.3326,-3.3326,-3.3157,-3.2318,-3.1709,-3.1119,-2.9999,-2.9328,0.0,-2.8578,-2.851,0.0,-2.851,0.0,0.0,0.0,0.0,0.0,0.0,-2.851,-2.8235,-2.7498,-2.7964,-2.7257,0.0,-2.3096,0.0,0.0,0.0,0.0,0.0,0.0,0.0,0.0,0.0,0.0,0.0,0.0,-2.3125,-2.3124,-2.4183,-2.4216,-2.3107,-2.3687,-2.432,-2.4791,-2.5421,-2.5674,-2.5783,-2.7076,-2.82,-2.9235,-2.9886,-3.0734,-3.1661,-3.1661,-3.1661,-3.1721,-3.2286,-3.2707,-3.314,-3.4162,-3.4667,-3.4823,-3.7015,-3.7015,0.0,0.0,-3.6816,0.0,0.0,0.0,-3.7417,0.0,-3.7417,-3.7535,-3.7886,-3.7943,-3.8075,-3.8391,-3.8391,0.0,-3.8391,-3.8075,0.0,0.0,-3.7727,-3.7519,-3.7812,0.0,0.0,0.0,0.0,-3.4085,-3.4085,-3.3507,-3.3326,-3.3326,-3.3326,0.0,-3.3326,-3.3326,-3.3326,-3.3326,-3.3326,-3.3326,-3.3326,-3.3326,-3.3326,-3.3326,-3.3326,-3.3326,-3.3326,-3.3326,-3.3241,-3.3241,-3.3241,-3.3241,-3.3016,-3.2245,-3.2001,-3.1636,-3.0152,-2.9704,-2.9484,-2.8657,-2.851,0.0,0.0,0.0,-2.851,0.0,0.0,0.0,0.0,0.0,-2.851,-2.8534,-2.8316,-2.7015,-2.362,-2.3066,0.0,0.0,0.0,0.0,0.0,0.0,0.0,0.0,0.0,0.0,0.0,0.0,-2.3075,-2.3147,-2.3124,-2.3115,-2.3076,-2.4736,-2.4746,-2.3114,-2.4751,-2.5595,-2.5664,-2.5674,-2.7243,-3.0033,-3.017,-3.0836,-3.1661,-3.1661,-3.1661,-3.1721,-3.225,-3.2478,-3.2623,-3.3657,-3.4366,-3.4823,-3.7314,-3.7314,-3.721,0.0,-3.6938,-3.7015,0.0,0.0,0.0,0.0,-3.777,-3.7886,-3.8205,-3.8262,-3.8335,-3.8391,-3.8391,0.0,0.0,0.0,0.0,-3.8408,-3.7298,-3.6723,-3.6935,-3.5961,0.0,-3.461,0.0,-3.3894,-3.3507,-3.3382,-3.3326,-3.3326,-3.3326,0.0,-3.3326,-3.3326,-3.3326,-3.3326,-3.3326,-3.3326,0.0,0.0,-3.3326,-3.3326,-3.3326,-3.3326,-3.3326,-3.3326,-3.2931,-3.239,-3.239,-3.2015,-3.1502,-3.1267,-3.082,-3.0228,-2.9781,-2.925,-2.8736,-2.859,-2.851,-2.851,0.0,0.0,0.0,0.0,0.0,0.0,0.0,0.0,0.0,-2.8476,-2.624,-2.4159,-2.3212,0.0,0.0,-2.1776,0.0,0.0,0.0,0.0,0.0,0.0,0.0,0.0,0.0,0.0,0.0,-2.3055,-2.3115,-2.3115,-2.3076,-2.3585,-2.3514,-2.3063,-2.3558,-2.4404,-2.5674,-2.5722,-2.6074,-2.702,-3.0034,-3.143,-3.1661,-3.1661,-3.1661,-3.1673,-3.1817,-3.213,-3.2623,-3.3657,-3.4366,-3.4823,-3.721,0.0,0.0,-3.6816,0.0,0.0,-3.715,0.0,0.0,-3.8075,-3.8132,0.0,-3.8391,-3.8391,-3.8391,-3.8391,-3.8391,0.0,-3.796,0.0,0.0,-3.7429,-3.6692,-3.6244,-3.6276,-3.537,0.0,-3.4341,0.0,-3.3577,-3.3326,-3.3326,-3.3326,-3.3326,-3.3326,-3.3326,0.0,-3.3326,-3.3326,-3.3326,-3.3326,0.0,0.0,-3.2931,-3.2775,-3.2704,-3.2403,-3.2475,-3.2775,-3.2775,-3.2245,-3.1563,-3.1563,-3.1267,-3.082,-3.0443,-3.0075,-2.9626,-2.925,-2.8803,-2.851,-2.851,-2.851,-2.851,-2.851,-2.851,-2.851,0.0,-2.851,-2.851,0.0,0.0,0.0,-2.6377,-2.444,-2.3103,0.0,0.0,0.0,0.0,0.0,0.0,0.0,0.0,0.0,0.0,0.0,0.0,0.0,0.0,0.0,-2.3047,-2.3106,-2.3076,-2.3142,-2.3145,-2.3055,-2.3143,-2.3095,-2.364,-2.4549,-2.5371,-2.5671,-2.59,-2.9054,-3.0898,-3.1661,-3.1661,-3.1661,-3.1661,-3.1661,-3.186,-3.2261,-3.2742,-3.3564,-3.439,-3.706,0.0,0.0,0.0,0.0,0.0,0.0,-3.7711,0.0,-3.8335,0.0,-3.8391,-3.8391,-3.8391,-3.8335,-3.8278,0.0,-3.796,-3.7282,-3.7282,-3.689,-3.6151,-3.6041,-3.59,-3.5616,-3.4898,0.0,0.0,-3.3701,-3.3326,-3.3326,-3.3326,-3.3326,-3.3326,0.0,0.0,0.0,-3.3326,-3.3326,-3.3326,-3.3326,-3.3241,-3.3086,-3.239,-3.2001,-3.1856,-3.1119,-3.1341,-3.1928,-3.1928,-3.1415,-3.0745,-3.0745,-3.067,-3.0443,-2.9781,-2.9549,-2.9406,-2.8657,-2.851,-2.851,-2.851,-2.851,-2.851,-2.851,-2.851,-2.851,-2.851,-2.851,-2.851,0.0,0.0,0.0,-2.4335,0.0,0.0,0.0,0.0,0.0,0.0,0.0,0.0,0.0,0.0,0.0,0.0,0.0,0.0,0.0,0.0,0.0,-2.292,-2.3037,-2.3115,-2.3135,0.0,-2.3135,-2.3144,-2.3063,-2.309,-2.3148,-2.4908,-2.5678,-2.5828,-2.8103,-3.0057,-3.1661,-3.1661,-3.1661,-3.1661,-3.1661,-3.1675,-3.1691,-3.1727,-3.2483,-3.3648,0.0,0.0,0.0,0.0,0.0,-3.7071,-3.6798,-3.7637,-3.8335,-3.8391,-3.8391,-3.8391,-3.8391,-3.8391,-3.8164,-3.7594,-3.7594,0.0,0.0,0.0,0.0,-3.6089,-3.5533,-3.5094,-3.4846,-3.4099,-3.3716,0.0,-3.3382,-3.3326,-3.3326,-3.3326,-3.3326,-3.3326,0.0,0.0,-3.3326,-3.3326,0.0,-3.3326,-3.3326,-3.2931,-3.2304,-3.216,-3.1709,-3.1106,-3.097,-3.097,-3.1119,-3.1119,-3.0594,-2.9922,-2.9922,-2.9471,-2.8882,-2.8736,-2.8736,-2.8657,-2.851,-2.851,-2.851,-2.851,-2.851,-2.851,-2.851,-2.851,-2.851,-2.851,-2.851,-2.851,-2.851,0.0,0.0,0.0,0.0,0.0,0.0,0.0,0.0,0.0,0.0,0.0,0.0,0.0,0.0,0.0,0.0,0.0,0.0,0.0,0.0,0.0,-2.2715,0.0,0.0,0.0,-2.3135,-2.3135,-2.3106,-2.3123,-2.319,-2.4943,-2.5706,-2.5888,-2.9575,-3.1328,-3.1661,-3.1661,-3.1661,-3.1661,-3.1661,-3.1697,-3.1704,-3.1734,-3.1881,-3.2328,0.0,0.0,0.0,0.0,0.0,0.0,0.0,-3.7147,0.0,-3.7902,-3.7902,-3.777,-3.7385,-3.7385,-3.7207,-3.6906,-3.689,-3.6585,-3.5961,-3.5755,-3.5499,-3.4993,-3.4558,0.0,-3.3962,-3.3577,-3.3396,-3.3326,-3.3326,-3.3326,-3.3326,-3.3326,-3.3326,-3.3326,0.0,-3.3086,0.0,0.0,0.0,-3.2101,-3.2475,-3.2173,-3.1415,-3.1044,-3.0594,-3.0215,-2.9768,-2.9626,-2.9704,-3.0152,-2.9781,-2.9106,-2.9106,-2.8803,-2.851,-2.851,-2.851,-2.851,-2.851,-2.851,-2.851,-2.851,-2.851,-2.851,-2.851,-2.851,-2.851,-2.851,-2.851,-2.851,-2.851,-2.847,0.0,0.0,0.0,0.0,0.0,0.0,0.0,0.0,0.0,0.0,0.0,0.0,0.0,0.0,0.0,0.0,0.0,0.0,0.0,0.0,0.0,0.0,0.0,0.0,0.0,-2.3135,-2.3135,-2.3134,-2.3095,-2.3977,-2.4844,-2.5906,-2.9953,-3.1731,-3.1661,-3.1661,-3.1661,-3.1661,-3.1661,-3.1661,-3.1685,-3.1675,-3.1675,-3.2019,0.0,-3.489,0.0,0.0,-3.577,0.0,-3.5785,-3.6523,-3.7147,-3.7163,-3.7163,-3.6966,-3.6446,-3.6384,-3.6322,-3.6119,-3.6119,-3.5819,-3.5154,-3.4942,-3.4558,-3.3896,-3.3675,-3.3536,-3.3326,-3.3326,-3.3326,0.0,-3.3326,-3.3326,-3.3326,-3.3326,-3.3326,-3.3326,0.0,0.0,0.0,0.0,-3.2028,-3.097,-3.1563,-3.1341,-3.0594,-2.9922,-2.9549,-2.9328,-2.8736,-2.851,-2.859,-2.9263,-2.9028,-2.851,-2.851,-2.851,-2.851,-2.851,-2.851,-2.851,-2.851,-2.851,-2.851,-2.851,-2.851,-2.851,-2.851,-2.851,-2.851,-2.851,-2.851,-2.851,-2.851,-2.851,0.0,0.0,0.0,0.0,0.0,0.0,0.0,0.0,0.0,0.0,0.0,0.0,0.0,0.0,0.0,-2.2637,-2.2653,-2.2381,-2.2101,0.0,0.0,-2.3066,-2.3135,0.0,-2.3135,-2.3135,-2.3086,-2.3096,-2.3092,-2.3114,-2.4062,-2.5899,-2.9988,-3.1731,-3.1661,-3.1661,-3.1661,-3.1661,-3.1661,-3.1661,-3.1661,-3.1661,-3.1663,-3.1931,0.0,0.0,0.0,0.0,0.0,0.0,-3.5008,-3.5676,-3.6291,-3.6446,-3.6508,-3.6446,-3.6384,-3.6384,-3.6056,-3.5305,-3.524,-3.4876,-3.4074,-3.402,-3.3882,-3.3605,-3.3605,-3.3536,-3.3326,-3.3326,-3.3326,0.0,-3.3326,-3.3326,-3.3326,-3.3326,-3.3326,-3.3255,0.0,0.0,0.0,-3.1415,-3.1044,-3.0895,-3.0957,-3.0519,-2.9768,-2.9704,-2.9263,-2.859,-2.851,-2.851,-2.851,-2.859,-2.8578,-2.851,-2.851,-2.851,-2.851,-2.851,-2.851,-2.851,-2.851,-2.851,-2.851,-2.851,-2.851,-2.851,-2.851,-2.851,-2.851,-2.851,-2.851,-2.851,-2.851,-2.851,-2.851,0.0,0.0,0.0,0.0,0.0,0.0,0.0,0.0,0.0,0.0,-2.466,0.0,0.0,0.0,-2.2375,-2.2685,-2.247,-2.2208,-2.1752,0.0,-2.3115,-2.3135,-2.3135,-2.3135,-2.3135,-2.3073,-2.3061,-2.311,-2.3102,-2.4029,-2.5914,-2.9977,-3.1731,-3.1661,-3.1661,-3.1661,-3.1661,-3.1661,-3.1661,-3.1661,-3.1661,-3.1685,-3.1733,0.0,0.0,0.0,0.0,0.0,0.0,0.0,-3.4942,-3.524,-3.4957,-3.527,-3.5385,-3.5059,-3.4957,-3.4758,-3.4385,-3.4385,-3.4264,-3.3896,-3.3827,-3.3675,-3.3605,-3.3466,-3.3396,-3.3326,-3.3326,-3.3326,0.0,0.0,0.0,-3.3326,-3.2775,-3.2318,0.0,0.0,-3.1119,-3.067,-3.082,-3.0367,-2.9471,-2.9999,-2.9704,-2.8961,-2.8961,-2.8803,-2.851,-2.851,-2.851,-2.851,-2.851,-2.851,-2.851,-2.851,-2.851,-2.851,-2.851,-2.851,-2.851,-2.851,-2.851,-2.851,-2.851,-2.851,-2.851,-2.851,-2.851,-2.851,-2.851,-2.851,-2.851,-2.851,-2.851,-2.851,-2.851,0.0,0.0,0.0,0.0,0.0,0.0,0.0,0.0,0.0,0.0,0.0,0.0,0.0,-2.2668,-2.2549,-2.2627,-2.2492,-2.2152,0.0,-2.2795,-2.3073,-2.3057,-2.3057,-2.3073,-2.3132,-2.4237,-2.6345,-2.6313,-2.7442,-2.9427,-3.1015,-3.1722,-3.1661,-3.1661,-3.1661,-3.1661,-3.1661,-3.1661,-3.1661,-3.1661,-3.1661,-3.1661,-3.3896,0.0,-3.3827,0.0,-3.4264,-3.4452,-3.3882,-3.4196,-3.4375,-3.4139,-3.447,-3.4506,-3.4088,-3.4123,-3.4168,-3.4098,-3.4269,-3.4299,-3.4285,-3.3974,-3.3804,-3.3804,-3.3494,0.0,-3.3326,-3.3326,-3.3326,-3.3326,-3.3326,0.0,0.0,0.0,0.0,0.0,-3.067,-3.0215,-2.9704,-3.0075,-2.9561,-2.859,-2.9106,-2.904,-2.851,-2.851,-2.851,-2.851,-2.851,-2.851,-2.851,-2.851,-2.851,-2.851,-2.851,-2.851,-2.851,-2.851,-2.851,-2.851,-2.851,-2.851,-2.851,-2.851,-2.851,-2.851,-2.851,-2.851,-2.851,-2.851,-2.851,-2.851,-2.851,-2.851,-2.851,-2.851,0.0,0.0,0.0,0.0,0.0,0.0,-2.7428,-2.6956,-2.5474,0.0,0.0,0.0,0.0,0.0,-2.294,-2.2882,-2.2746,0.0,0.0,0.0,-2.3097,-2.4161,-2.4161,-2.3097,-2.312,-2.4464,-2.6923,-2.8669,-2.9653,-2.9999,-3.1227,-3.1699,-3.1661,-3.1661,-3.1661,-3.1661,-3.1661,-3.1661,-3.1661,-3.1661,-3.1661,-3.1661,-3.3896,-3.3744,-3.3675,-3.3896,-3.3896,-3.3813,-3.3605,-3.3605,-3.3832,-3.4441,-3.4297,-3.4143,-3.3954,-3.4439,-3.474,-3.4526,-3.5006,-3.5359,-3.5198,-3.4562,-3.4153,0.0,0.0,-3.3326,-3.3326,-3.3326,-3.3326,-3.3326,0.0,0.0,-3.2074,0.0,-3.0895,-3.0895,-3.0075,-2.9704,-2.9626,-2.8882,-2.851,-2.851,-2.851,-2.851,-2.851,-2.851,-2.851,-2.851,-2.851,-2.851,-2.851,-2.851,-2.851,-2.851,-2.851,-2.851,-2.851,-2.851,-2.851,-2.851,-2.851,-2.851,-2.851,-2.851,-2.851,-2.851,-2.851,-2.851,-2.851,-2.851,-2.851,-2.851,-2.851,-2.851,-2.851,-2.851,0.0,0.0,0.0,0.0,0.0,0.0,-2.7977,-2.8149,-2.7232,0.0,0.0,0.0,0.0,0.0,0.0,0.0,0.0,-2.2658,-2.2916,0.0,-2.3097,-2.6678,-2.6678,-2.3087,-2.3082,-2.313,-2.3368,-2.9093,-2.9467,-2.6017,-2.9935,-3.1673,-3.1661,-3.1661,-3.1661,-3.1661,-3.1661,-3.1661,-3.1661,-3.1661,-3.1661,-3.1661,-3.4005,-3.3882,-3.3758,-3.3675,-3.3675,-3.3747,-3.3959,-3.4015,-3.424,-3.486,-3.4944,-3.486,-3.4808,-3.4963,-3.5018,0.0,-3.5113,-3.5226,0.0,-3.4969,-3.4857,-3.4857,-3.4267,-3.3944,-3.3944,-3.3536,-3.3016,-3.2461,0.0,0.0,0.0,-3.0228,-2.9781,-2.925,-2.904,-2.8882,-2.8882,-2.8578,-2.851,-2.851,-2.851,-2.851,-2.851,-2.851,-2.851,-2.851,-2.851,-2.851,-2.851,-2.851,-2.851,-2.851,-2.851,-2.851,-2.851,-2.851,-2.851,-2.851,-2.851,-2.851,-2.851,-2.851,-2.851,-2.851,-2.851,-2.851,-2.851,-2.851,-2.851,-2.851,-2.851,-2.851,-2.851,-2.851,-2.851,0.0,0.0,0.0,0.0,0.0,-2.5809,-2.4687,0.0,-2.6069,0.0,0.0,0.0,0.0,0.0,0.0,0.0,0.0,-2.389,0.0,-2.6734,-2.7923,-2.6661,-2.3061,-2.3092,-2.4353,-2.686,-3.0179,-3.0961,-2.9823,-3.1109,-3.1687,-3.1661,-3.1661,-3.1661,-3.1661,-3.1661,-3.1661,-3.1661,-3.1661,-3.1661,-3.1661,-3.3937,-3.3998,-3.3945,-3.3889,-3.4002,-3.4284,-3.452,-3.459,-3.4801,-3.5419,-3.5578,-3.5662,-3.5812,-3.584,0.0,-3.5592,-3.5714,-3.584,-3.584,-3.5691,-3.5578,-3.5578,-3.459,-3.4048,-3.4048,-3.3367,0.0,-3.1957,-3.1447,-3.067,-2.9704,-2.9406,-2.8961,-2.851,-2.851,-2.851,-2.851,-2.851,-2.851,-2.851,-2.851,-2.851,-2.851,-2.851,-2.851,-2.851,-2.851,-2.8643,-2.8811,-2.8811,-2.8931,-2.91,-2.91,-2.91,-2.9027,-2.8631,-2.851,-2.851,-2.851,-2.851,-2.851,-2.851,-2.851,-2.851,-2.851,-2.851,-2.851,-2.851,-2.851,-2.851,-2.851,-2.851,-2.851,-2.851,-2.851,-2.851,-2.851,0.0,0.0,0.0,0.0,0.0,0.0,-2.6195,-2.6941,0.0,0.0,0.0,0.0,0.0,0.0,-2.4668,-2.5249,-2.6218,-2.744,-2.8124,-2.7349,-2.5115,-2.5131,-2.6337,-2.8533,-3.07,-3.1674,-3.1673,-3.1699,-3.1675,-3.1661,-3.1661,-3.1661,-3.1661,-3.1661,-3.1661,-3.1661,-3.1661,-3.1661,-3.1661,-3.3733,-3.3987,-3.4309,0.0,-3.4773,0.0,-3.5282,-3.5282,-3.5508,-3.6051,-3.6136,-3.636,-3.6922,-3.6978,-3.6754,-3.6178,0.0,0.0,0.0,-3.6445,-3.6136,-3.6045,-3.467,-3.3806,-3.3806,-3.2909,-3.2215,-3.1655,-3.0367,-2.9752,-2.9739,-2.8992,-2.8619,-2.8619,-2.8619,-2.8619,-2.8619,-2.8582,-2.857,-2.8558,-2.8522,-2.8534,-2.857,-2.857,-2.8595,-2.8619,-2.8619,-2.8931,-2.9352,-2.9352,-2.9677,-3.0086,-3.0086,-3.0086,-2.9893,-2.8871,-2.857,-2.8558,-2.8522,-2.851,-2.851,-2.851,-2.851,-2.851,-2.851,-2.851,-2.851,-2.851,-2.851,-2.851,-2.851,-2.851,-2.851,-2.851,-2.851,-2.851,-2.851,0.0,0.0,0.0,0.0,0.0,-2.7288,-2.7238,-2.7298,0.0,0.0,0.0,0.0,0.0,-2.6976,-2.7278,-2.6919,-2.6526,-2.601,-2.7662,-2.8456,-2.8456,-2.8456,-2.848,-2.8605,-3.0688,-3.1675,-3.1661,-3.1661,-3.1661,-3.1661,-3.1661,-3.1661,-3.1661,-3.1661,-3.1661,-3.1661,-3.1661,-3.1661,-3.1661,0.0,0.0,-3.4941,-3.4941,-3.5054,-3.5395,-3.5784,-3.5855,-3.6065,-3.6683,-3.6768,-3.6824,-3.6964,-3.6978,-3.6922,-3.6782,-3.6908,-3.6978,-3.6978,-3.6852,-3.6521,-3.5785,-3.4947,-3.4137,-3.3501,-3.2855,-3.2104,-3.1377,-3.0478,-3.0031,-3.0031,-2.9784,-2.9713,-2.9713,-2.9713,-2.9713,-2.9689,-2.928,-2.9112,-2.9076,-2.8679,-2.8751,-2.9112,-2.9112,-2.9364,-2.9713,-2.9713,-2.9797,-2.9893,-2.9893,-2.9977,-3.0086,-3.0086,-3.0086,-2.9965,-2.9304,-2.9112,-2.9027,-2.8619,-2.851,-2.851,-2.851,-2.851,-2.851,-2.851,-2.851,-2.851,-2.851,-2.851,-2.851,-2.851,-2.851,-2.8522,-2.8503,-2.8467,-2.8534,-2.8503,-2.8515,0.0,0.0,-2.8393,-2.8127,-2.7313,-2.7824,-2.7918,0.0,0.0,0.0,0.0,-2.7742,-2.8117,-2.8191,-2.7487,-2.7371,-2.79,-2.8279,-2.8456,-2.8456,-2.8491,-2.8504,-2.8605,-3.0749,-3.1723,-3.1661,-3.1661,-3.1661,-3.1661,-3.1661,-3.1661,-3.1661,-3.1661,-3.1661,-3.1661,-3.1661,-3.1661,-3.1661,-3.5243,-3.5451,-3.5648,-3.5648,-3.5798,-3.6093,-3.6431,-3.6487,-3.6613,-3.695,-3.6978,-3.6978,-3.6978,-3.6652,-3.6415,-3.6415,-3.673,-3.6822,-3.6401,-3.6415,-3.599,-3.5061,-3.4347,-3.3671,-3.3187,-3.2503,-3.1834,-3.1085,-3.0446,-3.0086,-3.0086,-3.0086,-3.0086,-3.0086,-3.0086,-3.0086,-3.0074,-2.9785,-2.9665,-2.9641,-2.9352,-2.94,-2.9665,-2.9665,-2.9833,-3.0086,-3.0086,-3.0242,-3.0446,-3.0446,-3.0603,-3.0807,-3.0807,-3.0807,-3.0699,-3.017,-2.9845,-2.9544,-2.9015,-2.8871,-2.8811,-2.857,-2.851,-2.851,-2.851,-2.851,-2.851,-2.851,-2.851,-2.851,-2.851,-2.851,-2.8534,-2.8515,-2.8131,-2.8016,-2.8482,-2.8518,-2.8506,-2.847,-2.8542,-2.8322,-2.7808,-2.8217,-2.829,-2.7848,-2.7649,0.0,-2.7383,-2.7941,-2.8277,-2.8522,-2.8018,-2.8007,-2.851,-2.8506,-2.8509,-2.8509,-2.8514,-2.9035,-2.9978,-3.1174,-3.1709,-3.1661,-3.1661,-3.1661,-3.1661,-3.1661,-3.1661,-3.1661,-3.1661,-3.1661,-3.1661,-3.1661,-3.1661,-3.1661,-3.5479,-3.584,-3.6206,-3.6206,-3.6641,-3.6978,-3.6978,-3.6978,-3.6978,-3.6822,-3.6822,-3.673,-3.6652,-3.591,-3.5494,-3.5494,-3.6163,-3.6308,-3.5575,-3.5494,-3.5074,-3.4139,-3.3395,-3.2907,-3.2821,-3.2077,-3.1444,-3.0999,-3.0543,-3.0326,-3.0326,-3.0326,-3.0326,-3.0326,-3.0326,-3.0326,-3.0326,-3.0242,-3.0206,-3.0194,-3.0122,-3.0134,-3.0206,-3.0206,-3.0254,-3.0326,-3.0326,-3.0615,-3.0999,-3.0999,-3.1288,-3.1661,-3.1661,-3.1661,-3.1577,-3.112,-3.0675,-3.0194,-2.9581,-2.9364,-2.9172,-2.8643,-2.851,-2.851,-2.851,-2.851,-2.851,-2.851,-2.851,-2.851,-2.851,-2.851,-2.8534,-2.8515,-2.7773,-2.7462,-2.8229,0.0,-2.8277,-2.8277,-2.8277,-2.8345,-2.847,-2.8381,-2.8336,-2.83,-2.7696,-2.7557,-2.7904,-2.7973,-2.8122,-2.8522,-2.851,-2.851,-2.851,-2.851,-2.851,-2.851,-2.8853,-2.9808,-3.1475,-3.1663,-3.1671,-3.1661,-3.1661,-3.1661,-3.1661,-3.1661,-3.1661,-3.1661,-3.1661,-3.1661,-3.1661,-3.1661,-3.1661,-3.1661,-3.6599,-3.6782,-3.6838,-3.6838,-3.6922,-3.6978,-3.6978,-3.6978,-3.673,-3.599,-3.591,-3.5575,-3.4802,-3.4637,-3.4555,-3.4555,-3.4637,-3.4637,-3.4555,-3.4555,-3.4139,-3.3237,-3.3066,-3.2661,-3.1913,-3.1749,-3.1625,-3.1541,-3.1456,-3.142,-3.142,-3.142,-3.142,-3.142,-3.142,-3.142,-3.1384,-3.0951,-3.0747,-3.0723,-3.0266,-3.035,-3.0747,-3.0747,-3.1036,-3.142,-3.142,-3.148,-3.1541,-3.1541,-3.1589,-3.1661,-3.1661,-3.1661,-3.1649,-3.1565,-3.148,-3.1204,-3.023,-2.9641,-2.9172,-2.8643,-2.851,-2.851,-2.851,-2.851,-2.851,-2.851,-2.851,-2.851,-2.851,-2.851,-2.8534,-2.8515,-2.7773,-2.722,-2.7359,0.0,-2.7383,-2.7383,-2.7383,-2.773,-2.8462,-2.7857,-2.7418,-2.7383,-2.773,-2.7787,-2.7371,-2.8039,-2.8467,-2.8515,-2.8534,-2.851,-2.851,-2.851,-2.851,-2.8522,-3.0318,-3.094,-3.0386,-3.1329,-3.1701,-3.1661,-3.1661,-3.1661,-3.1661,-3.1661,-3.1661,-3.1661,-3.1661,-3.1661,-3.1661,-3.1661,-3.1661,-3.1661,-3.6936,-3.6978,-3.6978,-3.6978,-3.6978,-3.6822,-3.6401,-3.6322,-3.599,-3.5061,-3.4979,-3.4815,-3.4389,-3.3888,-3.3564,-3.3564,-3.3152,-3.2907,-3.2907,-3.3322,-3.3237,-3.2326,-3.2326,-3.2077,-3.1749,-3.1661,-3.1661,-3.1661,-3.1661,-3.1661,-3.1661,-3.1661,-3.1661,-3.1661,-3.1661,-3.1661,-3.1649,-3.1408,-3.13,-3.1276,-3.1036,-3.1084,-3.13,-3.13,-3.1444,-3.1661,-3.1661,-3.1661,-3.1661,-3.1661,-3.1661,-3.1661,-3.1661,-3.1661,-3.1661,-3.1661,-3.1456,-3.1132,-3.0651,-2.9917,-2.9244,-2.8991,-2.8727,-2.851,-2.851,-2.8534,-2.8479,-2.8479,-2.8527,-2.847,-2.8491,-2.8479,-2.8503,-2.8506,-2.8158,0.0,-2.729,-2.7197,-2.7197,-2.7197,-2.7233,-2.7348,-2.7731,-2.7452,-2.7221,-2.7163,-2.7487,-2.7592,-2.758,-2.8125,-2.8506,-2.8527,-2.8503,-2.8467,-2.851,-2.851,-2.851,-2.8534,-3.0667,-3.1196,-3.0398,-3.1303,-3.1661,-3.1661,-3.1661,-3.1661,-3.1661,-3.1661,-3.1661,-3.1661,-3.1661,-3.1661,-3.1661,-3.1661,-3.1661,-3.1661,-3.6978,-3.6978,-3.69,-3.673,-3.673,-3.6401,-3.5494,-3.54,-3.5074,-3.4139,-3.3972,-3.3888,-3.3733,-3.3066,-3.2747,-3.2747,-3.2077,-3.1661,-3.1661,-3.2326,-3.2413,-3.1749,-3.1661,-3.1661,-3.1661,-3.1661,-3.1661,-3.1661,-3.1661,-3.1661,-3.1661,-3.1661,-3.1661,-3.1661,-3.1661,-3.1661,-3.1661,-3.1661,-3.1661,-3.1661,-3.1661,-3.1661,-3.1661,-3.1661,-3.1661,-3.1661,-3.1661,-3.1661,-3.1661,-3.1661,-3.1661,-3.1661,-3.1661,-3.1661,-3.1661,-3.1661,-3.1384,-3.1036,-3.0903,-3.0194,-2.9448,-2.9186,-2.879,-2.851,-2.8534,-2.8491,-2.8435,-2.8215,-2.8182,-2.8217,-2.8226,-2.8354,-2.8506,-2.8497,0.0,-2.7975,-2.729,-2.7219,-2.7231,-2.7231,-2.7162,-2.7197,-2.7197,-2.7197,-2.7197,-2.7197,-2.7174,-2.7383,-2.7685,-2.8138,-2.8405,-2.8527,-2.8515,-2.8479,-2.851,-2.851,-2.8582,-2.8819,-3.0465,-3.1087,-3.0592,-3.1363,-3.1661,-3.1661,-3.1661,-3.1661,-3.1661,-3.1661,-3.1661,-3.1661,-3.1661,-3.1661,-3.1661,-3.1661,-3.1661,-3.1661,-3.6978,-3.6978,-3.6744,-3.591,-3.583,-3.5494,-3.4555,-3.4389,-3.4056,-3.3237,-3.3066,-3.2821,-3.2001,-3.1837,-3.1837,-3.1837,-3.1749,-3.1661,-3.1661,-3.1749,-3.1749,-3.1661,-3.1661,-3.1661,-3.1661,-3.1661,-3.1661,-3.1661,-3.1661,-3.1661,-3.1661,-3.1661,-3.1661,-3.1661,-3.1661,-3.1661,-3.1661,-3.1661,-3.1661,-3.1661,-3.1661,-3.1661,-3.1661,-3.1661,-3.1661,-3.1661,-3.1661,-3.1661,-3.1661,-3.1661,-3.1661,-3.1661,-3.1661,-3.1661,-3.1661,-3.1661,-3.1637,-3.1492,-3.1011,-3.0458,-2.9786,-2.8786,-2.8521,-2.8522,-2.8503,-2.8527,-2.8307,-2.7463,-2.7267,-2.7267,-2.7256,-2.7985,-2.8497,-2.8509,0.0,0.0,-2.7186,-2.7174,-2.7231,-2.7231,-2.7219,-2.7219,-2.7219,-2.7219,-2.7219,-2.7219,-2.7221,-2.7186,-2.7267,-2.7684,-2.8089,-2.8527,-2.8467,-2.851,-2.851,-2.851,-2.8867,-2.9516,-2.9965,-3.0338,-3.0661,-3.1372,-3.1661,-3.1661,-3.1661,-3.1661,-3.1661,-3.1661,-3.1661,-3.1661,-3.1661,-3.1661,-3.1661,-3.1661,-3.1661,-3.1661,-3.6163,-3.5736,-3.5224,-3.4897,-3.4815,-3.4568,-3.3649,-3.3479,-3.3152,-3.2326,-3.2152,-3.2077,-3.1749,-3.1661,-3.1661,-3.1661,-3.1661,-3.1661,-3.1661,-3.1661,-3.1661,-3.1661,-3.1661,-3.1661,-3.1661,-3.1661,-3.1661,-3.1661,-3.1661,-3.1661,-3.1661,-3.1661,-3.1661,-3.1661,-3.1661,-3.1661,-3.1661,-3.1661,-3.1661,-3.1661,-3.1661,-3.1661,-3.1661,-3.1661,-3.1572,-3.1484,-3.1661,-3.1572,-3.1484,-3.1484,-3.1572,-3.1661,-3.1318,-3.1318,-3.1484,-3.1484,-3.1572,-3.1625,-3.142,-3.0975,-3.0434,-2.9654,-2.9022,-2.85,-2.8482,-2.8042,-2.7637,-2.7233,-2.7174,-2.7197,-2.7221,-2.7464,-2.7708,-2.7708,0.0,-2.7186,-2.7174,-2.7208,-2.7231,-2.7231,-2.7231,-2.7231,-2.7231,-2.7231,-2.7231,-2.7231,-2.7196,-2.7174,-2.7174,-2.7395,-2.7788,-2.845,-2.8518,-2.8527,-2.851,-2.9775,-3.0151,-2.9434,-3.0555,-3.0955,-3.0855,-3.1408,-3.1661,-3.1661,-3.1661,-3.1661,-3.1661,-3.1661,-3.1661,-3.1661,-3.1661,-3.1661,-3.1661,-3.1661,-3.1661,-3.1661,-3.5237,-3.4733,-3.4223,-3.3972,-3.3888,-3.3564,-3.2735,-3.2575,-3.2413,-3.1749,-3.1661,-3.1661,-3.1661,-3.1661,-3.1661,-3.1661,-3.1661,-3.1661,-3.1661,-3.1661,-3.1661,-3.1661,-3.1661,-3.1661,-3.1661,-3.1661,-3.1661,-3.1661,-3.1661,-3.1661,-3.1661,-3.1661,-3.1661,-3.1661,-3.1661,-3.1661,-3.1661,-3.1661,-3.1661,-3.1661,-3.1661,-3.1661,-3.1661,-3.1572,-3.1484,-3.1306,-3.1407,-3.1318,-3.1229,-3.1229,-3.1318,-3.1407,-3.1062,-3.1062,-3.1229,-3.1229,-3.1318,-3.1496,-3.1496,-3.1233,-3.0838,-3.0385,-2.9404,-2.8516,-2.849,-2.7801,-2.7174,-2.7209,-2.7185,-2.7208,-2.7221,-2.7209,-2.7209,-2.7209,-2.7209,-2.7232,-2.7219,-2.7231,-2.7231,-2.7231,-2.7231,-2.7231,-2.7231,-2.7231,-2.7231,-2.7231,-2.7231,-2.7231,-2.7231,-2.7221,-2.7487,-2.8068,-2.8326,-2.8395,-2.8101,-3.018,-3.0667,-2.9571,-3.0894,-3.1317,-3.1045,-3.1492,-3.1661,-3.1661,-3.1661,-3.1661,-3.1661,-3.1661,-3.1661,-3.1661,-3.1661,-3.1661,-3.1661,-3.1661,-3.1661,-3.1661,-3.4306,-3.4293,-3.3972,-3.3152,-3.2993,-3.2747,-3.1837,-3.1661,-3.1661,-3.1661,-3.1661,-3.1661,-3.1661,-3.1661,-3.1661,-3.1661,-3.1661,-3.1661,-3.1661,-3.1661,-3.1661,-3.1661,-3.1661,-3.1661,-3.1661,-3.1661,-3.1661,-3.1661,-3.1661,-3.1661,-3.1661,-3.1661,-3.1661,-3.1661,-3.1661,-3.1661,-3.1661,-3.1661,-3.1661,-3.1661,-3.1661,-3.1661,-3.1673,-3.1395,-3.1306,-3.1306,-3.1062,-3.0984,-3.0984,-3.0984,-3.0984,-3.0984,-3.0984,-3.0984,-3.0984,-3.0984,-3.0984,-3.0984,-3.0984,-3.0984,-3.0944,-3.0688,-2.9567,-2.8538,-2.8465,-2.7812,-2.7197,-2.7219,-2.7231,-2.7231,-2.7231,-2.7231,-2.7231,-2.7231,-2.7231,-2.7231,-2.7231,-2.7231,-2.7231,-2.7231,-2.7231,-2.7231,-2.7231,-2.7231,-2.7231,-2.7231,-2.7231,-2.7231,-2.7231,-2.7221,-2.7174,-2.7174,-2.8046,-2.8115,-2.7235,-2.9178,-3.023,-3.0208,-3.0886,-3.1237,-3.1306,-3.1572,-3.1661,-3.1661,-3.1661,-3.1661,-3.1661,-3.1661,-3.1661,-3.1661,-3.1661,-3.1661,-3.1661,-3.1661,-3.1661,-3.1661,-3.3395,-3.2907,-3.2413,-3.2164,-3.2077,-3.2001,-3.1749,-3.1661,-3.1661,-3.1661,-3.1661,-3.1661,-3.1661,-3.1661,-3.1661,-3.1661,-3.1661,-3.1661,-3.1661,-3.1661,-3.1661,-3.1661,-3.1661,-3.1661,-3.1661,-3.1661,-3.1661,-3.1661,-3.1661,-3.1661,-3.1661,-3.1661,-3.1661,-3.1661,-3.1661,-3.1661,-3.1661,-3.1484,-3.1395,-3.1395,-3.1229,-3.1241,-3.1241,-3.1151,-3.096,-3.0859,-3.0972,-3.0883,-3.0679,-3.0679,-3.0871,-3.0984,-3.0781,-3.0679,-3.0679,-3.0679,-3.0871,-3.0984,-3.0984,-3.0871,-3.0652,-3.0425,-3.0276,-2.9895,-2.8413,-2.7622,-2.7198,-2.7232,-2.7227,-2.7231,-2.7231,-2.7231,-2.7231,-2.7231,-2.7231,-2.7231,-2.7231,-2.7231,-2.7231,-2.7231,-2.7231,-2.7231,-2.7231,-2.7231,-2.7231,-2.7231,-2.7231,-2.7231,-2.7231,-2.7167,-2.7175,-2.7201,-2.7454,-2.8123,-2.93,-2.9907,-3.0048,-2.9829,-3.0673,-3.1122,-3.1306,-3.1395,-3.1484,-3.1661,-3.1661,-3.1661,-3.1661,-3.1661,-3.1661,-3.1661,-3.1661,-3.1661,-3.1661,-3.1661,-3.1661,-3.1661,-3.2488,-3.2077,-3.1661,-3.1661,-3.1661,-3.1661,-3.1661,-3.1661,-3.1661,-3.1661,-3.1661,-3.1661,-3.1661,-3.1661,-3.1661,-3.1661,-3.1661,-3.1661,-3.1661,-3.1661,-3.1661,-3.1661,-3.1661,-3.1661,-3.1661,-3.1661,-3.1661,-3.1661,-3.1661,-3.1661,-3.1661,-3.1661,-3.1661,-3.1572,-3.1572,-3.1484,-3.1407,-3.1229,-3.1139,-3.1139,-3.1062,-3.0984,-3.0984,-3.0883,-3.0769,-3.0578,-3.0691,-3.0589,-3.0487,-3.0487,-3.0589,-3.0691,-3.0487,-3.0487,-3.0487,-3.0487,-3.0589,-3.0691,-3.0691,-3.0589,-3.0418,-3.0217,-3.0425,-3.0361,-2.912,-2.8586,-2.8145,-2.7363,-2.7234,-2.7232,-2.719,-2.7167,-2.7215,-2.7172,-2.7231,-2.7231,-2.7231,-2.7231,-2.7231,-2.7231,-2.7231,-2.7231,-2.7231,-2.7231,-2.7231,-2.7231,-2.7181,-2.7167,-2.7167,-2.7223,-2.7578,-2.8326,-2.835,-2.898,-3.0185,-3.019,-3.0101,-2.9866,-3.0504,-3.096,-3.1139,-3.1217,-3.1484,-3.1661,-3.1661,-3.1661,-3.1661,-3.1661,-3.1661,-3.1661,-3.1661,-3.1661,-3.1661,-3.1661,-3.1661,-3.1661,-3.1661,-3.1661,-3.1661,-3.1661,-3.1661,-3.1661,-3.1661,-3.1661,-3.1661,-3.1661,-3.1661,-3.1661,-3.1661,-3.1661,-3.1661,-3.1661,-3.1661,-3.1661,-3.1661,-3.1661,-3.1661,-3.1661,-3.1661,-3.1661,-3.1661,-3.1661,-3.1661,-3.1661,-3.1661,-3.1661,-3.1661,-3.1661,-3.1484,-3.1306,-3.1306,-3.1139,-3.0984,-3.0972,-3.0972,-3.0972,-3.0984,-3.0883,-3.0883,-3.0679,-3.0578,-3.0578,-3.0306,-3.0216,-3.0216,-3.0216,-3.0216,-3.0216,-3.0216,-3.0216,-3.0216,-3.0216,-3.0216,-3.0216,-3.0216,-3.0216,-3.0216,-3.0216,-3.0178,-3.0225,-3.0225,-3.022,-2.9699,-2.7858,-2.7442,-2.7502,-2.7476,-2.729,-2.7239,-2.7204,-2.7229,-2.7229,-2.7229,-2.7229,-2.7229,-2.7229,-2.7229,-2.7229,-2.7229,-2.7229,-2.7229,-2.7229,-2.7171,-2.7279,-2.742,-2.7469,-2.8264,-3.0123,-3.0226,-3.0225,-3.0225,-3.0157,-3.0216,-3.0216,-3.0487,-3.0679,-3.0984,-3.1229,-3.1395,-3.1661,-3.1661,-3.1661,-3.1661,-3.1661,-3.1661,-3.1661,-3.1661,-3.1661,-3.1661,-3.1661,-3.1661,-3.1661,-3.1661,-3.1661,-3.1661,-3.1661,-3.1661,-3.1661,-3.1661,-3.1661,-3.1661,-3.1661,-3.1661,-3.1661,-3.1661,-3.1661,-3.1661,-3.1661,-3.1661,-3.1661,-3.1661,-3.1661,-3.1661,-3.1661,-3.1661,-3.1661,-3.1661,-3.1661,-3.1661,-3.1661,-3.1661,-3.1572,-3.1395,-3.1395,-3.1318,-3.1062,-3.1062,-3.1062,-3.0984,-3.0781,-3.0679,-3.0679,-3.0499,-3.0408,-3.0408,-3.0306,-3.0306,-3.0306,-3.0216,-3.0216,-3.0216,-3.0216,-3.0216,-3.0216,-3.0216,-3.0216,-3.0216,-3.0216,-3.0216,-3.0216,-3.0216,-3.0216,-3.0216,-3.0216,-3.0158,-3.0203,-3.0203,-3.0217,-3.0115,-2.9612,-2.9532,-2.9582,-2.9511,-2.8277,-2.722,-2.7227,-2.7216,-2.7216,-2.7216,-2.7216,-2.7216,-2.7216,-2.7216,-2.7216,-2.7216,-2.7216,-2.7216,-2.7216,-2.7197,-2.7895,-2.9464,-2.9567,-2.9734,-3.0162,-3.0209,-3.0203,-3.0203,-3.0181,-3.0216,-3.0216,-3.0216,-3.0499,-3.0984,-3.1062,-3.1318,-3.1661,-3.1661,-3.1661,-3.1661,-3.1661,-3.1661,-3.1661,-3.1661,-3.1661,-3.1661,-3.1661,-3.1661,-3.1661,-3.1661,-3.1661,-3.1661,-3.1661,-3.1661,-3.1661,-3.1661,-3.1661,-3.1661,-3.1661,-3.1661,-3.1661,-3.1661,-3.1661,-3.1661,-3.1661,-3.1661,-3.1661,-3.1484,-3.1661,-3.1661,-3.1484,-3.1661,-3.1661,-3.1661,-3.1572,-3.1484,-3.1484,-3.1484,-3.1407,-3.1139,-3.1139,-3.105,-3.0781,-3.0781,-3.0781,-3.0601,-3.0487,-3.0397,-3.0397,-3.0216,-3.0216,-3.0216,-3.0216,-3.0216,-3.0216,-3.0216,-3.0216,-3.0216,-3.0216,-3.0216,-3.0216,-3.0216,-3.0216,-3.0216,-3.0216,-3.0216,-3.0216,-3.0216,-3.0216,-3.0216,-3.0216,-3.0216,-3.0216,-3.0216,-3.018,-3.0244,-3.0244,-3.0183,-3.0185,-3.0196,-2.9346,-2.8612,-2.8614,-2.8591,-2.8591,-2.8591,-2.8591,-2.8591,-2.8591,-2.8591,-2.8591,-2.8591,-2.8591,-2.8591,-2.8591,-2.8653,-2.9079,-3.0149,-3.0225,-3.0244,-3.0244,-3.0182,-3.0182,-3.0216,-3.0182,-3.0182,-3.0216,-3.0216,-3.0408,-3.0781,-3.0972,-3.1151,-3.1407,-3.1484,-3.1484,-3.133,-3.133,-3.1407,-3.1484,-3.1484,-3.1572,-3.1661,-3.1661,-3.1661,-3.1661,-3.1661,-3.1661,-3.1661,-3.1661,-3.1661,-3.1661,-3.1661,-3.1661,-3.1661,-3.1661,-3.1661,-3.1661,-3.1661,-3.1661,-3.1661,-3.1661,-3.1661,-3.1484,-3.1318,-3.1484,-3.1484,-3.1217,-3.1484,-3.1584,-3.1584,-3.1407,-3.1306,-3.1306,-3.1306,-3.1139,-3.0972,-3.0972,-3.0781,-3.0578,-3.0578,-3.0397,-3.0216,-3.0216,-3.0216,-3.0216,-3.0216,-3.0216,-3.0216,-3.0216,-3.0216,-3.0216,-3.0216,-3.0216,-3.0216,-3.0216,-3.0216,-3.0216,-3.0216,-3.0216,-3.0216,-3.0216,-3.0216,-3.0216,-3.0216,-3.0216,-3.0216,-3.0216,-3.0216,-3.0216,-3.0216,-3.0216,-3.0216,-3.0216,-3.0216,-3.0226,-3.0229,-3.0183,-3.0178,-3.0237,-3.0178,-3.0178,-3.0178,-3.0178,-3.0178,-3.0178,-3.0178,-3.0178,-3.0178,-3.0178,-3.0178,-3.0178,-3.0197,-3.0206,-3.0175,-3.0191,-3.0239,-3.0205,-3.0227,-2.9907,-2.9149,-2.9907,-3.0205,-3.0216,-3.0216,-3.0306,-3.0578,-3.0871,-3.0972,-3.0984,-3.1139,-3.1139,-3.0984,-3.0984,-3.1062,-3.1217,-3.1306,-3.1395,-3.1661,-3.1661,-3.1661,-3.1661,-3.1661,-3.1661,-3.1661,-3.1661,-3.1661,-3.1661,-3.1661,-3.1661,-3.1661,-3.1661,-3.1661,-3.1661,-3.1661,-3.1661,-3.1572,-3.1395,-3.1395,-3.1217,-3.1062,-3.1229,-3.1229,-3.1062,-3.1229,-3.1318,-3.1074,-3.1074,-3.1139,-3.1306,-3.1139,-3.0871,-3.0668,-3.0668,-3.0487,-3.0216,-3.0216,-3.0216,-3.0216,-3.0216,-3.0216,-3.0216,-3.0216,-3.0216,-3.0216,-3.0216,-3.0216,-3.0216,-3.0216,-3.0216,-3.0216,-3.0216,-3.0216,-3.0216,-3.0216,-3.0216,-3.0216,-3.0216,-3.0216,-3.0216,-3.0216,-3.0216,-3.0216,-3.0216,-3.0216,-3.0216,-3.0216,-3.0216,-3.0216,-3.0216,-3.0216,-3.0204,-3.0158,-3.0237,-3.0226,-3.018,-3.0168,-3.0168,-3.0168,-3.0168,-3.0168,-3.0168,-3.0168,-3.0168,-3.0168,-3.0168,-3.0168,-3.0168,-3.0214,-3.0182,-3.0181,-3.016,-3.016,-3.0156,-3.0217,-2.8517,-2.5007,-2.8495,-3.0171,-3.0216,-3.0216,-3.0306,-3.0578,-3.0668,-3.0781,-3.0984,-3.1062,-3.1062,-3.0984,-3.0984,-3.0984,-3.1062,-3.1229,-3.1306,-3.1395,-3.1572,-3.1661,-3.1661,-3.1661,-3.1572,-3.1484,-3.1484,-3.1407,-3.133,-3.133,-3.1407,-3.1484,-3.1484,-3.1484,-3.1484,-3.1484,-3.1407,-3.1229,-3.1139,-3.1139,-3.105,-3.0769,-3.096,-3.105,-3.0769,-3.1074,-3.1175,-3.0984,-3.0883,-3.0871,-3.0937,-3.0859,-3.0679,-3.0397,-3.0397,-3.0306,-3.0216,-3.0216,-3.0216,-3.0216,-3.0216,-3.0216,-3.0216,-3.0216,-3.0216,-3.0216,-3.0216,-3.0216,-3.0216,-3.0216,-3.0216,-3.0216,-3.0216,-3.0216,-3.0216,-3.0216,-3.0216,-3.0216,-3.0216,-3.0216,-3.0216,-3.0216,-3.0216,-3.0216,-3.0216,-3.0216,-3.0216,-3.0216,-3.0216,-3.0216,-3.0216,-3.0216,-3.0216,-3.0216,-3.0216,-3.0216,-3.0216,-3.0216,-3.0216,-3.0216,-3.0216,-3.0216,-3.0216,-3.0216,-3.0216,-3.0216,-3.0216,-3.0216,-3.0216,-3.0216,-3.0182,-3.0239,-2.8034,-2.786,-3.0108,-3.0154,-2.9342,-2.7526,-2.9331,-3.0181,-3.0216,-3.0217,-3.0297,-3.0397,-3.0578,-3.0578,-3.0589,-3.0679,-3.0691,-3.0589,-3.0589,-3.0679,-3.0781,-3.105,-3.1318,-3.1572,-3.1661,-3.1661,-3.1661]}]]